GFSGL_sfc_temp_000.txt.gz
Temp
61 60 63 61 60 59 59 59 59 59 59 61 61 61 61 61 61 62 63 63 62 62 62 63 62 63 62 62 62 63 61 62 59 61 63 63 63 63 62 62 63 63 63
61 62 63 63 60 59 59 59 59 59 60 61 61 61 61 61 61 61 63 63 63 62 62 63 61 62 62 62 63 62 62 62 61 59 61 61 62 62 61 61 63 66 65
62 61 61 61 60 59 59 59 59 60 60 61 62 61 61 61 61 61 62 62 62 62 63 62 62 63 62 62 62 61 62 62 62 61 59 60 61 61 59 60 60 61 63
62 61 61 61 60 59 59 59 60 61 61 61 62 62 62 62 61 61 61 62 63 62 62 62 63 63 62 61 61 61 61 61 61 60 59 58 59 59 61 61 60 61 63
61 61 61 60 61 60 60 60 60 61 61 62 62 62 62 62 62 61 62 63 63 62 62 63 63 62 60 61 62 61 62 61 60 59 58 57 57 59 60 60 61 59 60
61 62 62 61 62 61 60 60 60 61 61 62 62 62 61 62 50 54 59 62 63 62 61 61 61 59 57 55 56 56 60 61 59 61 59 59 59 61 59 60 59 60 61
61 63 63 62 63 61 61 60 60 59 60 61 61 62 61 59 47 50 53 63 62 61 61 62 62 61 61 61 54 54 55 56 57 61 60 61 60 61 60 58 59 60 61
61 63 63 64 63 62 61 60 58 58 59 59 59 61 60 57 47 48 53 62 62 62 62 63 63 63 60 62 63 62 63 63 62 64 63 63 64 62 63 62 61 59 59
62 62 63 64 62 61 60 58 58 57 57 58 59 60 60 57 46 46 57 63 62 62 63 61 63 63 48 51 64 62 60 59 52 52 51 49 49 49 56 60 59 60 58
62 63 63 64 62 61 59 58 58 58 58 59 59 60 56 59 45 47 57 63 60 60 60 60 53 58 46 49 60 61 59 59 58 56 57 54 53 52 50 63 62 61 58
65 64 63 62 61 61 58 58 58 57 57 57 57 57 59 58 54 45 50 62 61 60 61 61 61 49 45 44 50 60 59 58 54 56 57 58 58 59 59 60 61 62 59
64 64 62 61 65 62 59 58 58 57 56 55 55 56 57 57 49 45 46 52 53 61 60 61 59 45 44 44 50 48 46 52 60 59 58 57 57 57 57 57 57 58 59
62 61 60 60 62 61 60 58 58 57 57 55 57 57 57 56 55 47 45 46 48 60 61 56 46 43 43 45 45 44 46 60 60 59 58 57 58 57 55 55 56 55 54
62 60 59 59 59 60 62 61 60 58 57 58 58 57 57 56 56 55 55 54 48 54 50 51 48 47 46 49 51 52 59 61 61 60 58 56 55 56 56 58 55 55 55
62 61 59 60 60 60 61 60 63 62 61 60 60 60 57 57 57 52 53 56 57 53 50 53 53 54 54 55 55 56 57 57 59 56 56 55 56 56 56 57 57 56 54
62 61 60 61 60 61 60 57 44 47 48 46 47 57 61 55 48 45 44 44 43 44 54 54 54 55 56 56 56 56 57 55 58 57 57 58 57 57 55 55 57 54 49
64 61 61 60 62 61 61 61 59 54 45 45 45 46 48 54 44 44 43 41 40 46 59 56 57 56 57 57 57 58 59 58 56 57 57 57 56 56 55 55 54 51 49
66 54 62 63 64 64 63 64 64 62 60 59 46 48 44 44 43 42 40 43 49 50 57 58 59 58 57 57 57 58 58 55 55 56 55 55 56 55 54 52 49 47 47
67 64 66 65 64 62 64 64 64 63 63 59 54 47 44 41 40 39 42 59 57 56 56 57 60 59 57 57 57 58 58 55 55 53 53 54 55 56 54 50 48 43 43
68 58 60 65 64 63 63 63 63 61 61 60 59 61 49 50 52 51 50 55 58 59 59 59 60 59 59 58 56 56 55 51 52 54 54 54 54 55 54 50 50 49 49
71 64 60 66 65 66 64 64 63 64 63 62 62 58 44 59 59 57 54 54 58 60 60 60 61 61 60 57 57 56 56 54 54 54 53 52 52 53 52 48 48 47 45
70 66 66 68 67 66 65 65 63 64 64 63 63 56 39 58 61 60 59 58 59 61 63 62 62 60 60 59 57 55 55 54 54 54 53 52 50 47 47 45 44 42 41
69 66 66 67 66 58 61 64 64 64 64 63 63 57 52 57 60 61 60 60 59 59 61 61 61 60 61 59 60 58 56 55 54 54 52 50 48 45 43 42 41 38 40
68 66 66 66 65 64 64 63 62 54 64 62 59 60 58 59 59 60 61 61 59 60 61 60 61 61 59 58 58 58 59 58 57 56 54 49 45 42 41 40 39 38 38
68 65 65 64 64 63 63 63 61 61 62 61 61 62 61 58 59 60 60 60 58 58 58 59 60 60 58 58 57 56 45 42 54 48 51 48 44 42 41 40 38 37 36
67 65 65 65 63 63 63 62 60 60 61 60 61 62 61 61 60 57 57 57 56 56 55 55 55 56 55 55 54 43 40 40 43 44 48 45 43 41 40 39 39 39 37

GFSGL_sfc_temp_003.txt.gz
Temp
74 74 74 73 72 70 69 69 69 69 69 70 71 71 71 71 70 69 68 67 67 69 69 66 66 69 69 71 68 66 65 62 59 61 62 63 63 63 63 64 66 64 63
75 75 75 73 71 69 70 69 70 70 70 71 71 71 71 71 70 69 67 66 65 64 65 64 64 67 68 69 67 67 67 63 61 59 61 61 61 63 63 64 64 68 68
76 75 74 72 71 70 70 69 70 70 71 71 71 71 71 70 70 70 70 66 65 66 67 64 66 65 66 67 66 66 66 64 63 61 60 61 61 62 62 64 66 65 70
76 75 73 72 72 71 70 70 70 71 71 72 71 71 71 71 70 70 69 66 65 66 66 67 68 66 68 66 64 66 67 63 63 60 60 59 60 60 62 62 62 69 66
75 75 73 72 72 71 70 71 71 71 72 72 71 72 71 71 71 70 70 67 67 65 68 69 69 65 60 60 65 62 65 63 61 59 59 58 58 58 61 66 66 66 66
75 75 74 73 73 71 70 71 71 71 71 72 71 71 70 71 50 54 65 68 69 69 68 68 67 62 57 55 55 56 61 64 60 61 60 58 59 66 66 66 66 67 65
75 75 75 74 73 72 72 71 70 69 70 70 70 71 69 68 48 49 53 69 66 67 69 68 68 67 66 67 55 55 55 54 58 65 67 66 65 67 67 68 69 71 69
75 76 76 77 75 73 72 71 69 69 69 69 69 70 69 67 46 48 51 67 64 64 69 70 69 69 67 68 67 68 66 66 68 71 70 69 71 71 71 71 69 67 69
76 76 76 77 75 73 72 70 69 69 69 69 69 68 68 64 46 47 59 65 65 65 69 70 71 69 49 52 67 69 70 68 53 49 50 51 51 53 64 73 71 71 68
77 77 78 78 76 74 72 70 69 70 70 72 69 70 60 64 45 46 59 69 66 66 64 63 54 63 45 51 72 71 70 68 69 69 68 59 59 57 53 73 73 72 69
79 78 77 76 75 75 71 70 69 69 68 68 68 68 68 65 60 45 50 63 67 68 67 69 68 45 44 48 53 70 66 68 60 71 70 69 69 68 71 72 73 74 71
78 77 76 75 76 74 71 70 70 69 67 66 66 68 69 68 54 45 46 53 56 66 69 68 64 46 44 46 56 44 47 58 72 71 71 70 70 70 69 69 68 69 72
76 75 75 74 75 74 72 70 71 69 71 70 70 70 69 69 68 47 45 46 50 69 71 60 46 44 43 49 45 44 49 73 73 73 73 72 72 69 66 66 65 65 64
75 74 73 73 73 73 75 74 75 72 72 73 73 72 71 70 71 70 67 64 49 63 53 60 53 53 47 57 60 59 75 75 74 74 73 71 69 68 68 69 67 65 64
75 74 72 74 72 73 75 75 76 75 73 75 75 75 72 72 71 63 64 70 71 63 62 66 68 69 70 70 71 71 73 71 72 72 70 67 68 68 67 68 68 68 65
74 74 75 76 74 76 74 71 44 50 50 47 52 66 75 58 47 46 46 45 44 44 67 69 70 71 72 72 72 71 71 65 72 71 70 69 68 68 68 68 69 68 64
75 75 77 72 75 75 75 75 72 59 47 46 47 48 51 58 44 44 42 41 41 47 73 72 73 72 73 73 73 73 73 73 73 73 72 71 70 69 64 67 67 66 63
76 58 77 77 78 77 76 76 77 75 73 72 49 54 44 46 43 41 41 46 59 57 73 74 73 74 74 73 74 74 74 72 70 71 70 70 69 68 66 66 64 62 57
77 77 79 79 78 75 78 78 78 78 77 77 74 51 49 41 40 40 42 72 71 71 72 73 75 76 74 74 74 74 73 72 70 69 69 68 68 67 66 66 62 47 49
78 64 68 78 78 77 78 78 78 77 77 77 75 75 67 57 64 64 62 68 72 74 74 74 75 75 76 75 75 73 72 68 67 68 69 68 67 68 67 62 55 49 49
81 77 67 79 79 78 79 77 78 77 77 77 77 75 51 70 74 74 71 70 72 75 75 75 76 76 76 76 74 73 72 71 71 70 68 68 67 65 63 55 51 51 46
82 80 77 80 80 79 79 79 78 78 78 78 78 75 41 70 78 77 75 74 75 76 78 76 77 78 78 77 75 73 73 71 70 68 67 65 63 61 55 55 53 48 46
81 80 77 79 80 69 74 79 78 78 79 79 80 79 65 71 76 77 75 75 75 75 77 77 76 77 78 77 76 75 73 73 70 69 63 59 60 60 57 52 50 44 42
82 80 77 78 79 78 78 76 78 66 78 79 76 77 74 73 74 75 76 76 75 75 76 76 75 76 77 75 75 75 74 75 70 64 62 60 59 53 54 51 47 44 40
82 77 76 75 76 75 75 76 77 77 76 77 77 76 76 75 76 76 76 76 76 75 75 75 75 75 74 74 74 73 62 43 63 57 65 62 53 55 54 51 44 41 39
78 75 73 75 74 74 75 74 76 75 74 75 75 76 75 74 74 74 74 75 75 74 74 74 73 72 73 73 72 57 39 41 47 47 62 57 53 49 51 45 41 40 41

GFSGL_sfc_temp_006.txt.gz
Temp
80 80 79 78 78 76 75 75 74 74 75 76 76 76 78 76 75 73 71 72 73 71 72 70 73 74 71 77 73 70 68 65 60 60 61 63 63 62 63 63 65 64 63
82 81 80 79 77 74 75 75 75 75 76 77 77 77 78 78 76 73 71 69 70 70 67 71 73 74 72 72 71 67 65 63 61 59 61 61 61 63 63 63 65 68 66
82 81 79 77 76 75 75 75 76 76 76 78 78 77 77 76 74 73 71 66 67 70 70 72 73 73 72 69 68 65 63 63 62 60 59 61 61 63 62 67 67 68 70
83 81 79 77 77 76 76 75 76 77 77 77 78 77 77 76 76 74 70 65 68 70 70 72 73 70 72 69 67 67 65 63 62 61 59 59 61 63 66 66 67 70 69
81 80 78 78 78 77 76 76 77 77 77 78 77 78 77 76 74 72 70 72 71 67 67 67 67 64 59 65 69 65 66 64 62 60 58 59 59 62 64 70 70 70 71
81 80 80 79 78 76 75 76 76 76 77 77 77 77 75 77 51 56 66 72 73 72 70 67 68 63 57 55 56 56 67 67 61 61 58 58 59 64 65 70 67 66 65
82 81 80 79 78 77 77 77 76 75 76 75 76 76 74 71 49 50 53 72 72 70 72 70 67 67 64 64 54 55 55 55 61 67 60 60 63 68 70 70 71 72 71
82 82 82 82 79 79 78 76 75 75 73 71 72 74 71 68 48 48 52 72 73 71 71 73 70 66 68 70 67 65 66 66 67 65 64 65 71 74 74 75 73 73 73
82 82 82 82 80 79 77 75 75 75 73 73 73 72 73 69 47 48 58 67 72 69 74 73 71 71 50 52 72 69 67 62 51 51 54 55 52 57 68 77 73 73 71
83 83 84 83 81 79 77 75 75 76 75 78 74 74 62 70 47 47 57 70 68 66 71 73 52 66 47 51 72 72 69 70 71 71 69 61 64 62 56 77 78 75 74
85 85 84 83 81 80 78 76 76 76 76 75 73 72 72 68 63 46 49 70 68 73 74 74 70 45 47 50 57 74 71 74 66 74 75 74 74 73 77 78 79 79 74
86 84 83 81 83 82 77 76 77 75 73 73 73 73 74 70 56 48 47 54 59 73 72 74 61 43 45 47 59 46 51 61 78 79 78 77 77 77 77 77 76 78 77
84 82 81 81 82 81 78 76 78 76 77 76 76 76 75 76 72 47 47 48 51 72 77 58 45 43 45 52 45 46 48 79 79 78 78 78 79 79 74 73 72 71 71
82 81 81 80 79 80 82 81 81 79 79 79 79 77 77 77 75 73 72 69 53 68 55 65 58 57 47 61 63 63 82 82 81 81 79 79 77 74 74 75 72 72 70
81 81 80 81 79 79 81 82 82 81 78 81 81 81 78 77 77 68 69 76 77 69 70 72 74 75 76 77 79 79 81 80 80 81 79 76 77 77 75 75 74 72 70
80 82 82 83 81 82 81 79 45 51 53 51 54 68 80 60 50 50 50 49 46 48 73 76 76 77 77 78 78 78 79 72 79 79 78 77 76 76 74 74 75 74 71
81 82 84 79 83 83 82 80 78 64 48 47 48 50 51 56 47 46 44 43 43 48 77 77 78 79 79 80 80 81 80 80 80 80 79 78 77 77 72 74 74 74 71
82 62 85 84 85 85 84 83 84 81 77 76 51 57 48 45 43 42 41 47 63 60 79 80 80 80 80 81 81 81 81 81 79 79 79 78 77 77 73 74 73 70 67
84 86 85 86 87 82 86 85 85 84 83 82 82 54 50 42 40 40 42 76 76 76 78 81 83 83 82 82 82 82 82 81 79 78 78 77 77 76 74 74 73 56 56
86 70 74 87 87 85 86 85 85 84 84 84 84 82 76 62 69 69 67 74 79 81 81 81 82 83 83 83 83 82 81 78 78 77 77 77 77 76 75 74 71 61 60
89 87 74 87 88 86 86 85 86 86 84 84 84 83 57 76 79 79 78 78 79 82 82 83 84 84 84 84 83 82 81 80 79 78 78 78 76 75 73 69 67 60 62
91 90 85 87 88 88 86 87 86 86 86 86 86 82 46 79 84 84 83 82 83 83 85 83 84 84 85 84 84 82 81 81 80 79 78 79 77 75 75 70 62 60 60
92 91 87 86 88 76 84 88 87 86 87 87 88 88 76 81 82 85 85 85 84 83 85 85 84 84 86 86 85 85 82 82 83 82 80 79 77 74 72 64 60 59 54
93 90 89 87 88 89 87 85 87 72 86 88 87 88 86 82 82 84 87 86 85 85 84 85 85 85 85 85 86 86 85 84 85 84 81 78 76 66 69 65 63 59 51
93 90 89 86 87 86 87 87 86 87 87 87 87 87 88 88 84 84 86 87 85 84 84 84 85 84 84 84 84 84 71 45 72 65 81 77 74 68 65 61 60 53 51
90 90 88 87 85 86 85 86 85 86 86 86 86 88 88 87 86 85 85 85 85 85 84 84 84 83 84 84 83 67 43 41 55 44 74 73 71 69 64 59 53 47 45

GFSGL_sfc_temp_009.txt.gz
Temp
82 80 75 75 79 78 76 77 77 76 77 77 78 78 79 78 77 74 72 73 72 70 69 72 75 76 71 70 71 70 69 65 58 59 60 61 61 60 61 61 62 62 61
83 82 75 74 79 76 75 76 78 76 78 79 79 79 79 75 75 73 71 72 72 72 74 75 74 75 71 70 68 68 66 66 61 58 59 60 60 61 61 62 62 63 63
85 83 78 79 78 76 75 74 77 78 78 79 80 79 77 75 73 68 68 71 71 72 73 73 73 73 69 67 67 66 65 63 62 59 59 60 60 60 61 62 62 63 65
85 83 80 78 78 76 78 77 78 79 78 76 80 76 76 74 74 74 67 71 68 70 70 74 73 73 70 67 66 64 62 61 61 60 59 59 60 61 62 60 59 62 64
84 83 80 80 80 79 78 78 79 79 75 76 75 77 77 77 75 75 71 71 65 65 68 68 67 63 61 65 66 64 62 61 60 59 59 59 59 59 60 63 62 65 67
83 82 81 80 80 79 78 74 73 73 73 75 76 74 73 77 51 54 62 69 67 67 66 64 65 64 58 55 58 59 63 62 60 59 59 58 59 63 66 64 64 64 63
83 83 82 81 79 79 79 78 77 74 74 77 78 73 75 71 50 50 53 72 70 70 68 69 67 64 63 65 55 55 55 55 59 62 59 60 61 66 66 64 66 68 68
84 83 83 83 80 78 76 76 75 74 72 74 76 73 73 68 49 49 52 72 71 71 71 72 67 67 66 67 66 67 65 63 62 62 61 62 64 65 68 71 70 70 71
84 83 84 84 81 79 77 76 74 72 71 72 73 73 73 69 49 47 59 71 68 70 72 70 72 70 52 53 69 64 61 58 54 54 56 55 53 55 67 76 72 71 68
85 85 86 85 82 80 78 77 77 75 75 71 71 73 65 70 48 46 56 68 69 67 71 70 54 64 49 51 68 65 60 60 63 62 66 56 59 63 57 75 76 72 72
88 87 86 84 82 80 78 77 77 77 77 72 72 73 72 70 63 47 48 71 71 71 72 70 69 46 49 52 58 66 65 67 62 70 69 70 72 74 76 77 75 71 70
88 86 85 83 84 82 78 77 78 76 74 71 70 71 73 72 56 49 48 52 57 72 72 74 62 46 49 54 59 49 51 61 75 73 72 72 73 74 76 78 78 70 77
86 84 83 83 84 82 78 77 78 76 77 71 73 73 73 75 70 48 50 49 54 71 76 57 45 45 47 52 48 50 51 77 77 76 75 76 77 79 77 76 74 73 73
84 83 82 81 81 81 82 81 82 79 79 80 73 72 74 75 74 73 72 69 54 65 55 63 59 56 49 60 61 60 76 81 80 77 78 80 81 77 75 75 72 72 70
84 83 81 83 80 81 82 82 84 83 78 83 83 81 77 77 76 68 69 75 76 68 70 72 72 74 75 75 77 80 82 82 78 81 80 78 77 76 76 75 74 72 69
83 83 83 84 82 83 82 80 45 52 52 53 51 67 79 59 52 51 50 48 49 51 73 74 74 77 77 78 78 79 80 74 81 81 80 78 77 77 76 75 76 73 71
83 83 85 79 84 83 83 82 79 65 49 52 50 49 53 56 48 47 44 44 46 51 76 77 77 78 79 80 80 81 80 81 81 82 81 79 79 78 72 75 75 74 73
84 63 86 85 87 86 85 84 84 79 77 77 53 57 47 46 46 44 43 50 67 62 78 80 80 80 81 81 81 81 82 82 81 81 80 79 79 78 76 75 75 74 73
86 87 86 88 88 83 87 86 86 85 82 81 80 56 49 41 41 41 43 76 76 76 78 80 83 83 82 83 83 83 83 83 81 80 80 80 79 78 77 76 76 59 63
88 70 76 89 88 87 88 87 86 86 85 84 83 78 73 62 68 68 67 74 79 80 80 80 83 85 85 84 84 84 83 80 81 81 80 80 80 79 78 77 77 73 70
91 88 74 88 89 89 88 87 87 87 86 86 86 83 61 75 76 76 75 76 78 81 83 83 84 85 86 85 85 84 84 83 83 81 81 80 80 78 78 78 77 75 68
93 91 88 88 90 90 88 88 88 88 88 87 87 82 48 80 82 82 81 81 81 83 85 85 86 86 87 86 86 85 84 83 83 83 81 81 81 79 78 77 77 71 66
94 92 90 89 90 78 86 89 89 88 88 89 89 88 76 83 85 85 85 86 85 85 86 86 86 86 88 88 88 87 85 85 85 84 82 81 80 79 78 76 75 65 62
94 93 93 90 90 91 90 88 90 74 88 90 89 89 85 85 86 86 88 89 88 88 87 87 87 87 87 87 88 88 88 87 87 86 84 82 81 75 79 77 74 65 63
95 92 94 91 90 89 90 89 89 89 90 90 90 90 90 89 87 87 87 88 89 88 87 87 87 87 86 86 86 87 75 47 75 69 86 84 81 79 79 76 72 65 61
91 91 94 94 90 91 90 90 90 89 90 90 90 91 91 90 91 88 88 87 88 89 88 88 87 86 86 87 86 70 47 41 57 43 79 83 81 79 78 74 70 66 53

GFSGL_sfc_temp_012.txt.gz
Temp
77 76 74 74 72 72 72 73 71 73 73 73 74 72 70 71 70 69 67 69 69 67 68 68 69 69 65 64 65 64 64 62 57 58 60 60 60 60 61 61 63 62 60
78 75 75 73 71 71 72 71 73 73 74 75 75 74 71 71 69 67 69 70 70 68 69 67 69 68 64 65 64 64 61 62 59 57 58 58 59 60 60 61 62 62 61
78 74 71 72 70 71 70 71 74 73 74 76 73 71 71 71 67 65 67 69 68 68 66 68 67 66 64 64 64 62 62 63 62 58 57 59 59 60 60 60 60 61 62
79 74 72 70 71 71 71 70 74 75 75 73 71 72 72 72 70 68 68 67 62 65 65 67 67 66 65 64 63 63 61 60 60 59 58 57 58 60 61 59 58 60 60
80 74 73 71 71 71 72 72 73 75 73 74 72 70 71 71 68 66 66 63 64 62 62 63 62 63 63 62 62 61 61 60 59 58 57 58 58 58 58 59 58 60 59
80 78 78 77 76 72 70 71 71 72 71 72 71 71 70 69 51 56 62 64 64 64 61 65 64 60 59 56 57 57 61 61 59 59 58 58 58 58 58 60 60 58 55
80 80 79 78 76 74 72 71 69 69 69 70 69 69 67 64 49 49 55 65 65 65 63 63 64 63 62 61 54 54 54 54 58 62 59 59 60 61 62 60 59 59 59
80 80 80 79 77 73 71 69 68 69 69 67 69 70 67 62 49 48 51 68 67 66 65 64 64 64 63 64 63 62 61 61 61 62 62 62 63 65 64 64 62 61 63
81 80 81 77 75 75 71 69 68 68 68 67 69 70 66 64 49 47 57 67 66 66 66 67 65 64 51 53 63 60 59 58 54 53 54 54 53 56 62 65 62 62 59
82 82 83 80 75 72 72 69 69 69 67 68 69 69 61 64 48 47 53 67 65 64 65 62 52 60 50 53 63 61 58 59 60 60 60 59 57 58 52 64 66 62 60
85 84 83 79 76 75 73 72 70 67 68 68 67 68 67 65 57 47 48 66 66 65 66 64 58 48 47 50 55 63 61 62 57 62 62 62 63 64 64 66 66 65 64
85 84 81 77 79 77 73 73 74 68 66 66 66 65 67 67 55 48 48 53 57 67 67 65 55 49 49 50 57 47 49 57 64 63 63 62 63 65 65 66 66 66 68
82 80 78 78 78 76 73 72 73 71 67 66 67 68 67 67 64 49 49 52 54 65 68 53 45 47 46 50 47 49 50 66 65 64 64 64 66 65 65 65 65 65 64
80 78 78 77 76 76 77 75 74 72 69 71 71 70 68 67 66 67 65 62 55 59 53 55 55 55 55 56 55 55 69 70 68 67 67 68 68 66 65 66 62 62 59
79 78 77 78 76 75 76 74 77 74 69 72 73 73 68 68 68 63 64 69 67 63 64 65 65 65 64 64 66 68 68 68 70 70 69 68 69 69 66 66 63 61 58
77 79 78 79 77 78 76 71 44 51 49 48 50 67 73 60 51 51 52 52 49 50 66 66 66 68 67 67 67 68 71 68 69 69 68 68 69 68 67 66 64 61 59
77 77 80 75 78 78 77 76 71 59 47 48 51 55 56 56 49 47 46 47 49 50 69 68 69 70 71 71 71 71 70 71 71 72 71 68 68 68 61 66 66 65 62
79 63 80 80 81 80 79 79 78 73 71 68 52 57 50 47 46 45 45 51 62 59 70 72 72 72 72 73 73 73 72 71 70 70 70 70 68 69 66 67 67 64 62
81 81 81 81 82 78 81 81 81 77 75 75 66 57 46 42 42 43 46 70 68 68 70 72 75 75 75 74 73 74 73 73 72 70 69 69 69 68 67 68 67 56 57
82 69 71 82 82 82 82 82 82 80 76 76 73 70 62 57 61 62 62 69 71 72 72 72 74 75 76 76 74 74 74 68 70 71 71 69 69 71 70 68 67 64 62
86 82 68 82 84 83 83 82 82 82 81 78 78 73 53 68 68 68 67 69 71 75 74 74 76 76 77 76 76 75 73 71 71 71 72 71 70 70 69 69 66 66 62
88 86 82 83 83 85 83 83 83 83 83 82 81 72 47 71 73 73 71 71 73 74 76 76 77 78 78 78 77 76 75 74 73 72 71 72 71 70 68 67 66 63 59
88 88 85 83 83 74 78 84 84 83 83 83 84 76 68 72 75 75 75 74 73 74 76 77 76 78 80 79 79 77 76 77 76 75 73 72 72 70 69 67 66 62 59
86 89 87 85 83 84 84 82 83 71 83 85 82 80 73 74 76 76 77 78 78 77 77 77 78 79 79 78 78 80 80 78 77 76 75 73 72 64 70 67 67 61 57
81 85 88 86 84 82 83 84 83 82 84 84 83 83 76 77 78 79 80 80 80 80 78 79 79 79 79 78 79 80 69 47 70 65 74 73 71 69 70 70 64 59 51
80 83 86 88 85 84 82 83 83 82 83 84 84 84 84 80 80 80 80 80 80 81 80 81 80 79 79 80 79 66 46 43 52 47 73 71 69 69 69 67 61 59 49

GFSGL_sfc_temp_015.txt.gz
Temp
67 66 65 65 66 65 64 64 64 63 65 66 66 67 68 68 65 63 62 63 62 62 62 62 63 61 61 61 61 61 59 58 57 57 59 60 60 61 60 61 62 61 60
67 66 65 65 65 64 64 68 65 64 65 66 67 70 70 66 62 63 62 63 63 62 63 63 63 64 61 62 61 59 60 61 59 56 58 58 59 61 61 60 60 60 60
70 70 68 66 67 63 64 67 65 65 65 69 69 70 67 64 63 62 63 63 62 61 62 62 63 62 61 61 60 60 60 62 61 57 56 59 59 60 60 60 60 59 60
73 71 68 67 66 63 64 68 65 66 65 69 68 69 66 66 65 65 65 62 61 61 62 62 64 63 61 60 61 60 60 59 59 58 57 58 58 60 60 58 57 58 58
71 70 67 66 68 67 68 67 66 66 69 70 68 68 63 63 64 62 63 62 61 61 61 61 62 62 60 62 62 60 60 59 58 57 57 57 57 57 57 58 57 58 58
72 71 67 66 70 68 68 68 68 65 69 69 67 63 61 64 50 53 60 62 62 61 61 61 61 60 56 55 55 57 61 60 58 58 58 57 57 58 59 59 58 57 54
73 70 70 68 68 68 69 67 66 65 67 66 63 60 58 56 48 49 52 63 62 61 60 62 62 61 60 59 54 54 54 54 58 62 59 59 58 60 61 59 57 55 54
72 71 71 71 70 69 68 63 63 62 64 64 61 60 58 55 48 47 52 63 63 62 62 62 62 60 61 62 61 61 61 61 61 62 61 62 62 63 62 61 58 55 56
71 71 72 73 69 67 67 62 62 62 62 62 61 59 58 55 48 46 58 63 63 62 62 63 63 61 50 51 61 60 59 58 53 51 50 52 51 53 59 62 58 56 53
73 73 75 72 71 66 63 62 62 62 63 62 62 60 56 56 48 46 56 62 60 60 60 60 53 58 48 50 61 60 58 58 60 61 60 54 55 51 54 59 62 57 55
75 73 74 68 66 66 63 63 62 62 62 61 61 60 59 57 53 46 50 62 61 59 59 60 57 48 47 48 53 62 59 60 57 62 60 59 58 59 58 58 59 61 59
74 73 71 69 72 68 64 62 62 61 60 59 59 59 59 58 52 47 48 56 56 61 59 57 53 46 46 47 55 45 48 55 61 57 56 57 57 58 59 63 62 59 63
71 71 70 69 69 66 63 62 61 61 61 60 59 58 58 58 55 48 49 51 54 59 60 52 46 46 45 47 44 46 50 60 57 56 55 56 58 59 59 60 59 60 59
68 70 67 68 65 65 65 64 62 60 60 63 61 59 58 57 58 57 56 56 52 53 49 51 52 53 52 52 52 55 63 61 60 59 57 58 59 57 58 58 56 55 54
70 71 67 68 68 64 63 60 64 62 66 65 63 64 60 57 59 56 57 61 60 57 55 55 55 56 55 56 57 60 63 62 61 61 60 59 60 58 59 58 57 54 53
69 70 67 67 68 66 61 57 45 48 48 54 54 62 64 57 49 49 51 49 48 48 57 57 56 55 58 59 59 59 61 58 63 62 62 62 62 62 60 58 57 55 52
69 68 68 66 67 65 62 61 58 55 48 45 50 51 54 53 48 48 46 46 46 50 58 58 58 58 59 59 60 62 63 64 63 66 65 64 64 64 56 61 60 58 54
68 57 70 66 70 66 65 65 62 61 58 58 50 51 47 47 47 46 44 48 54 54 59 60 60 60 62 62 63 63 64 63 62 64 66 65 65 65 60 61 61 58 54
70 69 69 70 67 68 68 66 67 64 62 59 53 49 43 41 43 43 45 63 61 61 59 60 64 63 62 65 65 65 64 62 62 61 61 63 64 63 61 61 61 50 52
75 62 64 67 69 67 67 71 66 67 65 62 60 58 49 49 52 52 53 60 63 64 63 63 62 63 67 65 65 68 63 60 63 62 61 65 64 64 64 61 61 60 55
76 70 66 70 68 68 70 66 71 69 68 66 64 61 47 60 60 59 59 60 63 64 64 64 66 64 64 66 69 66 66 67 66 67 66 63 64 65 63 61 62 60 60
77 76 71 75 74 69 68 71 66 69 70 70 68 63 43 64 63 62 62 63 65 65 64 66 67 67 67 66 64 67 67 66 65 65 66 67 66 62 61 61 59 58 53
68 73 74 74 75 66 65 68 72 68 69 70 72 67 56 64 65 65 64 65 65 66 67 65 62 68 71 69 66 67 69 70 69 65 64 65 66 66 62 59 60 53 51
69 69 72 74 75 74 74 66 69 62 70 71 67 67 63 64 67 67 67 67 66 67 67 69 70 69 67 67 72 72 69 68 68 69 69 67 65 57 64 62 58 55 52
67 67 67 68 74 73 74 73 69 70 73 73 71 65 66 66 67 69 69 69 69 68 68 69 70 70 70 70 68 68 64 46 64 58 68 67 66 63 65 64 57 53 48
63 65 67 68 67 73 74 72 73 71 72 74 73 68 66 68 69 69 70 70 70 71 71 71 71 70 71 71 72 63 46 46 50 46 67 67 65 64 64 62 58 53 48

GFSGL_sfc_temp_018.txt.gz
Temp
64 63 63 62 63 62 61 61 60 61 62 62 63 63 64 64 63 62 61 61 61 60 61 61 61 61 59 59 59 59 58 59 56 57 59 61 61 61 61 60 60 60 60
64 62 62 62 62 61 61 61 62 62 62 64 64 66 67 64 62 62 62 62 61 61 62 61 62 62 59 59 59 59 59 58 59 56 58 58 58 59 59 58 58 59 60
65 65 64 62 65 61 61 64 62 62 62 64 65 66 64 63 62 61 62 61 60 60 61 61 61 61 60 59 60 59 59 60 60 58 57 59 57 58 58 59 59 59 59
69 67 66 64 65 61 62 64 63 63 63 64 65 65 64 63 63 63 62 61 60 60 61 62 62 61 60 60 60 60 60 59 59 58 57 57 57 58 58 56 56 57 56
68 68 66 63 66 62 63 63 63 63 66 67 65 62 61 61 61 62 62 61 60 60 60 62 62 61 60 61 61 59 59 59 59 58 57 57 56 56 55 57 55 55 56
69 68 65 64 67 67 64 63 66 64 67 66 63 61 59 61 48 52 59 61 61 61 60 60 59 58 56 55 56 56 60 61 58 58 57 56 57 57 57 56 55 54 53
70 68 66 65 66 67 68 66 64 65 65 63 59 59 56 55 47 48 53 62 61 61 61 60 60 59 58 58 53 54 54 54 58 62 59 58 58 59 59 57 57 57 55
70 67 67 68 67 65 67 65 63 62 61 60 58 57 56 56 46 48 52 62 60 60 61 60 60 60 60 61 60 60 60 59 60 61 62 62 62 63 62 60 56 53 55
68 67 68 67 66 67 64 60 60 60 59 59 58 57 57 56 46 48 57 61 61 61 62 62 62 60 49 50 61 59 57 56 52 51 50 50 49 51 57 59 55 55 53
69 69 71 68 65 63 61 60 60 60 60 60 59 58 54 57 45 46 56 60 60 60 60 58 52 56 47 50 62 60 57 57 59 58 57 52 53 52 53 58 58 54 51
71 71 71 66 63 62 60 60 60 61 60 59 58 57 57 56 53 46 50 59 60 60 60 59 56 45 46 47 53 62 58 61 56 59 58 55 55 55 56 56 56 58 53
69 69 70 63 68 65 61 60 61 59 58 57 57 56 57 56 49 46 48 52 53 59 60 59 53 44 45 46 53 44 46 55 61 60 57 55 55 55 56 57 56 57 58
69 65 65 64 65 62 60 59 59 58 58 57 57 56 55 56 55 46 46 47 50 56 61 54 45 44 44 45 45 46 50 59 57 59 56 55 55 57 58 58 59 57 55
66 65 65 64 61 61 61 60 59 58 58 58 58 56 55 55 55 55 54 53 49 52 49 51 50 50 49 49 50 52 59 58 59 56 54 55 56 55 56 57 56 54 53
67 66 66 64 63 60 58 57 60 60 61 60 58 58 56 56 57 53 55 57 56 53 52 54 57 57 56 56 57 57 57 57 56 56 55 55 56 56 56 56 55 52 52
67 66 65 65 61 61 57 53 45 48 48 49 52 58 60 53 47 46 48 46 45 46 55 55 53 54 57 57 58 56 56 56 57 57 56 56 57 56 56 56 54 53 52
68 66 64 64 65 61 58 57 57 53 45 46 46 48 51 50 45 45 45 44 44 49 56 54 55 56 56 56 56 58 58 58 59 58 59 57 57 56 53 58 55 54 52
67 56 66 66 67 64 62 59 59 58 57 57 47 46 45 44 44 43 43 46 52 52 56 57 57 56 57 58 58 58 59 58 58 60 60 60 60 60 57 59 59 57 52
67 66 69 66 66 65 63 61 60 58 58 57 51 48 42 40 42 41 43 61 59 58 56 57 58 59 58 60 60 60 61 60 60 60 61 62 62 62 60 61 59 49 48
69 60 62 66 64 64 64 63 62 61 58 58 56 59 47 49 51 51 50 57 60 60 61 61 60 61 62 62 61 62 62 59 60 60 61 62 63 63 62 61 59 57 54
70 65 62 68 67 66 66 65 65 64 62 61 61 57 45 61 60 59 57 57 61 62 62 62 61 60 61 63 63 64 63 63 63 61 61 61 62 61 62 61 61 60 58
66 67 67 70 69 68 66 66 65 66 65 64 63 59 40 61 62 62 61 61 62 63 64 64 64 64 64 63 63 64 64 64 64 63 63 62 62 62 62 62 60 59 57
64 65 65 68 69 60 60 66 66 65 66 66 66 63 52 58 62 62 62 63 63 63 63 63 64 65 66 66 65 65 64 66 66 66 64 64 64 63 61 61 60 59 54
63 63 63 63 65 63 66 62 65 58 66 67 66 66 59 60 64 63 64 64 64 64 64 64 65 65 66 66 66 66 68 69 66 65 66 65 65 61 64 62 61 60 55
58 59 60 61 62 62 64 65 65 65 67 68 67 67 64 62 64 65 65 65 64 64 64 65 66 67 65 65 66 68 60 46 61 57 64 65 64 63 62 62 61 56 47
56 58 58 59 60 63 62 65 65 64 67 69 69 66 65 65 64 65 66 65 65 65 65 65 66 66 66 67 67 59 47 44 47 44 63 65 64 63 62 62 60 59 51

GFSGL_sfc_temp_021.txt.gz
Temp
63 62 61 60 60 60 59 59 59 59 60 61 61 61 61 62 62 60 60 60 60 59 60 60 60 59 58 58 58 57 56 56 55 57 59 62 61 60 60 61 62 61 60
61 61 60 60 60 59 59 59 60 60 60 61 62 62 65 63 61 60 61 61 60 60 60 60 60 60 57 57 56 57 57 57 57 57 58 58 58 58 58 58 59 60 60
62 60 60 60 59 59 59 59 60 60 60 61 63 64 63 62 61 62 61 60 60 60 60 60 60 59 58 60 59 58 57 60 61 58 56 58 57 57 57 58 57 57 59
63 60 60 60 62 59 60 60 60 61 61 61 64 63 62 62 62 63 62 61 59 59 60 61 60 61 60 59 59 59 60 59 59 57 56 56 56 56 56 55 54 57 56
63 62 61 61 63 60 60 60 61 61 62 66 63 60 60 60 59 60 61 60 59 59 61 61 60 61 60 59 59 59 60 59 59 56 55 55 55 55 55 56 55 55 56
65 62 62 63 62 62 61 60 60 60 65 65 62 60 58 59 49 49 58 60 61 60 60 60 59 58 56 55 56 56 60 60 58 57 55 55 55 56 56 56 55 54 52
67 65 67 63 62 64 63 62 60 62 64 62 58 58 56 56 46 50 52 61 60 60 60 60 59 58 58 58 53 54 53 54 58 61 56 57 56 58 58 55 56 55 54
67 65 64 64 64 66 65 60 58 62 61 59 56 56 56 55 45 50 53 59 61 60 60 60 59 59 59 60 60 59 60 59 60 61 61 60 61 60 60 60 56 54 54
64 64 65 64 63 62 60 58 58 58 57 56 56 56 57 56 45 50 57 60 61 60 61 61 61 60 49 50 60 58 57 56 52 50 50 50 48 50 55 59 54 54 52
65 66 66 64 63 61 59 58 58 58 58 58 56 57 53 56 45 47 56 61 60 59 59 58 51 56 46 49 60 59 56 56 58 58 56 52 53 51 52 57 58 53 51
67 66 65 63 62 60 59 58 58 58 58 57 56 56 57 56 53 47 49 60 60 59 58 58 55 45 46 47 52 60 57 58 54 59 56 54 54 54 54 54 55 56 50
66 65 64 61 65 62 59 58 58 58 57 56 55 55 56 55 48 46 46 50 54 60 59 58 52 43 45 45 52 45 47 53 58 57 56 54 54 53 53 53 53 54 54
64 62 61 63 62 60 58 58 57 56 56 55 55 56 56 55 55 45 43 45 49 58 59 53 43 42 43 45 44 45 50 58 57 55 53 52 53 54 55 55 54 54 53
62 60 60 60 59 59 59 58 57 56 56 56 56 55 55 55 55 55 54 52 48 52 49 50 49 49 47 48 50 53 59 56 59 56 53 53 53 54 54 55 54 53 52
62 61 60 60 59 58 57 56 58 58 57 58 57 56 55 54 56 52 53 55 55 53 54 56 57 56 55 55 55 55 56 56 56 54 53 54 54 54 54 54 53 51 52
61 61 60 60 58 57 55 53 45 47 48 49 49 54 57 51 44 44 45 44 43 46 56 57 57 57 56 57 57 54 54 54 55 55 54 54 54 55 54 54 53 52 51
63 61 60 59 58 56 55 56 56 52 44 45 45 47 50 49 42 42 43 42 43 48 54 56 58 57 58 58 59 58 56 57 56 57 56 55 55 55 52 54 54 53 51
62 52 63 62 62 58 57 57 57 56 56 54 44 47 44 43 42 42 40 44 51 51 54 55 55 55 57 59 59 57 56 55 56 56 55 55 55 55 54 54 55 54 52
62 62 64 63 63 61 58 57 57 57 57 55 51 47 42 40 39 39 40 56 56 55 54 55 56 56 57 57 57 57 57 56 57 56 56 56 57 57 56 57 56 48 50
63 56 59 63 60 58 58 57 56 56 56 55 55 55 48 49 51 51 51 54 56 56 56 56 56 56 56 57 57 58 57 54 56 57 58 59 59 59 59 58 58 56 54
62 60 57 64 62 63 61 60 60 58 57 56 57 54 43 58 57 57 55 56 57 59 58 58 56 57 58 58 58 58 58 59 59 59 59 59 59 58 60 61 60 58 59
59 61 60 65 65 64 63 63 60 60 60 59 58 54 39 53 59 59 59 58 60 61 62 61 61 60 60 60 61 60 60 59 59 58 59 60 59 59 59 59 59 58 57
60 60 60 61 62 57 58 61 63 62 61 61 61 58 48 54 59 60 60 61 61 61 61 61 62 62 63 62 63 63 63 63 64 63 61 60 60 60 59 58 58 56 54
57 58 58 59 60 60 59 58 59 54 63 63 62 61 56 58 60 61 62 62 62 62 62 61 62 63 63 63 63 64 65 66 65 65 64 63 62 58 60 59 59 58 58
54 56 56 56 58 58 58 58 59 59 62 64 64 64 63 60 60 63 63 63 63 63 62 63 63 63 62 63 64 64 58 45 59 55 64 63 62 61 61 61 60 58 56
53 56 56 56 56 57 58 59 59 58 59 63 64 65 65 63 62 62 63 63 63 63 63 64 64 64 64 64 64 58 47 45 48 44 62 64 62 62 62 61 59 59 55

GFSGL_sfc_temp_024.txt.gz
Temp
62 62 62 61 61 61 61 61 61 61 61 62 63 63 63 63 63 62 62 62 62 61 61 61 62 61 60 60 60 60 60 60 58 59 61 62 60 60 62 63 63 62 61
62 62 61 61 61 60 60 60 61 61 62 63 64 65 65 64 64 63 63 63 62 62 62 62 62 62 61 61 60 60 60 60 62 58 58 58 58 60 59 59 60 61 60
62 61 60 60 60 59 60 60 61 61 62 64 64 65 65 64 64 63 62 63 62 62 63 62 63 61 60 60 60 59 60 61 63 59 56 57 57 58 58 58 58 58 59
62 61 60 60 60 60 60 61 61 62 62 64 64 64 64 63 63 63 63 62 61 62 63 63 63 62 61 61 60 60 61 60 59 57 55 55 56 57 57 56 56 58 57
62 61 60 61 61 61 61 61 61 62 63 65 64 62 62 62 60 60 63 62 61 61 62 62 62 62 60 60 62 60 61 60 58 56 55 54 54 54 54 55 55 56 56
62 62 62 62 62 61 61 61 61 62 63 65 63 62 61 61 47 51 58 62 61 61 60 60 60 58 57 54 56 57 61 60 58 56 55 54 54 55 55 55 54 53 52
63 64 66 63 62 63 62 61 61 61 64 62 60 61 60 59 45 50 53 61 61 61 60 60 59 58 58 58 53 53 53 55 58 60 56 57 56 56 56 55 55 55 53
64 64 65 64 63 64 63 61 61 62 62 61 59 59 60 56 46 50 52 62 61 60 60 59 58 58 58 60 61 60 60 60 60 61 60 59 60 59 58 59 56 56 55
63 65 65 64 63 63 61 60 60 60 61 60 59 59 61 58 47 49 57 61 60 60 60 60 60 59 48 50 60 58 57 55 51 49 49 48 47 49 54 59 58 57 54
64 65 65 65 63 62 60 60 60 60 60 59 58 60 54 58 46 48 57 61 59 58 59 58 51 55 46 49 60 58 56 56 58 57 55 52 53 51 52 60 61 58 56
67 66 65 64 63 62 60 61 60 60 59 59 58 58 59 56 53 46 51 61 60 59 58 57 55 45 45 46 52 61 57 59 55 58 56 56 56 59 61 61 62 62 59
67 65 64 62 65 62 60 60 60 59 59 57 57 58 58 58 49 46 46 51 54 60 59 58 50 43 43 44 53 45 47 55 59 58 57 55 58 59 60 61 60 61 61
64 63 64 64 62 61 60 59 59 59 59 57 57 57 57 58 55 44 43 45 50 59 60 50 42 42 42 45 43 45 50 60 60 59 59 58 60 61 59 58 60 60 59
63 62 62 64 60 61 62 61 60 59 58 58 58 57 58 58 58 56 55 54 49 52 49 51 48 47 47 49 53 58 62 61 61 60 59 58 59 59 59 60 59 59 60
62 62 61 61 61 60 60 59 61 61 59 60 59 60 58 58 58 52 54 58 59 54 54 56 58 58 56 57 59 60 60 61 60 59 59 59 60 61 61 61 61 60 61
61 61 61 62 61 61 59 56 44 47 47 48 48 56 59 50 43 43 43 42 44 46 57 57 57 58 57 57 59 59 60 57 60 61 61 62 62 62 61 61 61 62 61
62 61 61 60 61 60 59 60 60 54 44 44 43 45 49 47 41 42 41 42 42 49 59 58 58 58 58 59 60 60 61 62 61 63 63 62 62 62 57 62 62 62 61
62 52 63 63 63 61 61 60 61 61 61 59 44 46 42 40 40 40 40 45 54 55 61 59 59 60 60 61 62 61 61 61 62 62 62 62 62 63 61 62 62 62 62
62 62 64 63 63 61 61 61 61 61 61 60 54 48 41 38 39 39 42 60 59 59 59 60 62 61 62 63 63 62 61 61 62 62 63 63 63 63 63 64 64 49 53
63 53 56 64 62 62 61 62 61 61 60 61 60 59 50 51 54 53 53 59 61 61 61 61 61 61 61 61 61 60 60 58 61 62 63 63 64 64 64 64 64 63 60
62 61 53 63 63 64 63 62 62 61 61 61 62 57 43 61 61 59 56 59 61 63 62 63 63 63 63 62 62 62 62 62 63 63 64 64 64 63 64 65 65 65 64
60 62 61 63 63 64 63 65 63 63 63 63 63 57 38 58 62 62 61 61 63 64 66 65 65 65 65 64 64 63 63 63 64 64 64 65 65 64 65 65 65 65 64
59 60 61 63 64 56 61 63 63 64 64 64 65 61 52 58 62 63 63 64 64 64 65 65 66 66 67 66 67 66 65 65 66 66 65 65 65 65 65 65 65 64 64
57 58 58 60 60 62 62 62 63 55 64 65 64 63 61 61 61 63 65 65 65 65 66 65 66 67 67 66 67 68 69 69 69 68 67 66 66 62 65 65 65 64 64
54 55 56 56 57 58 60 60 61 62 63 64 65 65 65 63 63 64 65 66 66 65 65 65 66 67 66 67 67 68 61 45 63 59 69 68 67 67 67 66 65 64 62
49 49 50 53 54 56 57 59 60 61 60 61 62 64 65 66 65 65 65 66 66 66 66 66 66 66 67 67 67 59 46 43 51 44 67 69 67 67 68 67 67 65 63

GFSGL_sfc_temp_027.txt.gz
Temp
74 73 73 73 73 74 73 73 73 72 72 73 73 73 73 73 72 71 70 71 68 70 70 70 69 70 71 71 71 72 71 67 66 63 67 64 64 67 66 66 64 64 62
75 74 73 73 73 72 72 72 73 72 73 73 74 74 74 74 73 71 71 70 67 70 71 70 71 71 69 69 71 69 70 70 70 60 60 59 60 62 62 62 61 62 62
75 74 72 72 72 71 71 71 73 72 73 74 75 74 74 73 73 71 64 65 67 71 71 70 71 70 69 69 66 65 69 71 71 62 57 58 59 59 58 59 59 59 60
76 75 72 72 72 71 71 72 73 74 74 74 74 74 73 73 72 68 67 66 65 71 71 71 71 71 68 65 65 65 66 68 64 60 57 57 57 58 58 57 56 58 58
75 74 71 71 72 72 72 72 73 73 74 75 73 73 72 72 68 66 70 66 63 67 67 71 71 68 62 64 68 65 65 64 62 57 56 56 55 55 55 56 56 57 58
74 73 73 73 72 72 71 71 72 73 73 72 71 72 71 71 48 51 59 66 66 65 64 66 65 62 59 55 57 58 63 63 60 58 56 55 55 55 57 56 56 54 52
75 74 73 73 72 70 73 72 72 71 69 67 71 71 70 68 46 48 53 64 64 64 63 63 63 64 62 64 53 54 54 54 58 62 57 58 55 57 57 56 58 59 55
75 75 74 75 73 73 73 72 70 71 65 67 69 70 69 62 48 48 52 65 63 62 62 63 63 62 64 66 63 63 63 62 62 65 64 62 60 59 59 61 61 55 56
75 74 75 75 74 72 72 71 70 65 64 67 70 69 68 62 48 48 57 62 62 60 61 60 61 61 48 50 62 59 57 56 51 50 50 48 47 49 55 59 57 60 55
76 76 76 76 74 73 72 70 70 71 67 70 68 68 57 62 46 48 58 63 61 60 60 60 51 55 46 49 62 59 55 55 56 56 55 52 53 52 53 63 64 62 60
77 77 76 75 74 73 71 70 70 69 69 68 67 67 64 60 58 46 51 64 63 60 58 58 55 45 45 47 53 60 56 58 54 58 59 58 59 62 62 67 70 70 68
78 77 76 74 75 73 71 70 70 68 67 67 66 66 64 60 49 46 48 52 55 62 59 58 52 44 45 46 55 45 47 56 64 61 60 59 60 61 68 69 69 72 71
75 74 74 74 74 73 71 70 70 69 69 66 69 68 64 60 56 44 44 47 51 62 63 51 42 42 43 46 44 46 50 66 66 62 64 64 66 69 69 68 68 69 68
75 72 68 72 71 72 74 73 73 70 69 69 69 67 66 61 58 60 58 57 49 54 50 54 49 50 51 56 56 62 72 71 70 69 67 67 69 68 68 70 69 68 70
75 75 72 74 72 72 73 72 74 73 68 71 70 71 68 61 60 57 60 62 62 58 57 61 64 62 60 63 64 69 71 71 71 71 69 68 69 70 70 71 71 70 69
74 75 74 76 74 74 72 68 43 47 45 46 49 61 68 51 44 44 43 44 44 46 61 60 60 64 64 67 68 69 71 65 71 71 71 71 71 71 71 71 72 71 70
75 75 76 72 75 73 73 73 70 57 42 42 43 45 48 48 42 41 41 42 43 50 63 62 62 62 63 66 70 70 69 71 71 73 73 72 72 72 68 71 71 72 72
76 55 77 77 77 76 75 75 76 73 71 69 46 47 40 41 40 40 42 47 57 58 64 64 66 69 69 68 68 71 73 72 72 73 73 73 72 72 70 71 72 71 72
76 76 77 78 78 74 76 76 76 75 74 72 66 51 43 38 39 40 44 67 64 64 66 66 69 69 70 71 71 71 72 72 72 72 73 73 73 73 72 73 74 55 58
76 56 62 77 76 76 76 76 76 74 74 74 73 71 55 53 58 56 64 71 70 71 72 72 72 72 71 71 70 69 68 69 71 72 73 73 74 74 73 74 74 73 73
78 75 60 76 76 77 77 77 77 77 76 76 76 70 46 72 70 67 68 71 73 74 73 73 74 73 74 73 73 69 65 68 72 73 73 74 74 73 74 74 74 75 74
76 77 75 77 77 76 76 77 77 77 77 77 77 68 38 69 76 75 73 73 75 76 77 75 76 76 76 75 74 73 72 72 73 74 74 74 74 74 74 74 74 74 74
71 73 74 75 76 63 72 76 76 76 77 78 78 75 65 72 76 76 76 77 76 76 78 77 76 77 78 77 77 76 75 75 76 76 75 75 75 75 75 74 74 74 73
68 69 69 69 71 74 75 75 76 61 73 78 77 76 75 74 75 76 77 78 78 77 77 77 77 78 78 77 78 78 78 78 79 78 76 76 76 71 75 75 75 74 74
58 59 58 58 63 66 67 69 70 71 72 73 74 75 77 76 75 75 76 77 77 77 76 77 77 77 77 77 78 78 67 47 68 64 79 76 76 75 76 76 75 76 75
53 53 52 52 52 52 53 54 54 56 57 57 59 64 68 70 73 73 74 74 75 76 76 77 77 76 76 77 76 63 46 42 53 43 73 77 76 76 76 76 75 76 75

GFSGL_sfc_temp_030.txt.gz
Temp
82 81 80 80 81 81 80 80 79 79 79 79 79 78 78 78 77 75 75 75 73 73 75 74 73 75 76 77 77 72 68 68 65 67 70 69 70 71 74 72 70 68 64
82 81 80 80 80 79 79 79 79 78 80 80 80 80 80 79 77 77 76 77 73 70 75 75 74 76 75 74 72 72 72 72 70 66 62 62 64 69 67 66 65 65 65
82 80 79 79 78 77 78 78 79 79 79 80 80 80 80 80 78 77 76 74 68 72 74 75 75 74 73 73 72 72 74 72 71 67 59 60 60 63 62 62 62 61 61
82 80 78 78 78 78 78 78 78 79 79 79 80 81 80 79 79 77 73 74 73 74 75 77 77 76 74 73 73 73 72 70 70 63 58 59 58 59 59 57 57 59 58
81 80 78 78 79 78 78 78 79 79 80 81 80 79 79 78 79 75 75 74 68 71 73 77 77 71 63 68 74 72 70 68 66 61 58 58 57 57 56 58 57 57 57
80 79 79 79 79 77 77 77 77 78 79 80 79 79 76 79 50 50 60 69 72 72 72 73 72 65 62 57 57 60 66 70 66 63 58 56 56 56 57 57 57 55 54
81 80 80 79 78 77 78 78 77 76 76 76 77 77 76 74 48 48 53 67 67 68 67 67 71 69 66 68 55 54 55 55 62 67 59 60 59 60 59 58 59 58 57
81 80 80 79 77 77 78 77 76 76 74 73 75 76 75 69 49 48 52 67 64 64 66 68 70 67 67 69 68 67 68 69 68 69 64 62 61 61 64 62 60 56 58
80 79 80 81 79 78 77 75 75 73 73 74 76 75 74 69 48 48 58 63 61 60 62 66 69 66 50 52 70 64 61 59 52 53 52 49 47 49 56 64 57 56 54
79 80 82 82 79 78 77 76 76 75 74 79 75 74 60 68 47 49 58 63 61 61 61 64 52 58 45 49 66 63 58 59 60 57 55 51 54 52 53 61 60 57 59
84 84 82 81 79 78 77 76 76 76 76 74 74 73 69 65 61 48 52 64 62 61 60 60 58 45 45 47 54 65 59 60 55 59 58 57 57 58 61 64 66 69 67
84 83 81 79 81 79 75 75 76 75 73 72 71 72 68 67 50 48 48 53 56 65 61 59 51 44 44 46 55 45 46 54 60 59 58 57 58 62 67 70 70 72 75
83 81 80 80 80 79 75 73 72 72 73 71 73 71 68 64 59 45 45 47 51 63 62 49 43 43 43 46 45 46 49 61 60 59 59 61 67 70 70 69 69 73 73
80 80 80 79 78 78 78 77 73 71 71 73 74 72 69 62 61 61 61 61 52 59 50 53 52 53 52 55 57 55 67 68 66 67 67 69 71 70 69 71 70 72 75
81 79 79 78 79 76 76 71 74 73 68 73 74 77 71 63 62 58 60 64 68 60 62 64 64 64 63 64 64 64 69 68 70 71 70 70 71 73 74 76 76 75 74
80 81 82 82 80 81 78 74 43 45 44 46 46 63 73 54 46 44 45 44 45 46 66 68 68 68 68 69 68 69 72 66 69 71 73 75 76 76 76 76 78 76 75
81 81 83 78 82 81 79 77 72 60 43 42 44 43 48 48 43 42 43 43 44 48 67 70 70 70 70 70 73 73 74 72 76 78 78 77 78 78 74 76 77 77 76
84 61 84 85 84 83 82 79 79 75 73 71 47 47 42 41 41 41 42 47 59 59 66 69 71 74 75 75 76 78 78 77 78 79 78 78 78 78 75 76 77 76 77
84 85 86 86 86 80 83 83 81 80 75 76 70 55 45 39 39 41 45 65 65 66 70 69 73 74 76 77 77 79 79 79 78 78 78 78 78 78 77 78 79 61 64
83 60 67 86 84 84 84 84 83 81 80 79 78 74 62 57 61 58 68 69 71 73 72 73 73 75 77 79 79 79 79 77 77 78 79 79 79 79 79 79 79 78 77
88 82 62 86 85 85 85 84 84 83 82 82 82 75 51 76 75 73 74 77 78 79 79 80 80 80 80 79 80 80 78 79 79 79 80 79 79 78 79 80 80 80 80
88 86 85 86 86 85 85 85 85 84 84 83 84 69 41 74 82 79 79 80 82 83 84 82 83 83 83 82 81 80 79 77 78 80 80 80 80 80 80 80 79 79 79
84 86 85 86 85 69 81 85 85 85 85 85 85 78 73 78 83 84 83 82 83 83 85 84 83 84 85 84 84 83 81 81 81 81 81 80 80 80 80 79 79 79 79
78 79 80 84 86 84 84 83 84 65 82 86 84 85 82 81 82 83 85 86 85 84 84 85 84 85 85 84 85 85 84 85 85 85 83 82 81 77 80 81 80 80 79
58 57 57 58 60 62 69 72 74 76 77 78 80 83 86 85 85 85 84 84 84 84 84 84 84 84 83 82 84 84 70 44 71 57 84 83 81 80 81 82 80 80 80
54 51 50 50 50 52 51 52 53 54 53 54 56 60 62 63 66 66 64 67 73 79 81 83 83 81 79 71 53 40 37 38 54 40 72 79 79 80 81 80 80 81 80

GFSGL_sfc_temp_033.txt.gz
Temp
82 78 77 77 78 79 79 79 81 81 81 82 81 80 80 79 79 77 78 78 76 73 72 74 74 73 76 76 76 69 64 66 64 62 67 71 70 72 74 72 72 72 65
80 77 76 79 80 80 80 81 82 81 82 82 82 81 81 81 79 78 77 78 75 72 72 74 75 75 75 73 73 69 66 70 64 64 66 66 69 71 68 66 66 68 66
84 81 80 78 81 80 80 80 81 81 81 82 82 81 82 82 80 79 77 77 75 74 70 72 77 74 73 73 75 71 70 69 68 69 61 62 64 66 63 63 63 62 61
85 82 79 77 78 80 80 80 80 81 81 81 82 83 83 82 80 78 77 75 73 71 73 73 78 75 74 74 73 72 71 69 68 65 60 60 60 61 61 59 58 59 59
84 82 80 81 81 81 80 80 80 80 82 83 82 79 80 80 78 76 76 73 73 70 71 75 77 72 66 68 74 71 71 68 67 60 59 58 58 58 58 59 57 57 57
83 82 82 81 81 79 79 77 79 80 79 77 75 78 78 76 50 52 63 73 72 69 72 73 72 66 62 56 56 59 67 68 65 62 60 57 58 58 58 57 57 56 54
83 83 82 82 76 74 74 75 79 75 74 74 75 79 75 70 50 51 55 70 71 69 71 71 75 73 68 71 56 56 56 57 64 67 61 60 58 59 59 58 59 60 56
84 83 82 78 75 75 75 78 74 73 75 75 77 76 73 66 50 50 53 69 68 68 69 70 72 71 70 69 71 70 69 69 69 68 66 64 63 62 62 62 60 58 59
81 79 77 77 75 76 78 76 72 75 74 74 76 75 73 67 49 51 61 65 62 63 68 69 69 69 52 52 69 66 64 61 53 51 50 49 48 51 58 63 58 57 54
78 82 85 84 76 77 78 71 73 76 76 77 75 74 60 68 48 50 58 62 61 60 62 64 49 63 47 50 64 63 59 59 61 60 59 56 56 53 53 64 61 57 56
80 85 78 79 80 78 75 71 73 76 76 72 73 72 68 66 60 49 51 63 63 64 60 63 66 45 46 49 55 65 59 62 56 60 58 58 58 59 62 63 62 60 60
86 81 76 74 77 78 77 77 77 70 73 73 72 71 69 67 51 49 50 54 57 65 63 62 53 44 45 47 55 45 47 55 60 58 57 56 57 57 59 61 62 70 73
83 77 78 74 76 79 76 74 75 76 77 74 70 71 67 66 57 45 46 48 51 65 65 52 43 42 43 47 44 45 51 60 59 57 57 57 59 61 64 65 66 68 72
80 75 77 74 74 77 79 73 73 71 71 71 67 67 68 62 61 64 63 61 52 59 50 54 52 51 51 52 53 57 64 63 62 60 59 62 64 65 64 67 68 71 72
81 75 80 81 75 77 68 68 72 66 64 70 67 68 70 64 62 59 62 67 66 58 59 62 61 61 60 59 60 61 65 64 65 64 64 66 68 68 69 72 73 73 73
77 82 82 83 82 77 77 72 44 45 42 42 43 60 72 55 47 47 45 45 47 47 65 66 65 66 66 67 68 65 68 64 67 68 68 70 70 71 72 74 76 74 73
79 82 85 78 78 75 80 78 72 59 43 41 42 44 52 47 44 43 42 44 44 48 66 69 69 69 69 64 64 67 69 70 70 72 72 74 74 76 73 76 76 76 75
83 64 85 82 83 78 73 77 77 74 73 69 47 48 42 42 42 42 42 48 63 60 68 68 72 74 74 71 72 70 73 71 74 72 72 76 78 78 77 77 77 76 76
86 87 87 86 82 80 74 71 75 77 75 72 66 53 45 39 40 41 44 70 69 70 71 73 71 70 69 68 73 71 72 71 72 74 77 79 80 80 78 78 78 61 66
85 63 66 87 86 86 84 71 72 72 77 77 76 69 60 59 60 60 65 68 71 73 73 75 76 74 74 75 77 74 72 71 79 80 80 80 80 80 79 79 79 78 77
89 87 62 87 87 87 87 86 85 82 77 74 77 72 51 73 69 69 69 69 71 76 77 78 78 79 81 82 76 76 76 72 77 80 81 81 80 79 79 80 80 80 80
89 87 87 89 89 87 86 87 86 86 86 84 79 68 44 69 80 78 78 73 75 78 83 80 76 77 77 79 82 82 81 81 81 82 81 82 82 81 81 80 80 80 80
88 88 88 89 88 74 86 87 86 86 87 87 82 78 76 79 77 83 83 84 84 84 82 81 84 82 85 86 86 85 83 82 83 82 81 81 82 81 82 81 80 80 80
73 77 78 82 76 86 86 85 79 70 68 74 82 82 82 83 85 82 78 78 84 87 87 86 87 87 87 85 81 79 75 73 86 86 84 82 82 79 82 81 82 82 81
57 58 61 65 69 68 70 69 68 69 69 67 66 71 72 70 69 69 69 73 69 63 60 59 57 58 60 55 54 50 39 35 50 42 81 82 82 81 82 82 82 82 81
51 50 50 50 50 52 53 54 54 55 55 56 57 58 59 59 59 60 61 63 64 67 67 66 64 58 59 55 47 37 35 35 41 35 57 75 78 79 80 80 81 82 81

GFSGL_sfc_temp_036.txt.gz
Temp
79 78 79 78 78 78 76 75 75 75 75 75 76 75 75 74 74 71 72 71 71 68 68 67 68 68 66 66 67 65 62 63 59 61 63 64 64 65 65 64 67 63 62
76 74 74 75 74 74 74 74 75 75 76 77 78 77 77 76 74 73 72 73 70 69 68 67 68 69 67 66 65 64 63 64 61 59 62 63 63 64 65 65 64 65 62
75 75 74 74 72 72 72 75 77 77 77 78 78 77 77 75 73 73 73 72 71 69 69 67 69 68 66 66 66 64 63 64 63 62 60 61 63 63 62 62 61 60 60
76 75 73 73 74 74 76 76 76 77 76 76 77 78 77 74 74 74 73 70 70 68 69 68 69 68 67 67 66 66 65 63 63 61 60 59 60 61 61 59 57 59 58
78 74 73 73 74 77 76 76 76 76 77 78 76 73 73 68 70 70 72 70 67 65 67 68 68 67 64 65 67 66 65 63 62 60 59 58 58 58 58 58 56 57 58
79 78 78 78 77 75 75 74 75 76 74 72 71 71 70 68 49 52 62 68 69 68 65 66 63 59 57 57 57 60 63 63 61 61 58 57 57 58 58 57 57 56 54
80 80 80 78 73 72 73 73 74 71 70 70 70 69 67 63 49 51 55 68 67 67 67 66 67 66 65 64 54 56 56 56 61 64 59 58 57 58 58 57 59 58 56
80 80 77 74 72 72 72 72 71 70 70 69 69 68 66 60 49 51 55 67 67 68 68 68 67 67 67 67 67 66 65 64 64 66 62 61 61 61 62 62 60 57 58
78 76 76 76 72 71 71 69 70 68 68 69 70 69 65 62 49 52 60 63 64 64 63 63 67 65 52 51 66 62 60 57 52 51 52 50 48 50 57 61 58 56 54
78 79 79 77 75 72 69 69 70 69 70 69 68 68 58 63 48 50 57 60 59 59 62 62 51 57 49 52 63 61 58 58 59 58 56 52 54 53 53 61 61 57 56
82 80 76 74 72 70 70 70 69 70 69 68 67 67 66 63 57 49 52 64 62 62 60 61 57 45 47 49 54 62 58 60 55 59 59 59 59 59 60 61 63 60 57
80 79 77 75 77 74 70 71 71 70 67 66 65 65 65 63 51 50 50 53 56 63 62 58 53 43 44 46 53 45 47 54 59 58 57 57 57 57 60 60 60 60 62
76 74 74 72 72 73 71 69 69 68 66 66 65 64 62 61 58 45 46 49 49 62 61 48 43 42 43 45 44 46 51 59 58 56 56 57 59 60 60 59 60 62 63
74 71 71 71 70 71 75 69 70 69 68 67 65 64 62 60 62 61 59 58 52 53 50 54 50 49 51 51 53 56 60 60 59 58 58 60 60 60 59 60 60 61 60
74 72 71 73 67 62 57 56 64 56 61 66 66 65 63 60 63 58 59 63 61 55 56 58 58 56 55 57 59 61 61 61 59 60 60 60 61 62 62 63 62 62 61
72 76 76 73 72 71 68 61 43 43 42 42 47 60 68 53 46 45 46 46 47 45 61 59 59 58 58 58 59 60 62 60 62 62 62 63 64 63 64 65 65 63 62
74 74 72 72 74 73 71 68 61 53 43 42 42 48 50 47 43 43 45 44 42 46 63 63 62 63 63 62 61 63 63 64 65 66 65 66 67 66 60 66 66 67 64
73 61 74 77 78 72 73 72 70 68 66 62 45 45 42 42 42 42 42 48 57 56 63 64 65 63 63 63 65 66 65 64 66 66 67 67 67 69 67 67 67 65 64
76 77 71 79 78 71 72 73 75 72 68 62 56 50 44 40 40 41 42 67 67 65 65 67 68 67 65 65 65 67 69 68 67 67 67 67 69 69 69 68 68 58 60
77 63 65 78 75 76 71 73 73 72 68 67 65 59 55 56 58 59 62 64 67 68 70 67 69 69 67 68 67 67 66 63 67 67 67 69 71 72 70 69 68 67 65
86 71 62 72 75 79 76 74 76 75 73 72 68 62 48 66 62 63 64 67 69 71 71 72 74 73 74 72 73 71 70 70 69 71 72 71 71 70 69 70 69 69 69
76 85 78 76 77 77 77 76 76 76 75 74 71 60 42 71 69 70 68 69 72 72 75 72 72 72 73 72 72 70 70 70 69 69 71 73 72 72 72 71 71 70 69
70 83 84 74 81 70 69 77 69 77 77 75 73 68 65 67 67 67 73 71 68 68 67 65 70 68 65 64 62 60 61 62 66 74 72 71 71 71 70 70 71 72 71
63 71 74 70 72 73 67 69 69 58 71 74 74 73 69 66 65 65 64 65 63 62 60 58 56 53 52 52 52 53 47 43 57 61 66 73 74 71 73 74 74 73 72
56 56 59 62 64 65 64 62 62 59 60 63 63 63 63 62 62 60 63 64 62 60 58 55 55 52 48 45 44 42 36 35 43 38 64 69 70 70 72 73 73 71 71
53 50 49 49 49 50 52 52 53 54 53 53 54 54 54 54 54 55 56 57 58 57 56 54 50 48 47 44 40 35 34 35 40 38 60 64 64 63 59 64 67 68 68

GFSGL_sfc_temp_039.txt.gz
Temp
71 71 71 70 71 70 68 68 68 68 68 69 69 69 69 68 67 65 64 65 64 63 63 64 64 64 61 61 60 59 58 58 55 57 60 62 62 61 62 62 62 62 61
72 70 69 71 70 70 69 70 69 68 69 70 71 72 72 71 68 65 66 66 64 63 64 64 64 66 62 61 59 59 58 59 58 57 59 61 61 62 62 62 62 63 61
73 71 70 70 70 69 70 70 71 70 70 72 72 71 70 68 67 66 66 66 64 65 64 65 64 63 61 60 60 59 59 61 60 60 59 61 61 62 60 60 60 59 60
73 72 70 70 71 70 71 71 71 71 72 68 69 70 70 69 70 70 67 65 64 64 64 65 66 63 62 61 61 60 62 59 59 59 59 59 59 60 59 58 57 59 59
72 71 70 71 72 72 71 68 68 68 69 69 68 69 68 66 65 66 66 64 63 62 63 66 64 63 63 63 62 61 61 61 59 57 57 58 58 58 57 57 56 57 58
73 72 73 73 73 69 67 67 67 66 67 67 69 66 63 62 49 52 60 63 63 62 61 62 61 59 57 57 59 60 61 59 58 60 57 57 57 57 57 57 57 56 54
73 74 73 72 71 71 72 71 66 64 69 66 66 63 59 56 49 50 56 62 62 61 62 62 62 63 60 60 54 55 56 56 60 61 58 58 57 58 58 57 58 58 56
72 72 72 72 71 71 70 67 66 66 65 64 62 60 57 56 49 51 57 62 61 61 62 63 62 60 60 62 61 60 59 59 59 62 60 60 61 61 61 61 59 57 58
70 70 72 73 71 66 68 65 66 62 61 61 61 59 57 56 48 52 57 61 61 61 59 61 61 59 50 52 60 57 57 56 52 53 53 50 49 51 57 60 56 56 54
70 71 71 70 70 68 65 65 62 62 62 62 62 60 55 56 47 50 56 59 58 59 59 57 52 56 48 50 61 60 57 57 57 56 54 51 53 52 52 62 60 56 56
73 73 71 66 66 66 68 64 62 61 61 62 61 59 58 56 54 49 52 59 59 58 59 57 54 47 46 47 53 61 57 58 55 58 57 57 57 59 59 59 62 61 57
75 72 67 67 71 70 66 65 62 61 61 60 59 59 58 57 50 49 50 53 56 60 57 55 50 44 45 46 52 45 47 54 58 58 57 56 57 57 59 60 59 59 61
72 67 67 70 69 65 62 62 62 61 61 60 59 58 58 58 54 45 46 48 51 58 58 47 43 43 43 45 44 45 50 59 58 56 56 56 58 59 58 58 59 60 61
69 65 67 69 65 63 63 61 61 60 60 60 59 57 58 58 57 55 55 53 49 51 50 52 49 49 50 50 53 55 59 59 58 57 57 58 58 58 54 56 56 57 58
65 67 68 67 59 56 53 54 58 56 57 62 61 59 58 58 58 56 57 58 58 53 55 57 56 56 56 56 58 58 58 58 58 58 58 58 58 56 56 58 58 56 56
66 65 65 64 61 59 58 54 42 41 41 48 53 57 60 50 46 47 47 45 44 46 56 56 55 56 56 57 57 57 58 57 59 58 56 59 59 60 59 57 58 56 55
66 68 66 64 63 61 59 58 56 51 43 41 41 46 48 45 44 45 44 43 41 47 57 57 56 57 57 55 56 56 55 56 57 60 60 61 61 62 56 59 60 59 57
67 59 67 65 66 64 61 60 61 59 56 54 44 44 41 41 41 41 41 47 53 52 57 58 57 57 58 57 57 57 57 58 59 61 62 60 59 61 59 59 59 58 57
72 72 66 65 66 64 63 63 64 59 55 54 53 48 43 40 40 41 42 56 56 58 59 60 62 60 59 61 60 61 60 59 60 59 62 63 61 61 60 60 59 53 54
70 57 58 63 68 63 64 65 62 59 57 59 57 55 53 55 54 53 54 56 58 59 60 61 63 62 61 62 60 63 60 60 63 63 64 65 65 65 65 65 65 62 58
73 68 59 68 66 69 67 62 62 62 60 58 57 55 45 59 57 56 56 58 60 61 61 62 62 63 63 66 66 63 64 65 65 65 66 66 67 66 66 62 61 61 60
71 69 67 69 70 70 64 66 63 65 64 60 59 51 37 58 58 58 58 60 62 61 56 63 59 57 58 58 61 62 63 63 65 65 65 63 65 65 66 66 66 66 63
69 69 70 68 66 58 60 63 62 66 65 62 60 57 60 61 59 61 59 57 57 55 52 52 52 50 51 51 50 49 48 50 54 58 62 64 67 67 67 66 66 64 65
58 63 63 59 61 61 61 63 61 56 66 64 63 61 59 60 59 58 56 53 52 52 52 48 46 46 47 46 46 46 42 41 49 54 59 63 63 63 64 63 64 65 63
50 49 51 53 54 55 54 52 52 53 54 54 53 52 52 54 55 55 54 53 50 49 47 47 46 44 42 40 41 41 36 34 44 40 60 58 55 56 58 60 60 61 60
49 48 47 47 47 46 47 47 46 47 48 48 47 47 48 47 48 49 50 50 47 46 44 43 43 41 41 41 38 35 35 37 43 39 54 53 52 51 53 53 55 55 55

GFSGL_sfc_temp_042.txt.gz
Temp
65 66 67 67 67 67 67 67 67 66 66 67 66 67 68 66 65 65 66 65 63 61 61 61 61 62 60 60 58 57 57 56 54 56 58 60 61 61 61 62 62 62 61
67 67 68 68 67 66 66 67 68 66 66 67 68 68 69 68 67 66 63 64 62 61 61 62 62 63 62 60 58 57 56 58 56 55 58 60 60 61 61 61 62 63 62
69 68 68 68 68 67 68 68 68 67 67 68 69 69 70 69 68 66 64 63 62 62 62 62 62 63 61 59 57 57 57 59 59 59 59 61 60 60 59 60 59 60 60
69 68 67 67 68 68 69 69 68 69 69 70 71 71 71 69 65 65 64 63 62 63 63 63 65 63 60 60 59 58 58 58 59 60 60 59 59 59 59 58 57 59 58
69 69 67 68 69 70 69 69 69 69 70 69 66 65 65 65 65 65 64 63 62 61 62 63 64 64 61 60 60 58 58 57 60 60 58 58 57 58 57 57 56 57 57
70 69 70 70 71 69 69 68 68 65 64 63 62 63 62 62 49 54 59 61 61 61 60 60 60 60 59 55 57 57 60 59 58 57 57 57 57 57 57 57 57 57 54
69 71 71 71 70 69 69 65 62 61 62 61 63 62 58 55 48 49 54 61 60 60 60 60 62 61 58 59 53 54 54 54 59 57 57 58 58 58 58 57 58 56 55
71 71 72 72 70 69 66 62 61 64 63 62 60 58 56 55 48 50 54 61 60 60 61 62 61 60 59 60 59 58 58 58 58 59 58 58 59 59 61 61 58 57 58
70 71 71 72 66 68 66 64 65 63 61 59 57 56 57 57 48 50 56 59 58 57 60 61 61 59 48 50 59 56 55 55 51 51 52 50 49 51 56 61 58 56 54
67 71 72 72 69 67 66 65 63 60 60 60 58 57 53 56 47 48 55 59 58 57 56 57 52 54 46 49 58 57 56 56 57 56 55 51 52 53 52 60 59 57 55
69 68 69 70 68 67 66 64 60 60 60 58 57 56 57 57 53 46 50 58 58 59 56 56 54 45 45 47 51 58 56 57 54 57 57 57 57 57 58 59 62 60 55
69 67 65 66 70 69 65 59 60 60 59 58 58 58 58 57 50 47 49 52 53 58 57 55 50 44 44 46 52 45 46 53 58 57 56 56 56 57 58 58 60 59 60
68 64 63 66 69 67 62 60 60 60 59 58 57 57 57 57 53 45 45 46 49 57 57 48 43 42 43 45 43 45 49 58 57 56 56 56 58 58 58 57 58 60 60
67 62 61 63 60 59 60 60 60 59 58 58 57 57 57 56 55 55 54 53 48 50 48 50 49 49 49 49 52 54 58 58 58 57 56 57 58 58 56 58 57 58 58
64 64 65 60 57 54 50 52 59 58 58 59 58 59 58 56 54 53 54 56 57 53 54 56 56 55 55 56 56 56 57 58 57 57 57 57 57 57 56 57 57 56 56
64 67 64 58 57 54 54 51 41 42 44 46 50 55 56 50 45 46 45 44 45 46 56 55 55 55 56 56 56 55 57 55 58 58 58 58 57 55 55 57 57 56 54
62 61 59 60 58 57 57 55 53 48 44 42 44 45 46 45 43 43 42 41 41 47 56 55 55 56 56 57 57 57 56 58 58 59 58 59 59 59 54 57 56 55 54
64 56 60 60 59 57 57 57 57 57 56 53 44 43 41 42 42 41 41 47 54 53 56 56 56 55 55 54 54 54 54 54 56 56 56 59 59 60 57 56 56 55 55
65 63 61 61 59 58 57 57 57 57 55 52 52 46 41 39 40 40 42 56 57 57 58 55 55 55 57 57 56 56 56 55 56 57 59 60 58 57 56 56 55 49 50
64 54 56 61 59 59 59 58 56 57 56 57 57 54 49 50 51 51 53 55 57 59 60 60 59 60 60 59 59 58 57 57 58 57 60 61 60 57 57 60 59 58 56
66 60 55 62 60 61 60 58 57 59 59 58 57 51 38 55 53 54 54 57 58 57 59 60 59 60 60 60 61 60 61 61 62 62 62 62 63 62 64 64 63 63 60
66 61 63 62 62 61 60 60 59 60 59 57 56 51 40 56 56 57 56 54 51 50 52 53 51 51 50 52 52 59 62 62 61 59 61 62 62 63 64 63 63 62 58
65 65 62 60 61 54 60 60 60 59 58 58 58 58 57 56 55 53 52 51 48 47 47 48 47 46 48 49 48 47 52 52 53 54 57 60 60 61 61 62 62 60 60
61 60 58 56 58 59 58 58 59 53 58 60 58 58 55 53 52 49 49 48 45 45 45 45 43 43 45 45 46 46 43 44 51 56 59 57 57 56 57 57 57 56 55
52 53 51 49 52 51 52 52 52 53 54 52 51 52 53 51 50 49 47 45 44 42 41 42 42 42 43 42 43 43 38 36 45 42 54 54 54 55 55 54 55 54 54
47 48 49 48 47 47 48 47 46 47 47 47 47 45 44 44 45 45 45 44 41 41 41 41 40 40 40 39 38 35 36 36 42 39 52 53 51 51 53 53 53 53 52

GFSGL_sfc_temp_045.txt.gz
Temp
65 64 63 62 63 64 65 65 65 66 66 66 67 66 66 66 67 66 65 64 64 62 60 60 60 60 59 58 57 56 56 55 53 55 58 60 60 61 62 62 62 61 61
63 63 64 64 65 65 65 65 65 65 66 67 68 68 67 68 66 65 63 64 62 60 60 60 60 61 59 58 58 56 56 56 55 54 58 60 59 61 61 61 62 62 62
64 65 66 65 65 64 65 65 66 66 68 68 67 67 68 66 64 65 66 63 61 61 61 60 61 60 59 57 57 56 55 57 57 57 58 60 60 60 59 60 59 60 61
66 66 66 66 66 66 66 67 66 67 66 66 67 67 68 67 67 66 64 61 61 61 62 61 61 61 62 60 57 56 57 57 59 60 59 58 58 59 59 58 57 59 58
67 66 67 66 66 67 67 67 66 67 67 68 67 67 67 66 65 62 62 61 60 60 61 62 62 63 61 60 58 56 57 57 58 59 58 57 57 57 57 57 57 57 58
66 66 66 66 67 67 67 65 66 65 67 67 65 65 61 60 51 54 60 60 60 60 59 60 60 60 58 56 57 56 58 59 60 58 55 57 57 57 57 57 57 57 54
66 66 67 67 66 66 67 66 66 64 62 60 58 58 57 55 47 49 53 60 59 59 58 58 59 61 59 58 53 54 53 53 58 58 59 59 57 58 58 57 57 55 56
66 67 68 68 67 67 67 65 63 61 59 58 57 58 57 55 47 48 51 59 58 58 58 59 59 59 59 58 58 57 57 57 57 59 58 57 57 59 61 61 55 57 57
66 67 69 69 67 66 65 62 60 59 58 57 58 57 57 56 47 47 55 57 57 58 59 60 61 60 49 48 58 56 55 54 50 51 51 49 48 50 56 58 55 57 54
67 69 70 69 68 65 63 60 59 59 59 58 56 58 54 56 45 47 54 57 57 57 57 56 50 55 46 48 58 57 56 55 55 55 55 51 52 53 52 62 59 57 55
70 70 69 68 64 62 60 62 61 59 57 56 56 57 58 55 52 46 49 58 58 56 56 55 52 44 43 45 50 57 56 55 53 57 57 56 56 57 58 59 61 60 54
67 67 66 66 66 65 62 61 60 58 57 56 57 57 58 57 49 46 47 51 52 58 56 54 50 44 44 46 51 43 46 53 58 57 56 56 56 57 57 58 59 59 60
64 63 67 66 65 64 62 59 58 58 57 57 57 57 57 56 53 44 44 46 49 57 57 49 43 42 43 45 43 44 49 58 57 56 55 56 57 58 58 57 58 60 60
62 61 64 64 62 62 61 60 59 57 57 57 57 57 57 56 55 55 54 53 48 49 48 50 48 47 48 48 52 55 57 58 57 56 56 56 57 57 57 57 56 57 57
62 60 62 62 58 53 49 52 58 56 57 58 58 59 57 55 55 52 53 56 55 52 54 56 56 55 55 55 56 56 57 57 57 57 56 56 56 56 56 57 57 56 55
62 60 57 56 56 54 53 51 41 43 45 47 49 54 55 47 44 44 43 43 44 46 55 55 55 55 55 55 55 55 56 55 56 57 57 57 56 56 56 57 57 55 54
61 59 56 56 55 55 55 55 53 47 42 42 42 43 46 45 42 41 42 41 43 49 56 55 55 56 56 56 56 56 55 56 58 58 58 57 57 57 54 56 57 56 55
59 51 59 57 57 56 57 56 57 58 56 53 43 43 41 41 40 40 42 48 54 53 55 55 56 54 56 56 55 55 56 56 57 58 57 58 58 58 56 55 55 53 53
61 59 58 57 57 55 57 58 59 58 56 52 50 46 41 39 39 41 44 56 56 55 55 55 56 56 55 55 55 56 57 56 56 57 57 58 58 58 57 54 53 46 47
60 50 54 58 57 57 56 58 57 56 56 56 55 52 49 51 53 53 55 56 58 58 58 57 57 57 57 58 57 57 56 54 56 57 58 59 59 57 55 55 54 54 53
58 57 51 59 58 57 57 57 58 58 58 56 54 50 41 54 55 56 57 54 53 53 57 58 58 57 59 58 59 59 58 58 59 59 59 60 58 58 59 60 60 57 56
60 60 60 60 59 57 57 59 59 58 57 55 55 48 37 56 57 53 51 49 47 48 48 49 48 49 48 47 48 54 59 59 58 58 58 60 60 58 58 59 61 60 59
62 60 60 60 58 52 58 59 59 59 58 58 58 55 55 52 50 48 46 45 44 44 43 44 46 46 46 46 45 46 49 49 51 53 55 57 57 57 58 58 58 58 56
60 59 59 59 59 58 58 57 56 51 58 57 55 52 49 47 47 45 43 41 40 42 42 42 42 40 40 42 43 44 44 46 52 55 56 57 56 54 56 55 53 53 52
53 54 55 55 54 54 56 57 54 52 51 52 51 49 49 47 45 44 44 43 42 40 40 40 41 41 40 38 39 40 36 37 43 41 51 53 52 51 51 52 51 50 49
49 48 49 50 50 50 49 48 47 47 46 45 44 44 45 44 44 43 42 41 40 39 40 39 40 39 39 38 37 35 36 37 41 39 51 50 49 49 49 51 51 50 50

GFSGL_sfc_temp_048.txt.gz
Temp
61 60 62 62 63 63 64 64 65 65 66 67 68 68 68 68 68 67 67 66 65 65 64 64 64 63 61 61 62 61 60 60 59 59 61 63 62 62 63 62 64 64 63
62 59 60 61 62 63 64 65 66 66 67 68 68 69 69 68 67 67 66 66 66 64 63 63 63 63 62 62 62 61 60 60 60 58 60 60 60 61 62 61 62 64 64
61 60 60 62 63 63 64 65 66 66 67 68 69 69 69 68 68 67 67 66 65 64 64 63 64 63 62 61 61 60 60 61 61 59 59 60 60 61 60 60 61 62 62
62 62 62 63 64 64 65 66 66 68 68 68 69 69 68 68 67 67 66 65 64 64 64 64 64 64 63 62 61 61 60 60 61 61 59 58 59 59 60 59 58 60 59
64 64 64 65 66 66 66 66 67 68 68 68 68 68 68 68 67 66 65 64 63 63 63 64 65 63 61 62 61 60 61 60 60 59 58 57 57 58 58 59 58 59 59
65 66 68 67 68 67 66 66 66 66 66 67 67 67 66 64 51 54 61 63 64 63 63 63 64 61 58 56 56 56 61 61 61 60 58 57 58 58 59 58 58 57 56
66 67 67 68 67 67 66 65 65 65 66 65 64 65 61 58 48 49 52 63 63 63 63 62 62 63 60 61 53 53 54 54 58 62 60 60 57 60 60 59 60 61 58
66 66 66 66 66 65 65 64 64 63 62 60 60 59 58 55 46 47 51 63 62 62 62 62 63 62 62 60 59 60 61 62 62 64 63 63 62 62 63 64 62 60 58
65 65 66 66 64 64 63 63 62 60 59 58 59 59 58 56 46 46 56 61 60 61 62 62 63 62 49 50 60 59 58 57 51 51 52 50 48 50 57 63 60 58 56
65 66 67 66 65 64 63 61 60 59 58 58 59 60 54 57 45 46 56 59 59 59 60 58 51 56 44 47 61 59 57 57 57 58 56 52 52 52 52 64 63 59 57
67 67 66 65 64 64 62 61 60 58 58 57 58 58 58 56 52 46 49 61 59 59 59 57 55 44 44 46 51 60 57 57 54 58 57 57 57 58 60 62 65 64 62
66 65 63 63 65 63 61 60 59 58 57 57 58 58 58 57 49 46 47 51 53 59 59 57 51 42 43 44 52 44 46 53 59 58 57 57 57 58 59 60 61 60 62
63 63 64 64 63 62 60 59 58 58 58 57 58 57 57 57 53 43 43 45 49 57 58 50 43 42 42 45 43 44 49 59 58 57 56 57 58 59 59 59 59 60 60
61 63 63 62 61 62 61 60 58 58 58 58 58 57 57 57 56 56 55 53 48 50 49 51 48 48 47 48 53 56 59 60 59 57 57 57 58 58 57 59 57 59 58
64 63 62 61 58 52 48 55 59 59 59 59 60 60 57 57 57 53 54 57 56 51 54 57 56 56 56 56 57 58 58 59 59 58 57 57 57 57 56 58 59 59 57
61 61 60 58 56 55 55 52 42 44 46 47 50 55 56 48 44 43 43 43 44 46 56 56 55 56 56 56 55 56 57 56 58 58 58 58 57 56 56 56 58 57 55
59 59 57 57 58 57 57 57 53 46 41 41 41 42 45 42 41 41 42 42 43 49 56 55 56 57 56 56 57 57 56 58 59 59 59 58 58 58 55 56 57 60 59
59 50 59 57 58 57 58 57 58 57 55 52 41 42 40 40 41 41 43 48 55 53 56 56 56 58 57 57 57 59 58 58 61 61 59 58 59 59 56 56 57 55 55
62 60 59 58 58 56 59 60 60 57 54 50 50 45 42 40 41 44 45 58 56 55 58 57 58 59 57 58 59 60 59 58 58 59 58 59 60 58 56 57 55 48 51
59 49 53 58 58 58 60 59 57 55 55 56 53 50 51 53 54 54 56 57 57 57 58 58 59 60 60 60 60 59 59 58 58 57 58 59 59 60 58 62 61 62 60
58 57 51 59 58 59 59 57 59 59 57 55 53 51 41 57 55 52 51 49 50 51 53 54 53 54 56 59 59 58 58 58 59 61 61 59 60 59 62 63 64 62 64
60 60 60 58 59 59 59 60 59 57 57 55 54 47 39 55 51 48 46 46 46 46 47 49 47 48 49 50 51 56 61 60 60 61 61 64 64 63 61 64 62 61 62
62 61 60 59 58 53 58 59 58 58 57 56 55 54 51 48 46 45 45 44 45 44 44 45 46 45 47 47 48 50 53 54 56 59 61 61 61 61 62 61 60 60 58
62 61 59 58 58 58 58 57 57 51 56 54 52 50 48 46 45 44 43 43 43 43 44 42 41 41 42 43 43 43 43 46 53 53 56 57 55 53 53 51 51 50 51
60 60 59 58 57 56 55 54 54 53 52 51 49 47 46 45 44 44 42 42 42 42 42 43 43 43 42 43 44 44 37 37 46 43 55 54 54 53 51 52 52 51 52
53 54 54 54 53 51 50 48 47 47 46 46 46 45 44 43 43 42 41 40 41 40 40 41 40 40 40 40 38 36 36 37 41 38 50 49 48 48 49 47 47 46 47

GFSGL_sfc_temp_051.txt.gz
Temp
70 71 72 73 75 75 75 76 77 77 78 78 79 78 78 77 76 75 75 76 75 72 72 74 74 73 75 75 76 76 75 75 71 70 67 66 64 67 68 69 70 73 72
72 72 73 73 73 73 73 75 77 76 78 79 79 79 79 78 77 76 76 76 73 72 72 73 73 74 72 72 75 71 73 73 73 67 63 63 63 64 64 65 65 72 75
72 72 72 71 71 71 73 74 76 77 78 79 79 78 78 78 76 73 77 74 70 70 68 70 73 72 71 73 73 72 72 72 72 68 64 63 62 62 62 63 64 65 66
73 72 72 72 72 73 74 74 76 78 77 78 78 79 79 78 75 72 71 72 75 72 70 74 74 73 72 72 72 71 70 71 70 67 64 61 61 62 63 60 61 66 63
72 72 72 73 73 74 75 75 76 76 78 78 78 78 78 76 74 76 76 75 73 72 72 74 74 71 65 68 74 70 70 70 68 65 62 60 59 59 60 62 62 61 61
70 72 74 74 74 74 72 72 73 76 76 77 76 76 74 76 52 57 67 73 74 73 72 73 73 63 62 56 58 59 67 68 64 64 60 59 60 61 61 63 63 63 60
67 70 74 74 73 70 70 71 72 71 72 72 70 72 73 67 49 51 55 75 74 73 73 72 72 74 66 72 55 54 56 55 61 69 61 60 61 63 64 62 65 67 65
63 69 71 74 71 69 70 72 71 72 72 71 71 71 67 58 47 47 51 74 74 73 72 72 72 72 70 71 69 69 70 70 69 72 70 66 65 65 68 68 66 64 63
64 68 70 72 69 69 70 70 69 67 68 66 64 64 65 61 45 46 60 73 72 71 71 72 72 72 51 49 69 69 69 66 53 49 52 52 50 53 63 70 66 64 57
70 71 72 71 70 70 69 67 67 66 63 67 67 69 58 61 44 46 62 72 69 66 65 66 51 66 45 47 63 67 64 64 67 67 65 57 57 58 51 70 69 63 60
72 74 72 71 70 67 66 64 63 64 64 63 63 63 63 62 56 46 50 72 70 66 69 66 67 44 43 46 53 64 64 64 60 69 68 65 65 63 67 67 69 71 67
72 72 68 66 65 65 64 62 62 61 61 61 61 63 62 61 50 47 47 53 56 70 63 64 56 43 43 45 54 44 46 54 67 64 62 61 62 63 66 70 70 72 74
67 66 65 65 65 63 61 60 61 62 63 63 67 63 61 62 60 43 43 45 49 66 68 55 42 41 42 46 44 45 47 67 63 61 58 59 62 66 66 67 67 67 68
65 64 66 63 63 63 64 65 67 65 65 67 65 63 61 62 61 64 63 60 49 52 49 52 50 52 50 52 54 59 69 66 64 61 60 61 63 62 63 64 60 63 66
66 66 65 65 62 59 59 66 68 69 67 68 66 66 62 62 65 58 61 68 65 55 57 60 63 60 59 60 62 63 66 67 65 64 64 62 61 61 60 62 63 63 61
65 65 61 60 61 60 60 55 42 45 43 45 50 61 63 50 43 43 43 43 44 45 58 58 58 59 58 59 60 61 63 60 63 62 62 61 59 61 60 60 66 63 60
65 64 66 65 64 61 61 59 54 47 41 40 42 44 46 43 41 41 42 42 42 50 57 58 59 59 59 59 60 61 60 61 63 63 62 62 62 60 56 56 57 61 59
69 54 68 65 63 65 65 63 59 57 54 51 42 44 40 40 41 41 42 49 57 55 58 56 60 61 60 61 61 61 62 61 63 63 63 63 63 59 57 57 58 63 66
71 67 64 65 68 65 63 63 60 56 53 50 52 46 43 41 42 43 45 60 59 56 59 59 66 63 61 61 63 67 64 66 66 67 67 63 62 62 58 59 58 46 49
69 51 60 63 63 63 63 61 57 55 58 61 58 54 55 58 59 58 57 60 63 62 61 63 63 62 64 67 69 67 64 63 64 63 61 61 61 62 58 59 61 63 67
63 63 54 63 63 63 62 59 58 60 62 59 57 53 39 56 52 50 49 49 53 55 55 55 56 58 61 66 65 66 64 68 60 61 62 62 64 62 65 67 73 73 73
63 62 63 63 63 62 62 61 60 62 62 60 54 47 40 53 49 47 47 46 46 49 51 53 53 53 54 58 59 61 63 65 67 67 65 66 65 69 73 72 71 70 69
66 62 61 62 61 54 59 60 60 63 61 56 55 54 52 48 45 46 47 46 47 50 52 56 58 57 56 54 57 57 61 61 64 68 69 69 65 63 62 60 61 59 56
69 63 61 60 60 59 58 58 60 53 56 56 54 53 52 51 47 44 47 50 51 51 52 52 52 55 53 49 50 51 56 60 58 58 60 60 58 54 54 52 51 50 50
68 60 60 59 59 57 56 55 57 56 53 53 50 50 50 50 46 45 46 47 47 48 47 47 49 47 47 47 48 46 38 37 53 45 57 55 55 52 54 55 55 53 48
61 59 58 56 54 54 52 51 51 52 49 48 49 49 48 45 44 44 43 43 43 44 44 45 45 45 44 43 41 36 36 37 43 39 54 53 53 52 50 49 49 51 49

GFSGL_sfc_temp_057.txt.gz
Temp
79 80 79 79 80 81 80 82 82 81 83 85 85 84 83 83 83 82 83 85 83 82 83 81 79 81 83 83 82 82 74 73 71 75 76 74 72 74 75 77 75 77 72
80 80 79 80 80 79 80 80 82 82 83 84 85 86 86 85 84 83 82 87 83 81 81 81 79 82 78 80 75 74 75 75 80 72 73 74 72 72 72 72 74 74 75
81 80 79 79 79 78 78 79 82 83 84 85 86 87 87 87 85 84 85 86 85 84 82 81 79 79 78 76 78 75 81 81 79 75 70 74 70 70 69 71 71 72 70
80 79 78 78 79 79 80 80 81 83 84 85 86 88 89 89 88 86 86 86 84 83 81 79 81 80 79 77 77 79 80 76 75 71 70 70 69 66 66 65 66 69 71
78 77 76 78 79 80 80 81 83 84 86 87 87 88 89 90 91 87 86 85 82 82 82 82 82 78 71 72 81 78 77 76 69 71 68 69 68 63 64 65 66 65 67
76 76 77 78 79 80 81 81 81 83 84 86 87 88 87 91 64 63 77 82 82 81 78 79 80 70 67 59 63 59 69 71 72 68 71 68 66 67 68 69 67 66 63
73 76 77 77 77 78 81 81 82 81 82 82 85 87 86 86 55 57 63 83 81 79 78 76 77 81 73 78 60 58 60 59 62 72 69 68 68 70 68 68 68 69 67
71 74 77 78 77 78 80 80 80 81 80 81 84 85 85 76 52 53 59 82 79 79 78 78 78 78 77 77 76 74 75 74 72 76 73 72 73 72 70 70 69 69 70
70 73 76 77 76 77 79 77 79 80 80 81 84 83 79 70 49 53 64 79 78 79 81 81 81 80 59 51 75 73 72 71 56 52 54 54 54 55 62 69 66 68 67
70 73 76 77 77 77 77 76 77 77 77 81 79 81 66 73 47 51 61 83 79 80 80 76 56 70 48 48 72 72 70 71 73 71 69 61 61 62 54 68 70 67 70
70 73 75 73 74 75 73 74 76 76 73 72 74 74 75 72 63 47 49 75 81 79 77 75 74 46 45 46 49 72 67 70 64 70 70 70 71 71 72 73 73 75 71
69 70 71 72 73 71 72 73 74 70 70 71 72 71 74 71 56 48 49 55 63 79 75 73 64 44 44 47 57 48 50 56 69 69 70 69 71 71 73 72 72 75 77
65 66 66 71 68 71 71 68 68 69 72 72 74 74 73 74 71 46 45 47 51 71 67 54 45 43 44 50 45 46 51 62 64 66 65 66 70 72 68 71 73 73 74
60 61 66 64 64 67 68 68 70 69 71 75 75 73 74 75 73 73 70 68 54 62 55 62 59 57 52 60 59 61 71 66 64 66 68 70 72 71 71 71 69 71 70
61 66 63 63 64 65 60 65 70 74 74 78 77 77 76 75 74 67 69 75 74 65 66 68 69 68 68 69 70 70 70 70 67 68 70 68 68 70 71 72 71 71 70
60 62 62 63 60 61 62 58 44 46 46 47 56 71 69 52 45 47 45 45 47 48 70 70 69 66 69 68 70 68 71 67 72 71 69 69 68 68 69 70 71 71 69
60 63 61 60 66 66 65 62 60 54 45 42 43 44 48 44 43 43 43 44 43 48 66 68 69 70 70 71 70 70 68 70 72 68 68 69 69 71 68 67 70 68 68
61 54 67 70 72 71 69 67 71 71 68 66 47 49 42 41 42 43 44 50 63 62 70 69 68 69 70 70 71 70 70 71 71 69 71 70 70 68 68 67 67 68 65
65 65 67 70 66 62 74 75 74 72 66 56 54 47 45 41 43 44 45 64 59 59 63 70 69 70 69 68 69 70 70 69 67 69 69 70 66 67 67 69 61 50 54
69 53 59 64 63 66 73 71 67 64 62 60 56 54 54 56 59 62 64 65 63 60 61 64 67 67 67 69 69 69 69 66 67 70 68 66 68 71 64 66 66 66 65
68 62 58 70 71 73 72 72 70 68 65 62 61 56 42 62 59 57 58 61 58 62 62 62 65 67 68 69 69 69 68 68 68 67 67 69 65 61 67 65 70 72 70
70 74 74 75 73 71 68 68 67 64 62 57 54 49 39 59 57 56 56 57 61 64 66 66 67 67 66 69 69 69 68 68 70 69 70 68 68 71 69 66 63 65 67
78 73 73 71 71 60 67 67 65 64 61 60 59 59 61 58 57 58 56 57 61 64 65 66 66 66 65 60 64 70 63 63 65 66 69 71 70 70 70 68 66 65 63
72 72 70 70 69 68 67 66 65 56 59 58 55 52 50 52 55 54 54 55 57 60 60 59 59 58 58 55 59 65 61 66 69 68 70 68 68 66 67 66 64 64 63
73 67 67 65 66 65 65 64 63 60 58 54 51 52 52 52 52 51 52 56 54 57 59 56 54 52 49 48 51 52 39 38 57 49 63 60 60 59 63 61 59 56 53
66 65 65 65 65 65 62 61 62 63 59 56 53 50 53 51 53 53 52 54 53 50 50 50 50 51 51 50 48 38 37 38 50 41 59 57 57 59 61 60 61 61 59

GFSGL_sfc_temp_060.txt.gz
Temp
72 73 72 73 74 74 73 73 73 74 74 76 77 78 80 79 80 79 78 78 77 76 76 75 75 74 75 74 74 73 70 69 65 66 67 68 67 68 68 69 68 68 63
76 74 73 73 73 72 72 73 75 74 76 77 78 79 80 80 79 78 78 80 78 75 76 75 75 77 74 74 72 71 70 70 67 65 66 65 66 67 66 66 68 69 66
77 77 71 71 72 70 71 72 74 75 76 77 79 79 81 81 80 79 79 78 78 77 76 76 75 75 73 72 71 70 70 69 68 66 64 66 64 65 64 65 65 65 64
76 75 73 71 71 72 72 72 73 75 75 77 78 80 81 82 82 80 79 77 77 78 77 77 77 75 73 71 71 70 70 70 69 65 64 64 63 63 63 62 61 64 62
73 73 71 73 73 73 73 73 73 73 76 78 78 80 80 81 84 79 79 78 77 77 77 78 76 74 70 71 70 70 70 69 66 64 63 63 62 60 59 62 61 62 62
68 72 69 73 75 73 72 72 72 73 74 76 78 79 78 83 68 64 74 78 77 76 75 75 71 65 64 61 60 60 68 68 66 64 63 62 62 61 63 61 61 61 57
66 67 70 67 74 73 73 73 72 71 72 73 75 77 77 78 55 58 63 77 76 75 74 73 73 76 68 68 58 59 58 58 63 66 64 64 63 64 64 62 63 61 61
65 66 66 67 72 73 73 71 70 71 71 72 75 76 76 75 53 54 60 76 75 75 74 73 72 71 71 71 68 68 68 67 66 70 67 67 67 66 65 65 64 63 63
65 65 62 63 70 71 71 70 70 71 71 73 75 76 75 66 50 53 68 75 74 73 74 74 72 71 59 55 70 68 67 63 54 53 55 54 55 57 60 64 62 61 60
63 66 68 71 69 69 69 69 70 71 71 74 73 76 65 67 48 53 67 76 71 72 71 66 56 69 48 49 69 67 65 64 66 64 63 57 59 57 54 64 63 60 60
64 66 66 67 68 68 68 67 67 68 69 69 72 73 71 66 57 48 54 74 74 73 73 69 64 46 44 45 51 67 64 64 61 66 65 64 64 65 65 65 65 64 62
63 64 64 66 68 69 67 67 67 68 67 69 70 69 68 66 51 48 54 56 64 71 71 69 54 44 45 48 54 47 49 55 65 64 63 64 64 64 65 66 66 66 66
59 59 62 64 64 66 65 65 65 66 66 67 67 66 64 63 57 46 46 51 55 68 68 53 44 44 45 48 44 46 51 64 62 61 61 62 65 66 66 66 66 66 67
57 59 60 60 62 64 65 64 64 65 66 67 67 64 65 64 64 64 61 58 51 54 52 55 55 53 51 54 56 57 64 62 61 61 60 64 65 65 63 65 64 63 63
56 57 58 59 60 60 62 61 64 67 68 68 68 67 67 68 68 62 66 69 68 61 61 63 64 64 64 64 65 66 65 64 63 62 63 64 65 65 64 65 64 62 61
55 56 57 58 59 60 56 52 46 49 49 51 55 66 60 56 49 47 47 48 49 50 65 65 65 65 65 65 64 64 64 62 64 64 65 64 63 63 64 65 65 63 61
56 56 57 55 59 59 58 57 55 50 44 43 46 49 51 48 43 43 45 46 44 53 65 64 65 63 64 63 64 65 63 66 67 66 65 64 64 64 62 63 63 64 63
62 51 58 61 61 60 61 62 64 63 60 55 43 45 42 42 42 43 44 51 61 60 64 65 64 65 65 66 66 64 65 66 66 64 64 64 64 63 62 62 62 61 61
60 60 63 63 64 66 71 71 66 62 57 54 54 48 44 42 42 44 47 66 64 64 65 66 66 66 66 66 66 67 66 65 65 64 65 65 65 64 62 62 59 48 50
61 51 59 65 66 68 68 65 61 61 60 57 55 54 55 58 61 62 63 63 62 62 64 65 66 67 67 67 66 65 64 63 63 64 64 64 64 64 62 61 63 61 60
66 66 56 68 66 67 65 62 63 61 58 56 56 53 42 61 59 60 61 61 59 58 60 62 66 64 65 64 65 67 64 64 65 64 64 62 63 62 64 64 64 64 62
66 69 69 67 69 68 67 66 63 60 57 55 53 49 43 60 58 57 58 56 59 59 60 64 63 63 63 64 65 63 65 65 65 66 64 64 64 64 63 62 61 60 59
66 69 70 69 67 58 63 62 60 59 57 58 57 56 56 55 54 55 55 56 57 61 61 63 62 59 59 58 63 64 64 64 64 65 64 64 64 64 63 61 60 58 55
71 69 69 67 65 65 63 60 60 53 57 55 55 55 53 53 53 53 54 57 56 56 57 55 55 54 54 56 57 57 57 63 64 63 64 64 63 61 61 60 59 56 55
72 67 65 64 64 62 60 60 59 58 55 53 52 53 53 53 53 52 52 55 54 51 51 51 48 48 49 51 51 50 39 38 54 48 59 58 57 56 57 57 56 54 55
67 65 65 64 63 61 60 59 57 55 52 52 51 52 51 50 51 51 50 49 50 49 49 50 50 49 48 46 45 39 39 40 47 41 58 58 58 57 56 55 55 55 54

GFSGL_sfc_temp_063.txt.gz
Temp
63 63 63 64 65 65 65 65 66 67 67 70 71 71 72 69 69 68 67 69 70 72 74 73 72 70 69 68 66 66 65 64 61 61 63 64 64 64 65 65 65 64 62
63 63 64 66 65 65 64 65 67 67 69 71 71 72 73 74 72 69 70 73 74 74 74 72 73 73 70 68 66 65 64 65 62 60 61 61 62 63 63 63 65 65 62
66 64 63 62 63 64 65 65 66 67 70 69 72 73 74 74 74 76 76 77 76 74 73 71 72 71 70 67 65 65 65 65 64 61 60 61 60 61 60 61 62 60 62
65 63 62 61 62 65 67 66 66 68 69 69 70 72 74 75 76 75 76 75 75 73 73 72 71 71 70 67 67 65 65 64 63 61 59 59 58 59 59 58 58 60 58
62 61 60 62 63 63 64 65 65 66 70 71 71 72 73 75 77 75 74 75 73 70 72 73 71 70 67 68 67 65 64 62 60 59 58 58 57 56 56 57 57 59 59
60 60 61 62 63 62 64 64 65 65 68 70 71 72 72 76 65 60 70 73 69 70 70 70 69 65 63 62 61 63 64 62 60 59 58 57 57 57 58 58 57 56 55
59 61 62 63 63 61 64 65 63 62 64 67 70 71 72 71 59 57 57 72 70 69 69 66 66 66 63 63 58 57 57 59 61 61 59 59 58 59 59 58 60 57 56
57 59 62 63 63 62 64 63 61 63 65 66 68 69 70 72 57 53 55 72 69 68 68 66 65 63 63 63 63 62 62 62 62 66 62 62 62 61 61 61 60 59 59
59 59 60 62 62 62 61 62 61 60 63 65 66 69 67 68 52 50 54 71 67 67 68 67 66 66 55 54 64 62 60 58 52 52 56 54 52 54 58 61 58 59 57
59 60 62 62 60 59 60 62 61 60 64 66 63 65 65 67 53 47 55 69 66 66 64 62 57 65 48 49 63 61 58 58 60 60 59 55 56 55 55 61 60 59 57
60 61 61 61 59 57 60 62 55 57 59 60 62 63 65 66 55 49 52 67 66 65 63 61 59 48 46 46 54 62 60 60 57 61 60 59 59 59 60 60 61 60 58
58 59 59 59 59 63 61 60 56 56 57 58 60 62 63 59 51 48 52 58 59 67 64 60 51 44 44 45 53 48 46 55 61 60 59 60 59 58 60 61 62 62 62
56 55 56 58 59 60 58 55 54 56 57 58 60 61 62 58 55 48 49 51 53 64 64 52 43 43 44 46 44 44 48 61 60 59 58 60 59 60 60 60 61 62 62
54 54 54 55 56 58 59 57 54 56 57 59 60 61 61 57 56 56 55 54 49 51 49 51 51 51 51 50 53 54 60 61 61 60 60 60 61 59 58 59 58 59 58
53 53 53 54 55 55 55 55 56 58 58 59 61 64 60 59 59 56 58 61 60 56 56 58 58 57 56 57 57 59 60 61 60 60 60 60 59 59 59 59 59 58 57
51 51 52 53 53 53 53 53 43 42 43 46 49 60 62 55 49 49 48 48 47 49 59 58 57 57 57 57 57 58 58 58 60 61 60 60 61 62 62 61 58 57 56
50 53 53 51 53 54 55 55 55 47 44 46 48 48 51 50 44 46 47 46 44 52 59 58 58 58 58 59 58 58 57 58 60 61 61 61 61 61 60 61 60 58 58
53 48 53 54 55 55 57 57 56 56 55 52 46 49 44 43 44 44 44 50 58 56 59 59 58 58 59 58 58 59 61 62 62 60 61 62 61 61 58 57 58 59 57
55 54 54 56 57 56 58 58 58 55 53 51 51 47 44 43 43 43 49 60 60 58 58 59 59 58 58 58 59 61 63 61 59 62 62 61 61 58 58 56 56 47 49
57 50 51 58 57 58 59 57 57 57 57 57 55 54 56 58 59 59 58 58 57 58 60 62 59 59 58 60 61 62 61 59 58 61 59 58 58 61 58 58 57 56 55
56 56 49 58 59 59 58 58 57 56 56 56 57 52 43 61 59 58 58 58 57 58 58 59 60 60 61 62 62 61 60 59 59 58 58 60 60 57 58 60 58 57 57
57 61 61 60 60 59 58 58 57 56 55 54 53 49 43 59 58 57 57 57 57 58 59 60 57 57 58 59 58 58 58 58 60 60 58 61 59 59 60 59 56 55 54
64 63 61 59 58 53 57 58 56 56 55 55 55 55 55 55 56 55 55 56 56 56 57 56 55 53 54 56 56 56 57 56 58 59 58 59 59 57 56 55 53 50 48
63 61 60 59 58 58 57 56 55 50 54 54 53 53 53 53 53 52 52 51 51 49 49 49 50 51 52 52 50 50 51 55 57 59 60 58 55 51 52 51 49 49 48
62 60 59 58 56 56 55 54 53 53 53 52 51 51 51 51 51 50 47 48 47 46 46 46 47 47 47 48 48 47 40 41 52 46 55 54 52 51 51 50 49 47 48
61 60 58 56 56 56 53 52 51 51 51 50 50 50 49 48 47 47 46 47 47 45 45 47 47 47 47 46 45 40 39 40 45 41 52 53 53 50 49 50 49 47 47

GFSGL_sfc_temp_069.txt.gz
Temp
58 58 58 58 58 58 57 58 58 58 60 61 62 63 63 64 64 64 63 65 64 65 65 66 65 66 65 65 64 64 65 65 63 61 61 61 61 61 63 63 63 63 61
61 58 57 57 57 57 57 58 58 59 60 62 62 63 64 64 64 64 65 67 65 65 66 67 67 67 64 66 68 67 65 64 61 60 60 60 60 61 61 61 62 63 60
59 57 56 57 57 57 57 57 58 58 59 60 62 62 63 64 64 64 66 68 66 67 67 68 68 67 67 68 67 66 63 63 61 60 59 59 59 59 58 58 59 58 59
58 57 57 57 57 57 57 58 59 59 60 60 60 63 63 64 65 65 65 64 66 68 68 68 69 68 69 68 66 66 63 63 61 60 59 58 58 57 57 56 56 60 56
58 57 56 55 56 56 57 58 59 59 60 60 61 61 62 63 67 63 63 63 63 66 67 69 71 69 64 66 67 64 63 61 60 59 57 56 56 57 56 55 55 57 56
56 56 57 56 56 56 56 56 56 57 58 59 59 60 60 65 59 56 58 61 62 63 65 68 69 65 64 59 59 59 63 62 60 58 56 57 56 56 55 55 55 56 57
56 57 58 57 57 56 57 56 55 54 54 55 56 57 57 58 54 53 54 59 60 61 63 65 67 69 62 66 56 55 56 56 59 61 59 58 57 57 56 55 55 54 55
56 58 58 58 58 57 56 56 55 52 52 52 54 55 56 59 53 51 52 55 58 60 62 64 66 68 65 65 62 62 61 60 59 62 62 61 60 58 59 58 57 56 56
57 59 59 58 58 57 57 58 52 52 52 52 55 54 54 55 51 50 51 57 58 59 63 65 67 67 57 50 64 62 60 58 52 51 52 52 51 51 56 58 56 55 53
57 58 60 58 58 56 57 56 52 52 56 57 58 56 54 57 51 49 50 56 57 59 62 64 54 62 49 48 63 61 59 58 59 58 57 53 52 51 50 60 57 55 53
57 59 58 57 57 56 55 54 53 50 52 51 53 54 54 56 56 47 45 55 58 60 62 63 61 49 46 47 52 62 59 58 55 58 57 57 57 57 57 58 59 58 55
56 56 56 56 56 58 53 53 52 49 49 50 51 52 53 56 49 48 46 45 50 58 62 62 60 45 45 45 51 49 46 52 58 56 56 55 55 56 57 58 59 59 59
53 54 55 57 57 57 54 52 51 48 50 51 51 51 53 56 55 49 47 45 44 49 60 59 50 43 44 47 49 45 48 58 57 56 55 55 56 57 57 57 58 58 59
52 53 51 51 52 54 55 54 51 50 49 50 51 51 53 54 55 55 56 56 48 50 49 51 51 51 49 53 50 50 59 59 58 57 55 56 57 56 56 57 56 56 56
51 52 54 53 52 52 53 52 52 53 52 51 51 53 53 54 55 52 52 57 58 54 53 54 57 57 56 56 57 58 60 59 58 57 58 58 58 56 57 57 56 55 54
50 51 52 53 52 50 49 49 43 44 44 45 45 50 55 48 46 43 43 43 45 45 56 58 58 58 58 58 58 58 60 58 57 59 60 59 57 56 57 55 55 55 54
48 50 52 51 51 50 50 49 48 45 42 41 40 40 41 46 42 42 42 42 42 45 58 58 58 57 57 57 58 59 58 60 60 60 60 58 57 58 56 56 55 54 54
49 47 50 50 51 50 49 49 49 49 49 49 44 42 41 40 40 42 41 44 51 52 59 57 56 56 56 56 56 55 56 57 58 58 57 58 57 59 58 57 57 58 57
49 48 50 51 49 49 49 49 50 51 51 50 49 44 42 40 40 40 42 58 58 57 57 56 57 56 56 56 56 57 57 57 57 57 57 57 58 59 57 56 52 45 50
50 47 47 51 51 50 51 51 52 51 51 50 48 49 47 47 48 49 54 59 58 57 57 57 57 57 57 57 57 57 56 55 56 56 57 58 58 58 56 54 53 52 52
51 50 47 51 51 52 52 51 52 54 51 52 50 48 40 52 53 55 58 58 58 58 57 57 57 57 57 57 57 58 59 58 59 59 58 57 57 54 55 55 54 54 54
50 51 52 51 53 54 54 55 55 54 52 53 52 47 38 59 58 57 56 56 55 56 57 58 56 57 58 58 58 59 59 58 59 59 58 58 56 55 56 56 55 54 53
54 56 57 56 56 51 55 55 55 54 53 54 53 52 55 57 57 56 55 53 52 53 54 56 55 54 55 56 58 61 60 58 59 59 56 56 55 51 51 50 52 52 51
58 57 56 56 55 55 54 54 54 50 56 55 55 54 53 52 51 50 49 48 49 49 50 51 53 53 54 53 54 56 57 58 58 55 55 53 52 49 48 47 46 45 44
56 54 54 54 53 53 52 52 52 53 52 51 50 49 49 50 48 47 47 48 49 48 46 47 50 51 50 51 51 49 41 41 52 45 52 51 49 49 47 45 44 43 42
55 54 53 53 52 52 51 50 50 50 49 49 48 47 47 46 45 45 45 45 44 44 43 45 46 47 47 46 45 39 38 39 44 42 51 50 47 45 44 43 42 42 40

GFSGL_sfc_temp_072.txt.gz
Temp
58 57 58 58 59 58 58 58 59 59 61 62 63 64 65 65 66 65 65 65 65 65 66 66 66 65 64 64 64 64 64 64 62 66 64 65 65 66 67 68 68 68 66
58 57 58 58 57 57 57 58 59 59 60 62 63 65 66 66 65 65 65 67 66 65 67 67 67 67 64 65 64 64 64 65 64 63 64 63 64 65 66 66 66 65 65
59 57 56 56 55 55 56 58 58 59 60 61 63 64 65 66 65 65 66 67 67 67 67 68 68 68 65 64 64 65 67 66 65 64 62 62 62 63 63 64 64 63 62
58 57 56 56 56 56 57 58 59 60 61 61 62 64 64 65 66 66 66 65 65 67 67 68 69 69 68 67 67 67 66 64 63 63 61 61 62 61 63 63 61 63 63
57 57 58 58 56 57 57 58 59 60 61 63 63 64 64 65 67 65 65 65 63 64 65 68 69 69 65 66 69 69 65 65 63 62 60 60 59 59 61 61 61 62 62
56 56 57 56 56 56 57 57 58 59 60 60 61 62 62 65 56 54 58 62 63 63 63 65 66 64 64 58 58 58 64 65 63 62 61 60 60 61 60 60 60 60 61
55 58 58 57 57 56 57 57 56 56 57 57 58 59 59 60 53 51 52 60 60 60 61 63 64 67 63 68 61 55 55 55 59 64 63 63 62 63 61 60 61 62 62
55 55 57 58 57 57 56 55 54 54 54 54 56 57 58 60 51 49 51 58 59 60 62 63 63 64 66 66 68 65 63 63 62 64 66 65 66 64 65 64 63 62 62
55 56 57 58 57 56 56 54 54 53 53 54 56 56 56 56 50 49 51 58 59 60 63 64 64 65 57 50 65 65 63 61 55 52 53 51 51 51 58 63 61 61 60
55 56 58 59 58 57 57 56 53 54 55 57 56 55 54 55 48 48 51 58 58 60 62 63 52 57 50 46 62 65 61 61 60 59 58 54 53 52 50 66 63 61 61
54 55 56 57 57 58 57 57 55 52 54 53 54 54 54 54 55 47 47 55 58 60 61 62 64 50 47 44 49 64 62 60 57 61 62 61 59 58 62 65 65 64 63
53 53 53 54 56 59 56 56 55 52 51 51 51 52 53 54 47 48 45 44 51 58 60 62 63 49 44 43 49 48 46 54 60 59 60 60 60 61 63 64 64 65 65
51 51 51 53 55 56 55 54 52 50 52 51 50 51 52 54 55 45 44 43 44 50 56 55 47 44 42 47 45 45 49 60 59 59 60 60 62 63 63 63 63 64 65
50 51 51 52 52 53 55 53 52 50 49 51 51 51 52 53 54 56 55 52 47 49 51 54 51 49 48 52 51 52 60 60 60 61 60 61 61 62 62 63 63 63 63
47 49 51 52 51 52 54 54 54 53 52 51 51 52 52 52 55 53 54 58 59 55 54 54 55 56 55 56 57 57 59 60 61 61 61 60 61 62 62 63 62 62 63
45 48 50 51 52 52 50 49 43 47 45 45 46 51 54 49 46 43 42 42 42 43 55 56 56 59 58 58 57 58 59 58 61 62 62 62 62 62 62 61 61 63 62
45 48 49 50 51 49 49 49 48 46 41 41 41 41 41 43 41 41 40 40 40 42 57 58 57 59 60 59 59 59 59 61 62 63 63 63 59 62 61 60 63 63 62
46 45 49 49 50 50 50 50 50 50 49 50 43 43 40 40 40 39 40 41 51 46 56 59 58 59 60 59 60 61 61 60 61 62 62 60 61 60 60 61 60 61 60
47 47 49 50 51 50 51 51 51 51 50 50 50 43 42 39 39 39 39 52 55 54 57 58 59 58 59 59 60 60 60 60 60 61 60 60 60 59 57 60 57 49 52
49 45 47 50 49 49 50 50 51 51 51 51 51 51 49 45 47 47 47 52 57 58 58 58 58 59 60 61 62 62 59 60 61 61 61 63 63 62 59 58 59 61 62
49 49 46 51 50 50 51 50 51 51 51 52 52 51 41 51 51 51 51 55 58 58 58 58 59 61 63 63 63 63 63 63 63 62 62 63 61 59 59 61 63 63 61
51 51 50 50 51 52 52 52 52 53 54 54 53 50 36 50 53 53 55 58 59 59 58 59 61 63 63 64 63 63 63 62 61 61 63 61 61 62 62 61 60 59 58
49 50 51 51 51 48 51 53 53 54 54 55 54 52 48 54 57 56 56 56 57 56 59 61 61 62 64 62 63 64 61 60 62 63 60 60 58 59 60 60 56 55 55
50 51 50 50 51 51 52 53 54 49 54 52 53 53 54 54 53 53 52 52 54 56 59 60 62 62 59 59 59 59 60 61 62 61 60 57 54 56 58 56 51 48 47
54 54 53 53 53 53 53 54 53 53 52 53 53 51 51 50 49 49 50 53 53 54 55 56 56 57 56 56 57 55 43 41 55 48 57 55 53 52 54 54 52 51 51
52 52 52 52 51 51 50 50 50 50 49 49 49 48 48 47 47 49 50 50 50 50 50 49 50 51 51 52 52 40 38 40 46 43 56 53 48 48 51 51 51 51 49

GFSGL_sfc_temp_075.txt.gz
Temp
72 73 72 73 73 73 73 73 73 72 73 74 75 75 75 75 75 74 75 75 75 75 75 75 75 75 76 74 69 65 64 64 62 74 76 76 73 74 73 74 75 78 72
70 71 72 72 72 71 72 72 72 73 74 75 75 75 76 76 75 75 76 77 76 75 76 75 75 78 74 74 71 67 64 64 64 66 69 71 69 72 71 72 75 75 77
69 69 68 69 70 71 71 71 72 73 73 74 75 75 76 76 76 75 76 76 76 77 76 75 76 75 74 76 71 70 66 65 65 63 64 67 67 67 69 71 71 72 70
71 72 71 69 69 70 71 71 72 73 73 74 74 77 77 77 77 77 76 75 75 76 75 75 76 76 75 75 74 70 69 65 66 65 65 66 66 66 67 71 68 68 72
69 70 70 71 71 70 70 71 72 72 73 74 74 76 76 76 78 75 75 75 74 74 74 75 76 72 65 67 74 73 71 66 67 66 67 66 63 62 64 72 70 72 71
64 66 67 69 70 69 69 69 70 71 72 73 74 75 73 77 56 57 65 74 73 73 72 74 75 68 68 58 57 56 64 69 69 69 71 66 66 66 68 70 72 69 70
61 62 64 66 67 68 69 69 69 69 69 70 71 72 72 72 54 53 53 72 71 71 71 71 73 78 69 75 66 56 56 53 57 71 70 67 67 69 69 68 70 71 73
63 64 65 66 65 67 67 67 67 68 66 67 68 69 70 71 52 50 51 70 70 70 70 71 71 72 73 71 74 74 75 70 63 63 70 70 69 70 70 72 71 71 71
61 63 64 64 64 65 66 65 66 65 66 66 68 68 67 69 50 48 55 70 69 68 70 71 72 72 61 48 66 70 71 68 56 53 54 52 52 53 61 72 71 72 69
61 62 64 65 64 64 64 64 65 65 66 69 67 67 63 68 50 47 56 71 67 68 69 70 53 62 51 46 62 66 68 68 62 63 64 57 55 56 51 74 74 72 73
60 62 62 62 62 63 63 64 63 63 66 65 66 67 66 65 65 46 46 67 68 68 70 71 74 49 45 44 45 63 66 69 60 69 65 60 63 63 70 73 74 76 74
58 59 60 60 62 63 61 62 63 63 62 63 63 65 68 66 49 47 45 45 55 64 66 71 71 47 45 46 47 48 47 55 67 64 63 61 61 63 72 73 72 75 77
54 56 57 59 60 60 60 60 61 62 62 63 65 64 66 68 66 44 43 42 43 52 65 62 46 46 45 47 42 44 45 65 65 64 62 62 64 72 72 71 72 72 73
49 52 54 54 56 58 60 61 62 63 62 63 64 64 65 65 66 68 66 63 48 49 52 56 54 50 48 54 52 50 65 66 66 66 64 65 69 69 70 72 70 71 70
45 48 52 54 53 54 58 60 61 63 62 63 64 63 63 63 65 58 60 67 68 63 60 60 57 58 58 58 59 59 63 63 65 65 65 66 67 71 68 72 71 69 69
44 46 48 50 52 52 55 58 46 49 47 46 48 58 64 53 48 46 45 42 42 43 56 59 58 61 60 59 59 59 61 60 65 67 70 69 69 71 69 71 69 70 68
43 46 48 48 51 52 54 56 55 49 42 43 43 45 45 51 42 41 41 40 40 42 56 60 59 60 62 61 61 60 60 63 65 68 69 70 71 72 68 66 70 67 71
44 43 46 47 49 50 51 52 53 53 52 56 43 45 40 40 39 40 40 41 54 47 61 59 59 61 61 64 64 64 64 63 64 65 67 70 70 68 65 69 71 70 71
45 46 49 49 51 51 53 52 52 53 55 57 58 43 45 40 40 38 38 51 62 64 60 61 62 62 60 63 66 67 63 63 66 66 66 69 64 61 64 69 68 53 56
47 45 46 50 50 51 51 51 52 54 54 54 55 58 58 46 47 49 48 52 57 63 64 62 61 61 60 63 63 62 62 61 63 64 66 66 62 62 60 60 64 64 66
49 51 47 51 51 52 52 52 53 53 54 54 56 57 44 53 59 60 61 59 61 63 63 61 60 60 62 63 64 65 63 63 63 64 62 64 69 61 66 66 66 71 70
53 54 52 52 52 53 57 58 57 56 54 56 56 53 37 51 56 57 60 61 62 63 64 60 61 62 66 70 72 73 72 70 71 69 70 72 72 67 64 66 70 69 66
52 53 56 56 55 49 54 54 55 53 59 61 60 60 52 52 52 54 55 57 61 61 60 61 61 64 73 74 76 76 74 73 74 73 70 69 66 68 69 67 67 65 67
50 51 52 53 54 57 58 57 55 49 59 62 62 59 59 58 55 56 58 59 58 58 61 61 65 72 72 73 73 76 76 75 74 71 67 70 68 63 70 69 67 61 57
53 51 50 50 50 53 56 56 55 60 60 60 60 57 52 51 51 52 54 55 57 60 63 67 71 70 69 68 71 72 48 43 64 52 64 64 65 68 67 63 57 56 60
50 51 50 51 51 52 52 53 53 55 56 57 56 54 52 50 50 51 53 56 59 62 64 65 65 61 58 56 59 45 39 41 52 46 64 66 66 66 65 64 63 63 62

GFSGL_sfc_temp_078.txt.gz
Temp
80 81 81 80 81 81 81 81 82 81 82 82 82 82 82 81 81 79 79 80 79 78 79 77 76 75 74 80 82 81 80 76 71 68 69 73 74 74 78 80 79 78 75
80 80 80 79 80 79 80 81 81 80 81 82 83 82 82 82 80 79 80 82 80 79 79 80 80 82 78 79 81 77 79 76 73 66 68 68 69 72 74 74 75 79 81
77 79 78 77 77 77 79 79 80 80 80 82 82 82 82 82 81 81 82 82 81 81 81 80 80 80 78 81 80 80 82 79 77 73 72 67 68 68 69 71 72 73 76
73 75 74 74 75 77 79 78 79 81 80 81 81 83 83 83 82 82 82 81 81 81 81 80 81 80 79 79 79 78 78 75 76 72 73 69 69 70 68 66 68 73 74
67 70 75 74 73 75 78 79 80 80 81 82 81 82 82 83 84 82 81 80 79 79 79 81 81 75 65 68 78 78 77 76 75 75 76 75 69 65 63 71 72 73 73
59 66 68 73 77 76 76 77 78 79 80 81 80 81 80 84 57 62 74 80 79 78 77 79 80 72 70 59 58 58 64 73 74 75 78 71 71 69 66 75 72 71 67
65 59 67 68 70 75 77 77 76 75 77 77 79 80 79 80 54 55 57 78 77 77 76 76 78 83 74 81 65 57 56 53 57 73 72 73 69 70 70 70 74 73 70
68 61 55 63 67 70 74 74 74 74 74 75 77 78 78 78 52 50 53 77 76 76 76 76 75 76 76 75 78 78 79 79 74 66 67 73 71 74 73 69 72 73 75
66 66 62 55 59 66 70 71 72 72 73 74 76 76 75 75 50 48 57 75 75 75 76 77 77 76 63 52 74 74 75 77 62 54 53 51 52 52 64 70 72 71 73
65 67 68 68 59 59 64 66 69 71 72 76 75 74 69 74 49 47 57 77 75 76 75 75 58 66 55 50 70 72 72 74 78 71 65 59 58 61 52 71 74 74 73
62 66 68 68 68 69 68 67 67 67 71 69 72 73 74 72 68 47 46 73 76 76 77 77 80 55 44 43 44 68 69 68 65 68 72 72 68 65 74 73 75 79 73
58 59 61 66 68 69 67 67 67 67 66 66 69 71 74 73 56 48 46 48 60 72 72 76 74 46 46 44 50 50 45 49 68 73 71 66 62 65 71 73 70 77 75
51 53 56 61 66 67 66 65 67 66 68 67 69 70 71 75 73 49 46 45 44 63 73 66 52 44 43 52 46 43 43 63 68 72 74 69 70 69 70 68 72 76 75
46 48 52 55 58 63 67 68 67 67 67 69 70 70 71 73 74 74 68 64 47 55 57 65 62 55 44 52 57 62 63 67 68 68 72 70 74 71 68 66 70 70 69
43 46 49 52 55 56 60 65 66 68 68 69 71 72 72 72 74 66 66 74 75 66 67 71 71 70 71 73 71 70 68 67 66 70 71 68 68 70 69 73 71 68 69
42 44 47 50 51 55 57 60 49 47 48 48 48 60 73 55 49 48 50 48 46 40 64 69 70 71 72 74 72 68 66 62 67 69 72 71 72 67 69 72 70 70 69
42 45 46 48 49 52 53 54 55 53 43 44 47 46 48 50 45 45 42 40 39 43 63 67 69 72 73 74 73 67 64 64 68 70 72 73 74 66 71 70 70 73 66
45 43 47 48 48 51 54 55 58 56 57 61 44 49 44 41 40 40 40 42 58 49 65 67 69 72 72 73 74 73 64 63 67 71 71 72 69 71 71 69 73 66 73
45 46 49 50 52 52 54 52 53 56 57 62 63 46 46 39 39 39 39 62 65 67 68 69 73 74 73 71 70 66 63 65 68 71 71 69 68 71 70 73 66 56 60
47 44 48 51 53 49 48 49 52 56 58 59 59 58 63 55 54 55 53 57 63 67 69 67 73 74 73 71 67 63 64 65 69 68 69 69 68 72 71 67 64 72 72
56 52 46 50 50 51 51 52 53 53 53 56 58 61 47 61 62 64 65 63 64 68 70 69 74 74 72 70 63 63 68 68 70 68 71 70 70 64 63 67 65 74 73
57 58 56 55 55 53 53 54 54 56 58 59 60 55 38 63 67 68 69 69 70 71 73 73 73 72 70 63 63 69 64 64 67 68 70 70 66 64 67 66 71 66 69
55 53 54 55 55 50 55 56 57 60 62 62 60 61 61 57 57 60 64 71 72 72 73 72 71 70 63 64 69 71 70 69 68 70 68 63 64 69 70 72 69 67 67
53 57 58 57 56 57 58 60 60 55 63 63 66 62 59 64 62 61 62 64 64 67 69 70 67 63 64 64 69 72 74 75 73 73 70 72 74 69 73 71 68 68 70
50 52 52 55 58 60 58 57 57 58 61 64 64 65 64 62 62 61 60 61 64 65 64 61 62 63 66 69 73 74 53 44 71 62 80 78 76 73 70 71 70 68 66
47 49 49 50 52 58 62 63 61 59 59 62 57 58 59 56 54 54 56 60 59 60 60 63 63 64 71 75 69 47 43 43 61 48 78 76 75 74 74 71 68 67 63

GFSGL_sfc_temp_081.txt.gz
Temp
80 80 80 82 83 81 79 81 83 81 87 82 83 85 84 84 83 79 80 82 80 79 81 80 78 80 80 81 77 74 73 70 69 78 80 78 75 71 72 71 72 78 71
79 80 80 83 82 78 78 77 77 76 77 84 86 86 86 86 83 80 80 83 79 78 79 78 78 80 78 78 81 76 80 80 77 72 76 77 74 73 70 70 72 76 75
76 78 76 76 77 76 76 74 76 80 81 84 85 84 85 84 83 83 83 83 84 81 78 78 78 80 78 80 80 80 82 80 79 75 75 79 77 74 72 70 69 70 71
74 75 71 66 70 72 74 78 80 82 82 83 84 85 85 84 83 82 82 82 82 82 81 81 81 81 79 79 79 78 78 78 78 77 74 77 78 79 75 73 72 70 69
73 72 70 66 74 76 79 80 80 80 80 83 83 84 84 84 85 82 82 81 80 80 80 81 81 76 68 69 78 77 76 77 79 77 76 77 79 76 72 70 66 71 71
72 71 71 65 67 76 77 79 79 80 81 82 82 83 81 85 61 63 75 80 80 79 78 79 80 71 71 63 60 59 66 72 72 74 76 76 74 75 74 63 65 65 65
71 72 70 65 67 68 75 78 78 78 77 78 79 81 79 81 57 58 63 80 79 78 78 78 79 84 75 81 63 57 57 55 57 72 72 73 74 76 74 68 64 64 64
65 71 72 68 63 66 68 71 74 76 76 76 76 78 77 78 52 55 61 79 78 78 78 77 77 77 77 76 77 77 78 78 75 70 70 73 76 77 75 72 66 65 68
62 67 71 72 62 58 65 64 63 72 73 75 78 77 77 71 51 53 64 77 76 76 77 78 78 77 61 52 74 74 75 76 72 54 54 50 50 50 56 68 63 61 64
59 64 68 71 69 59 57 62 65 64 72 77 76 78 72 70 49 51 63 79 75 76 76 76 60 69 58 52 71 72 71 73 76 76 77 66 58 63 53 70 65 64 66
56 63 62 64 67 66 63 57 61 66 66 68 74 76 77 73 60 49 50 77 79 77 77 78 80 52 48 43 44 70 69 65 66 72 75 74 71 74 74 70 69 67 65
53 54 60 59 62 68 64 63 58 59 61 60 65 68 76 75 59 48 49 49 62 76 77 79 77 46 45 43 49 53 46 50 70 71 68 65 72 74 72 74 74 72 70
47 51 52 55 63 62 65 63 61 59 57 60 62 62 70 76 73 50 47 48 48 67 77 63 48 45 43 47 42 41 41 69 72 70 69 69 74 74 76 76 74 68 68
42 44 47 50 56 59 64 67 63 60 60 59 61 66 72 72 75 72 67 62 48 57 60 67 63 57 47 50 57 63 71 74 73 73 70 72 76 78 74 73 68 67 69
42 43 44 48 54 56 58 63 69 69 63 68 68 72 73 73 76 68 67 70 70 66 65 70 71 70 70 71 73 74 76 76 73 72 71 70 74 76 74 72 72 69 68
42 42 44 47 51 55 55 56 49 51 49 47 47 60 72 64 57 52 51 48 43 43 65 71 72 73 73 74 74 75 76 69 74 72 71 71 71 73 71 71 70 69 67
43 43 45 48 51 53 53 54 54 55 47 47 44 48 47 48 45 46 48 43 39 45 67 68 70 72 74 75 75 76 77 76 75 72 72 72 72 72 64 67 67 69 68
44 43 47 49 52 52 54 55 55 56 59 62 45 48 46 45 44 43 41 46 60 56 67 68 69 70 73 75 76 77 77 76 72 70 70 69 69 69 68 68 69 68 68
47 47 48 50 52 54 52 52 54 54 55 61 65 50 45 38 38 38 39 68 67 68 68 67 70 72 74 75 77 77 77 77 70 67 69 69 71 69 68 67 69 56 59
48 44 46 50 51 49 50 50 50 51 51 56 63 67 67 55 58 60 61 65 67 69 70 71 72 73 76 77 78 77 76 71 67 66 68 71 70 67 64 67 68 70 67
53 51 43 50 53 52 50 48 48 49 51 55 62 64 53 64 64 65 65 64 66 68 70 73 75 76 76 77 77 77 73 67 63 67 69 69 68 66 64 66 70 72 65
54 52 50 52 57 55 51 51 50 50 50 53 59 57 40 65 65 66 67 68 68 69 71 72 74 75 74 78 78 74 69 63 66 68 68 68 67 66 68 65 67 65 63
54 55 57 55 54 49 51 52 52 53 54 56 57 58 61 61 62 67 68 70 72 72 72 73 74 76 78 77 75 73 66 65 70 72 69 67 69 66 65 63 67 62 65
51 53 54 56 56 55 54 53 55 51 58 62 61 63 60 65 66 68 68 66 67 67 71 74 74 74 74 74 72 66 66 70 73 72 70 66 62 60 64 62 66 66 64
48 51 53 54 56 56 58 57 61 62 64 61 60 63 66 64 66 67 68 70 70 70 70 72 73 73 73 72 67 68 61 43 66 59 71 67 65 67 65 66 67 66 68
41 42 45 47 49 54 56 58 59 61 59 61 63 65 64 65 63 63 63 63 65 67 68 69 70 70 68 67 67 56 42 40 50 48 65 68 68 71 68 66 68 71 69

GFSGL_sfc_temp_084.txt.gz
Temp
73 74 73 72 75 74 73 76 76 76 79 80 80 79 76 77 76 75 74 75 73 73 74 74 73 74 69 72 72 72 70 69 66 68 70 72 70 69 70 70 69 68 64
74 73 72 71 73 70 71 75 75 76 79 80 67 70 78 73 69 73 73 75 74 74 74 74 74 75 72 72 71 69 70 69 66 65 68 68 69 70 69 67 69 71 68
73 72 70 70 69 67 69 73 75 75 76 68 67 63 61 63 64 65 74 77 76 75 75 74 74 73 71 70 68 68 69 71 69 67 66 68 68 69 68 68 67 68 69
73 70 69 67 68 65 68 72 73 74 69 63 64 65 63 61 61 67 74 75 75 75 74 73 73 72 70 70 71 71 71 68 68 67 66 66 66 68 67 65 65 66 66
62 63 68 68 68 67 67 68 72 66 64 65 62 63 67 63 67 70 71 72 73 73 73 74 73 69 65 67 70 68 67 65 66 65 65 65 66 65 65 65 63 64 65
60 61 64 69 70 66 65 62 58 62 62 66 66 64 63 70 61 60 69 72 72 71 71 72 69 66 66 64 63 61 64 65 63 62 63 62 63 65 66 64 63 62 59
57 61 63 64 67 67 65 61 58 59 64 67 70 70 71 70 58 57 63 72 71 70 70 70 72 77 69 72 60 57 56 54 57 64 63 63 65 66 66 65 64 63 61
53 58 61 64 63 67 63 59 58 57 60 70 70 71 71 70 55 55 60 72 71 71 70 69 69 70 70 71 70 69 68 67 63 63 61 64 66 68 67 65 63 64 63
52 54 57 62 63 63 64 60 60 56 57 69 72 71 70 62 51 55 65 71 70 69 71 71 70 70 54 55 68 66 66 66 67 61 52 50 49 50 54 63 63 60 59
52 53 57 59 60 61 62 58 58 57 56 65 71 71 63 64 48 54 66 74 68 69 69 69 59 66 57 53 64 65 63 64 67 67 65 62 53 59 50 63 65 60 60
49 53 55 56 57 60 57 61 55 56 57 58 65 69 67 62 56 49 56 71 70 69 69 68 70 54 49 49 46 61 61 61 62 64 64 65 68 68 67 63 66 64 62
46 47 50 54 56 60 57 60 59 55 54 54 60 62 64 61 56 48 49 59 59 68 68 70 61 48 47 42 45 52 44 48 62 63 63 63 66 67 68 68 65 67 67
43 43 45 51 53 56 56 57 59 56 53 53 57 60 62 59 56 50 48 48 50 64 67 49 44 41 42 44 43 41 40 56 61 62 63 63 66 67 67 67 67 68 67
42 42 44 46 50 54 55 58 60 58 59 56 58 60 60 59 57 60 59 55 48 56 58 62 58 54 48 53 52 50 58 63 64 63 63 66 67 66 65 66 65 64 63
43 42 42 44 48 50 53 55 59 60 61 61 62 63 62 59 58 55 59 63 63 60 60 63 62 61 61 63 64 65 64 65 65 64 64 64 66 65 65 67 65 63 62
43 42 42 43 44 47 51 54 48 48 47 49 50 59 65 56 50 47 49 53 53 50 60 62 62 64 64 66 66 66 66 64 66 67 66 65 66 65 65 65 66 64 62
43 43 43 43 45 47 51 54 54 49 44 44 46 45 47 55 49 47 48 48 47 47 61 61 64 66 66 66 67 67 67 67 68 68 67 66 67 65 59 64 64 63 62
45 42 45 45 47 50 51 54 55 55 53 57 46 48 45 46 45 45 43 47 52 51 63 64 63 63 64 65 67 68 68 68 67 67 65 65 66 65 63 64 63 63 63
47 46 47 48 50 50 52 54 55 54 55 53 60 47 43 41 40 39 40 63 60 61 64 65 65 64 65 66 67 69 69 68 67 66 65 64 66 64 63 63 62 54 55
51 43 45 49 49 49 48 50 50 50 50 51 52 56 50 51 55 54 56 60 65 65 66 64 64 64 65 67 69 69 69 67 66 65 64 64 64 64 63 62 62 60 59
53 52 45 50 51 51 49 47 48 48 48 48 50 53 37 56 59 60 61 61 62 64 66 66 67 67 69 68 68 70 70 69 67 65 63 63 64 63 63 62 62 62 61
53 53 53 52 50 51 52 50 49 49 50 49 50 52 40 54 61 64 63 63 64 65 67 65 66 68 71 72 71 70 70 67 65 64 63 64 65 64 63 62 61 61 59
50 52 53 52 53 48 49 49 49 49 50 50 52 56 55 52 58 64 64 65 65 65 66 66 66 67 70 70 70 70 71 68 65 65 64 64 64 63 63 61 61 60 60
43 48 51 53 53 50 50 49 50 45 49 50 51 52 53 58 60 61 62 62 65 65 66 67 66 68 69 69 70 70 68 67 66 66 66 64 64 58 62 61 60 60 58
38 40 42 45 47 51 53 52 56 56 53 54 55 56 58 60 60 60 60 62 64 66 66 68 68 68 68 69 70 70 59 43 58 53 66 65 62 61 61 61 61 60 58
35 35 36 38 40 42 45 47 53 58 57 55 55 56 58 60 60 61 62 64 65 66 67 67 67 68 68 67 68 56 43 39 49 41 62 64 61 61 61 61 61 61 61

GFSGL_sfc_temp_087.txt.gz
Temp
62 62 63 66 63 63 62 63 66 68 71 74 74 74 72 74 73 72 71 72 72 72 71 71 70 71 67 67 67 66 66 65 63 63 65 66 66 66 67 67 67 65 65
63 62 62 62 61 61 60 61 63 64 70 74 74 73 72 72 65 66 71 73 66 71 72 71 71 71 67 68 67 66 67 65 64 63 62 63 65 66 66 65 66 68 66
63 62 61 62 60 59 58 58 61 63 67 70 71 66 63 67 62 62 62 62 62 60 66 69 70 70 66 67 67 66 65 64 63 62 61 62 64 64 64 64 65 64 66
58 58 57 57 59 61 59 58 59 60 60 65 61 61 61 62 62 63 61 61 59 59 62 65 67 68 67 66 65 64 64 63 62 61 60 61 61 62 63 62 61 63 62
57 56 55 57 58 58 59 58 58 58 60 63 60 60 60 60 63 61 62 63 61 61 64 70 68 67 65 65 66 62 62 61 59 58 57 58 59 59 60 61 61 63 61
53 54 55 56 57 57 57 58 56 56 58 61 59 61 58 62 54 54 62 64 65 66 67 67 64 63 62 60 61 60 62 60 57 56 54 54 56 59 60 60 59 58 56
50 51 52 53 54 56 58 57 55 54 54 56 57 61 59 61 52 51 55 64 65 67 66 63 69 71 65 66 59 58 57 55 58 58 56 56 58 60 61 60 59 58 58
48 50 51 52 52 54 55 54 55 54 54 55 56 59 59 63 52 55 53 63 66 64 64 63 66 64 65 65 63 62 62 61 59 58 57 59 59 60 61 62 61 60 59
46 48 50 51 51 54 53 54 54 54 55 54 56 58 58 61 52 50 53 65 64 63 66 67 66 64 52 54 63 61 60 59 61 56 53 50 49 51 54 61 59 57 55
43 45 49 50 50 50 53 50 53 54 56 57 57 57 58 61 50 49 57 70 63 62 65 64 58 61 49 53 60 59 57 57 59 60 57 52 50 55 49 59 61 60 56
43 45 46 48 48 50 52 51 49 52 55 55 55 55 57 60 53 52 57 70 65 65 66 62 61 52 47 47 53 58 56 56 56 57 56 56 58 60 62 59 62 63 58
44 44 44 45 48 50 50 50 50 51 50 53 53 53 56 56 53 48 56 59 61 67 65 63 61 51 47 46 45 49 43 46 54 55 54 54 56 59 63 63 62 62 62
44 43 44 45 46 48 49 47 50 50 49 51 52 52 54 57 54 48 51 53 54 61 61 58 44 42 41 41 42 42 43 50 52 52 53 53 57 61 63 63 62 62 63
43 44 43 43 44 46 49 50 51 48 52 50 52 52 53 56 54 53 50 51 51 54 50 49 49 49 48 51 46 43 51 52 52 52 54 55 60 61 61 61 60 60 59
44 44 44 43 44 44 47 49 51 53 50 53 52 53 52 55 56 52 52 55 56 56 54 54 53 52 53 54 54 55 54 54 53 54 56 56 58 60 60 61 60 59 58
43 43 42 43 43 45 46 47 46 45 45 44 45 52 54 51 47 47 48 48 46 47 54 53 52 53 54 54 55 55 56 55 55 56 56 57 59 60 60 60 60 60 58
43 43 43 43 44 44 42 44 47 49 44 43 44 45 49 50 46 47 46 47 44 46 53 52 53 54 55 56 56 55 56 58 58 58 58 58 59 60 57 59 60 59 59
45 43 43 45 44 46 47 46 47 50 47 47 46 44 45 45 45 45 47 45 52 47 52 52 54 55 56 56 56 56 57 57 57 58 58 59 59 59 59 59 60 59 58
46 46 47 47 47 46 48 48 49 50 50 49 50 45 41 42 42 43 42 56 54 56 57 54 55 55 56 56 56 57 57 57 57 58 57 58 58 59 58 59 59 50 53
49 43 45 47 47 47 47 47 47 46 48 49 49 50 49 48 50 47 46 53 56 58 58 58 56 56 56 56 56 56 56 55 56 57 57 58 59 59 58 59 58 58 57
48 49 45 47 48 47 46 47 45 45 45 45 49 49 37 46 50 53 51 54 53 55 58 56 55 55 56 56 56 57 56 56 56 57 58 58 58 58 59 59 59 59 58
45 49 50 50 49 49 49 47 44 47 46 45 45 50 36 50 48 54 55 55 57 56 56 57 56 57 59 59 58 57 57 58 56 58 59 59 58 59 59 59 58 58 57
40 42 44 49 50 46 48 48 47 47 47 48 46 47 51 49 48 49 55 56 56 58 58 56 56 56 57 58 58 57 58 61 60 61 59 58 58 59 59 57 58 58 57
37 37 39 40 42 44 48 48 48 44 47 45 47 49 49 53 51 51 51 52 53 54 56 56 58 59 58 58 60 62 62 59 60 61 60 59 59 55 58 58 59 59 58
34 34 35 35 37 38 40 41 46 50 50 50 49 49 48 48 49 50 51 53 52 53 54 55 58 58 57 58 59 61 54 40 57 51 60 60 59 59 60 59 59 58 56
33 33 32 32 34 34 36 37 38 40 43 49 51 51 51 51 51 52 52 52 54 55 60 57 59 59 58 58 59 52 41 40 47 41 58 59 59 59 60 59 59 58 57

GFSGL_sfc_temp_090.txt.gz
Temp
59 58 57 58 59 60 57 58 59 60 60 61 63 64 66 69 68 64 63 65 66 69 71 71 71 69 68 66 66 65 64 62 61 61 64 64 65 65 66 66 66 64 64
59 56 56 56 56 55 55 58 58 58 59 61 62 63 65 67 69 67 68 69 69 68 59 60 59 62 60 67 66 65 64 64 62 61 62 62 64 64 64 64 64 66 65
56 56 56 55 52 53 52 54 57 58 58 58 59 60 63 66 68 62 64 63 62 61 60 60 60 60 59 60 66 65 64 64 64 62 61 61 62 62 62 62 63 62 64
54 53 54 55 56 57 57 55 55 58 57 58 58 60 63 65 66 64 62 61 61 60 61 60 62 62 60 63 63 65 64 64 62 62 60 60 60 60 61 60 60 61 61
51 51 50 52 55 56 56 55 55 56 58 58 59 61 61 62 63 61 61 61 61 61 61 62 62 61 60 60 64 64 62 60 59 59 57 56 57 57 58 58 59 59 60
48 48 49 50 52 52 53 53 54 54 56 56 57 59 59 60 54 54 59 61 63 62 60 61 63 60 60 58 59 58 60 58 56 57 54 54 54 55 57 58 58 56 55
46 47 49 49 49 50 51 51 51 52 52 53 55 55 59 58 50 50 53 60 59 60 60 60 62 66 63 65 55 55 55 55 58 58 55 54 54 56 58 57 57 57 56
44 45 46 47 48 51 50 48 49 51 53 52 52 55 58 58 51 49 50 62 62 63 62 64 63 61 62 62 59 59 59 59 58 59 58 58 59 58 59 59 59 58 58
44 44 45 45 45 48 49 48 46 48 52 52 54 54 56 56 50 48 50 58 62 62 63 63 62 64 52 52 62 59 59 58 57 54 52 49 47 49 55 59 58 57 54
44 45 45 45 45 45 47 48 45 48 53 54 54 55 55 55 49 49 50 59 61 62 61 61 54 62 48 51 62 60 57 58 59 58 56 53 51 53 49 59 58 59 59
46 46 46 45 44 45 45 48 46 48 51 51 52 53 55 56 55 46 48 59 61 59 59 59 59 48 48 49 52 59 57 56 55 56 55 53 54 55 56 56 60 63 60
45 46 46 45 45 46 45 47 47 46 49 49 51 52 54 54 50 48 46 52 54 59 59 60 57 47 46 46 51 44 43 51 54 53 52 51 52 54 56 61 62 63 62
44 45 46 46 45 45 44 44 46 47 47 49 51 51 53 53 53 46 45 47 49 58 62 59 48 45 43 44 42 40 44 52 52 51 50 49 52 55 59 60 60 60 60
43 44 45 44 44 45 46 46 46 46 46 49 51 51 52 53 54 52 53 53 49 53 51 50 49 48 47 45 45 45 51 51 51 51 50 51 54 58 59 60 59 58 58
43 44 43 44 43 44 45 45 48 49 46 49 51 53 51 51 55 50 52 57 55 51 52 52 53 51 51 51 52 51 50 50 50 51 53 53 55 56 57 59 58 57 56
43 43 42 42 43 44 45 44 46 43 45 44 44 50 53 49 45 45 45 45 44 47 52 54 50 50 52 52 53 53 53 52 52 52 53 53 54 56 57 58 60 58 55
43 43 43 43 43 43 44 44 44 47 43 41 40 43 46 46 43 42 42 41 42 48 53 51 51 52 53 53 53 53 53 54 55 54 54 54 56 57 55 57 57 57 56
43 44 45 45 44 44 45 46 42 43 48 47 43 40 42 42 43 42 42 46 51 48 50 53 53 53 52 53 53 53 54 54 54 54 54 55 56 56 56 57 57 57 56
42 46 46 46 47 45 46 47 45 46 45 46 45 45 42 40 40 41 42 55 54 54 51 53 53 53 53 53 53 54 55 55 54 54 54 55 56 56 56 56 55 48 51
43 42 43 47 46 47 46 46 47 46 45 48 45 45 48 48 48 45 48 54 55 55 56 52 53 53 53 53 53 54 54 53 53 52 53 54 55 56 56 56 56 56 56
41 42 41 47 47 47 46 46 46 46 44 46 45 46 37 46 49 50 48 48 49 54 52 54 53 53 53 54 53 53 53 54 52 52 53 55 56 55 56 57 57 57 57
38 39 41 42 43 47 46 47 43 42 42 44 47 47 37 49 48 49 52 52 55 53 53 55 56 57 56 55 54 53 54 53 53 52 53 55 56 56 56 57 56 56 56
36 36 37 39 39 40 41 45 46 46 45 43 43 44 46 45 46 46 50 53 55 53 53 53 53 53 53 54 54 54 54 54 54 54 54 55 55 56 57 56 56 55 56
34 34 34 35 35 36 37 38 40 40 45 45 44 44 44 45 46 46 47 49 50 53 52 53 53 55 54 53 54 54 54 54 55 56 58 56 56 53 56 55 56 56 56
32 32 32 31 32 32 33 35 36 38 39 42 47 48 48 49 48 49 50 48 49 49 51 51 54 56 55 55 56 56 50 41 51 47 56 57 57 57 56 56 56 57 57
32 31 30 30 30 31 31 31 32 34 35 37 39 41 45 49 49 48 48 49 49 49 51 51 51 53 54 54 54 48 41 41 43 37 55 58 57 56 57 57 57 58 58

GFSGL_sfc_temp_093.txt.gz
Temp
53 54 53 52 53 54 52 53 54 55 58 60 59 59 60 60 61 62 64 66 66 65 64 63 63 64 64 66 67 65 64 63 62 65 62 63 64 64 65 66 66 65 63
53 53 53 54 55 54 52 52 53 53 56 58 59 60 61 61 61 62 63 64 64 63 63 62 65 63 60 61 63 64 63 63 62 62 61 62 62 63 64 63 64 65 64
52 52 52 52 52 52 52 50 52 53 55 56 58 57 59 59 59 60 63 64 64 63 64 64 65 61 59 60 60 59 61 64 63 62 61 61 61 61 61 62 62 62 63
50 48 47 48 50 51 51 51 52 54 53 56 57 58 59 59 60 61 62 63 64 66 66 64 62 61 62 61 61 61 61 62 63 62 61 59 60 60 60 59 59 60 61
47 47 47 47 48 49 50 50 51 52 53 55 56 58 58 58 61 60 60 62 62 62 62 63 64 64 64 63 62 62 62 60 60 61 60 58 57 57 58 58 58 58 58
45 46 47 47 47 48 49 49 50 49 50 52 54 56 56 57 55 53 56 60 62 62 60 61 63 61 59 57 57 60 62 62 62 61 59 57 56 56 57 57 56 56 55
45 46 46 47 47 47 48 48 48 48 48 48 51 55 55 55 52 49 50 56 60 60 60 61 61 63 59 60 54 54 55 56 59 61 58 55 55 56 57 55 55 55 55
45 45 46 47 46 46 46 45 46 47 45 46 48 53 54 55 49 47 48 54 58 58 59 60 59 60 60 61 59 59 59 58 58 58 60 58 59 57 58 58 57 56 56
44 45 46 47 46 46 44 44 45 45 46 48 49 52 52 53 49 46 48 55 57 57 58 59 60 61 53 50 59 57 57 58 55 53 53 51 48 49 54 60 58 58 58
44 45 46 47 46 45 44 44 44 45 46 47 49 53 53 53 49 45 50 55 56 56 59 59 54 58 47 49 58 59 59 57 58 55 53 50 49 50 54 58 56 55 55
44 45 46 47 46 46 45 44 43 43 45 46 48 51 53 53 53 46 48 53 55 56 59 57 56 47 47 48 52 61 60 56 53 57 56 55 55 54 52 54 60 58 57
44 44 45 46 47 47 45 44 44 43 44 45 45 49 51 52 49 48 45 45 52 56 57 57 51 46 46 47 52 45 47 52 54 52 52 51 51 53 54 55 57 61 64
42 42 44 45 46 46 44 43 43 44 44 44 46 49 48 51 53 46 44 42 46 56 57 52 46 44 44 44 42 43 48 53 51 50 50 50 51 53 56 60 62 62 61
40 41 44 44 44 45 45 45 44 43 44 46 50 48 48 51 53 52 50 48 48 53 50 48 48 49 50 44 46 49 52 52 51 50 49 49 53 57 58 62 60 60 58
40 42 44 44 43 43 44 45 44 46 45 46 48 50 51 50 53 48 50 53 56 51 50 52 53 54 52 51 49 49 49 50 51 50 51 52 54 55 55 57 59 59 56
39 41 44 44 44 44 44 44 44 42 41 40 40 43 52 46 41 42 43 44 43 45 53 55 53 55 53 52 52 49 50 50 51 52 52 52 53 54 55 56 59 56 55
38 40 44 44 45 44 44 43 43 46 44 41 39 42 46 44 41 42 43 42 42 46 52 52 53 53 51 51 51 51 51 52 52 53 53 52 53 53 54 55 56 56 54
39 42 44 45 46 45 45 45 44 44 44 48 43 41 41 41 40 43 44 47 51 48 52 53 52 52 51 51 51 51 51 51 52 52 52 52 53 54 54 55 55 55 56
39 41 42 46 47 45 46 47 47 46 46 47 47 45 42 40 40 41 43 54 52 50 49 52 53 51 51 51 51 52 52 52 52 52 52 52 53 53 54 54 53 47 49
38 39 39 43 46 47 46 46 46 46 46 48 46 46 46 49 50 49 49 51 52 51 51 51 51 52 52 52 51 51 51 51 51 51 51 51 52 53 53 54 53 55 56
37 37 38 39 39 41 45 44 44 44 44 46 46 43 35 49 50 50 49 50 51 52 51 53 52 52 52 51 51 51 51 51 51 50 51 52 53 53 54 54 54 55 54
36 36 36 37 37 38 38 41 43 43 42 41 44 44 35 46 49 50 50 50 52 52 53 54 53 52 52 53 52 51 51 52 51 50 51 51 53 53 53 54 54 54 55
34 34 34 35 35 35 35 36 37 39 40 44 42 43 43 43 44 47 50 51 50 51 52 53 52 52 53 53 52 53 53 52 53 52 52 51 52 53 53 54 54 53 56
32 32 31 32 32 32 32 32 34 34 36 39 41 44 42 43 44 44 45 47 51 51 52 52 52 53 52 52 52 52 52 52 53 53 53 52 52 50 52 53 54 54 55
30 29 29 29 29 30 30 31 31 32 33 35 36 38 40 42 44 44 45 45 46 48 50 53 53 55 55 53 52 53 48 39 50 47 52 52 52 53 53 54 54 54 55
29 28 28 27 28 28 28 29 29 30 30 32 33 34 36 38 39 41 45 45 46 47 49 51 52 53 53 52 53 46 40 39 44 38 49 52 52 53 54 55 55 55 57

GFSGL_sfc_temp_096.txt.gz
Temp
50 50 49 51 52 52 52 52 53 54 55 57 59 60 61 61 61 60 61 64 65 65 66 66 66 66 66 65 64 63 62 63 60 66 67 66 67 68 68 70 70 70 69
50 50 50 51 50 50 50 51 52 52 54 56 57 58 60 60 61 61 61 63 63 64 65 65 65 66 65 64 63 63 63 64 63 63 65 64 65 66 67 68 68 69 70
50 49 49 48 48 47 48 49 50 50 52 53 54 56 58 59 60 60 60 62 62 64 64 65 65 65 63 63 64 64 64 64 63 63 62 63 63 63 65 66 67 68 69
48 47 46 47 47 47 47 48 48 49 49 50 52 55 56 58 59 60 60 60 61 62 64 64 65 65 64 63 63 62 62 62 62 62 62 61 62 64 63 65 65 65 67
47 46 46 46 47 49 48 48 48 49 50 51 52 53 53 55 58 58 59 59 60 60 62 64 65 65 64 64 64 63 63 62 61 59 60 60 61 60 62 63 64 65 65
45 45 46 47 49 48 48 48 48 48 48 49 49 50 50 54 53 53 55 58 60 60 60 62 64 64 63 59 60 61 63 62 61 60 60 60 62 62 62 62 62 62 62
44 45 48 48 47 48 49 48 47 46 46 46 48 48 49 51 50 49 53 56 57 58 59 60 62 65 61 63 57 55 56 56 61 63 61 62 62 61 60 61 62 62 62
44 46 47 47 47 48 48 47 47 46 45 44 45 47 47 50 49 48 51 55 55 56 58 60 61 61 61 62 62 61 61 61 60 62 64 64 65 62 64 64 63 62 62
44 45 46 47 46 46 46 46 46 44 44 44 46 47 47 49 48 47 47 53 55 56 59 60 61 61 53 50 62 59 60 60 54 53 54 51 49 51 57 61 60 61 60
44 44 45 46 45 45 45 46 46 45 44 45 45 46 48 49 49 45 46 52 55 55 58 59 52 59 48 47 60 59 58 57 56 54 52 49 51 53 52 64 63 62 61
44 44 44 45 44 46 46 46 45 44 44 44 45 47 48 49 50 46 45 54 54 55 56 57 59 48 45 46 53 58 58 57 54 57 56 55 56 57 59 62 64 63 62
42 43 43 44 45 46 45 45 45 44 43 43 44 46 48 49 48 46 43 44 49 55 55 57 55 44 44 46 52 47 47 54 60 59 57 57 57 57 58 58 60 63 66
41 40 42 44 46 46 44 44 44 44 43 43 44 46 47 52 53 45 44 43 43 51 56 52 45 44 44 46 44 45 49 60 58 57 56 56 58 59 59 59 60 62 63
38 40 42 43 45 46 46 45 44 43 44 44 45 46 49 51 54 54 53 49 44 50 48 47 47 46 48 48 53 55 59 60 58 57 56 55 57 58 60 62 60 61 59
38 39 41 42 45 45 46 45 45 45 44 43 45 46 46 49 53 47 47 52 55 50 49 51 51 54 55 54 55 55 56 58 56 55 57 58 59 60 60 62 61 61 59
37 38 40 41 45 46 46 46 44 42 42 42 40 40 45 44 41 40 40 43 42 45 52 52 53 55 56 56 56 54 56 55 58 59 60 59 59 59 60 61 61 60 59
37 39 41 41 44 45 45 46 44 46 45 44 40 40 39 43 40 40 40 42 42 47 53 54 56 56 56 57 57 58 57 58 58 60 60 60 60 58 60 60 60 59 60
38 39 38 40 45 46 46 47 47 45 45 49 46 40 39 40 40 40 41 46 52 50 53 54 54 54 56 56 56 58 57 58 59 59 59 59 59 60 60 61 61 60 59
37 37 37 40 41 42 45 46 47 47 48 48 50 47 45 42 42 43 45 53 53 51 55 56 57 58 58 58 58 59 58 59 59 60 59 59 59 61 60 61 60 51 53
36 36 36 38 38 39 40 42 44 45 46 47 49 47 47 49 51 50 51 53 53 52 54 56 57 59 58 59 59 59 58 57 58 58 58 59 59 60 60 60 59 57 58
35 34 34 35 35 36 36 37 39 41 42 44 46 47 35 47 47 49 51 51 53 56 56 58 58 59 59 59 59 59 59 58 59 58 60 60 60 61 61 61 61 61 58
33 33 33 33 34 33 33 35 35 36 38 40 42 45 37 48 47 47 48 50 51 53 54 56 59 60 60 60 60 59 59 59 59 59 60 60 61 62 62 62 62 61 59
31 31 31 31 31 32 32 32 32 33 34 36 38 40 42 44 46 47 47 48 49 52 54 57 58 60 60 60 61 62 62 61 62 60 60 60 60 61 62 62 61 61 59
30 29 29 30 29 29 29 30 31 31 32 33 34 36 37 39 41 43 46 47 48 50 52 56 58 59 59 59 59 60 61 61 60 61 61 60 60 54 60 61 62 61 61
29 28 28 27 27 28 28 28 29 30 30 31 32 33 35 36 37 38 40 42 46 48 51 52 54 56 58 58 58 59 51 39 56 49 60 60 61 61 61 60 61 61 61
29 28 27 27 27 27 27 28 28 28 28 29 30 31 32 33 34 35 36 37 39 43 48 51 51 54 56 56 58 48 39 38 47 39 59 60 59 60 60 60 61 61 62

GFSGL_sfc_temp_099.txt.gz
Temp
60 59 59 58 58 58 58 58 58 58 59 59 60 61 63 64 66 66 67 70 70 71 73 73 73 74 75 75 70 66 65 68 67 70 73 72 72 73 75 76 76 75 75
58 58 57 57 57 57 56 57 57 56 58 58 59 59 60 61 62 64 65 68 68 69 70 72 73 75 72 73 72 65 64 65 65 64 72 69 69 72 75 75 74 75 79
57 57 56 56 55 55 55 55 56 56 56 57 57 56 57 58 59 62 64 65 66 67 69 70 71 72 71 73 71 69 64 65 67 66 69 72 69 70 69 71 72 73 78
56 55 54 54 54 54 54 54 53 53 52 53 54 55 55 56 58 60 62 63 64 66 67 68 71 71 71 71 71 69 66 63 65 63 69 69 67 68 70 68 66 72 74
54 54 54 55 55 53 52 53 53 55 53 53 52 53 54 56 56 55 57 59 61 62 65 67 69 69 66 67 72 71 68 63 62 64 68 69 64 66 67 67 69 69 72
52 52 52 51 52 53 54 54 54 53 53 52 50 50 50 54 51 50 53 57 58 57 58 66 68 64 64 57 57 60 66 63 62 62 71 69 67 67 66 68 69 70 67
51 50 52 54 52 54 53 52 51 50 49 48 47 48 47 48 48 47 48 54 55 55 54 58 65 68 65 69 61 56 58 57 62 69 65 70 68 68 66 68 67 68 73
49 52 54 53 53 51 49 49 49 48 47 46 47 47 46 48 47 45 47 51 54 55 54 56 62 64 66 66 68 64 62 63 65 63 66 67 71 70 70 69 67 68 68
49 51 52 51 47 47 46 47 49 46 49 46 47 46 46 46 46 45 46 51 51 56 57 61 63 64 58 50 62 61 60 61 60 56 56 54 52 52 63 67 61 61 61
49 49 49 49 47 45 46 45 49 49 47 47 47 47 47 48 46 44 45 48 50 53 57 61 55 58 52 48 59 60 59 61 62 58 57 55 56 57 54 67 62 61 66
47 46 47 49 47 46 46 47 47 48 47 48 46 48 48 50 53 45 44 48 50 54 56 61 63 49 46 45 49 62 62 64 58 62 62 58 58 62 66 64 66 68 68
45 43 44 45 46 47 46 47 46 46 45 45 45 46 51 53 47 46 44 43 48 53 57 60 60 47 45 44 48 51 46 54 63 64 62 58 56 59 60 65 68 71 74
41 41 42 45 45 48 46 46 45 46 44 44 45 46 50 53 55 48 44 42 42 46 51 52 44 46 43 44 46 46 48 61 58 56 56 58 59 59 62 65 67 67 69
39 40 42 43 43 48 48 49 48 48 45 45 46 49 51 55 58 59 60 56 49 48 48 49 46 46 46 51 49 52 58 58 57 58 59 60 63 62 64 66 63 61 61
39 40 41 42 43 46 48 48 51 50 47 46 49 52 50 51 56 46 46 50 52 51 49 51 53 54 53 55 56 55 56 57 60 62 61 62 64 64 64 65 62 61 59
37 39 40 40 42 45 47 49 47 43 42 41 40 42 46 43 42 41 40 39 40 42 51 54 55 57 55 56 57 59 63 62 65 65 66 67 66 63 62 62 63 64 61
36 38 38 39 42 43 44 46 46 53 47 45 43 42 41 39 40 39 38 39 40 48 54 59 61 63 61 59 62 65 64 66 67 69 69 68 68 66 62 61 63 65 63
37 37 37 39 40 41 42 43 48 53 52 55 49 43 43 42 41 40 41 44 53 53 62 64 63 62 65 65 63 64 64 66 67 67 67 67 66 66 65 63 64 63 62
35 36 37 38 38 39 39 41 43 45 48 53 56 46 46 44 43 44 46 55 53 60 66 66 67 66 66 68 68 69 67 67 67 69 69 69 70 71 70 70 67 53 56
36 34 34 36 36 37 37 36 38 40 41 44 48 44 44 47 48 49 53 55 59 61 64 63 65 64 69 70 70 70 68 67 69 70 69 70 70 71 70 69 67 62 63
38 38 33 34 33 34 34 34 34 36 37 39 42 43 36 45 46 47 49 53 58 63 66 68 70 70 72 73 72 72 71 71 71 71 72 71 70 70 71 71 71 70 63
36 37 39 35 32 32 32 33 33 33 34 36 38 42 37 43 42 44 47 48 55 57 64 65 69 70 72 74 73 72 71 71 71 71 70 71 71 71 71 71 71 70 64
36 35 37 37 36 33 31 32 31 32 32 33 35 36 39 40 41 42 41 43 48 50 55 60 63 67 71 70 73 73 72 72 72 72 70 70 71 71 72 71 71 70 69
35 35 34 34 34 36 35 34 32 31 31 31 32 33 35 36 38 40 39 39 40 43 50 59 57 60 63 68 71 74 74 73 72 73 72 71 70 66 71 71 72 71 70
33 32 33 32 33 33 34 35 35 34 33 32 31 31 33 34 36 37 38 38 37 39 45 49 51 58 62 62 67 68 56 41 65 55 73 72 71 70 72 73 72 72 71
32 31 31 31 31 31 31 32 32 33 33 34 33 31 31 31 32 33 35 37 38 38 40 43 44 47 57 61 64 49 39 37 51 40 69 71 70 71 72 70 69 72 71

GFSGL_sfc_temp_102.txt.gz
Temp
69 67 66 66 66 66 65 65 65 64 64 64 65 65 65 66 67 66 67 69 70 73 74 75 75 76 80 82 83 82 80 78 73 77 82 83 80 78 80 80 82 83 81
67 66 65 65 65 64 64 64 64 63 64 63 63 63 63 64 64 63 62 65 67 69 72 72 73 77 73 75 80 76 79 78 75 66 75 79 78 78 75 74 79 84 82
66 66 65 64 63 62 62 63 63 62 62 62 61 60 59 60 59 59 60 62 63 65 68 70 70 71 71 75 75 77 79 77 76 70 71 77 79 75 75 75 75 78 79
65 64 63 63 62 62 62 62 61 59 57 57 57 57 57 56 55 57 57 56 59 60 63 68 70 69 70 71 72 73 75 76 76 74 68 72 74 73 76 75 70 76 71
62 63 62 62 62 62 59 57 58 58 58 57 55 56 55 55 55 54 55 54 55 55 57 60 66 67 64 66 70 71 72 71 74 73 67 68 65 70 70 73 73 72 70
61 62 62 62 61 59 58 57 57 58 57 56 58 58 54 53 51 50 51 52 52 53 54 57 61 61 63 59 58 58 66 69 68 71 73 69 69 72 72 68 72 66 64
61 62 61 61 61 59 57 57 56 56 56 54 57 53 56 52 48 47 48 50 48 50 52 53 57 64 59 66 60 56 57 55 57 71 68 70 70 73 74 71 67 66 66
60 61 61 62 59 59 59 59 55 53 50 51 53 55 54 54 48 46 46 50 48 50 51 53 54 58 59 58 64 67 69 71 69 69 70 72 73 72 70 66 67 67 69
57 59 60 58 56 58 56 53 54 50 47 50 53 56 54 53 47 45 46 50 48 49 53 56 56 60 53 49 59 60 66 68 66 57 57 58 53 51 61 65 65 67 64
52 55 55 55 55 52 51 49 50 47 48 49 52 54 53 50 48 44 46 48 48 50 50 52 50 55 50 48 54 62 64 66 70 69 68 60 54 58 52 68 65 66 66
50 50 53 55 54 52 52 52 48 47 49 52 53 51 53 52 53 46 45 50 48 49 51 53 59 48 47 47 46 64 63 66 63 66 66 64 64 64 62 64 68 68 67
46 47 52 53 53 50 52 49 49 49 53 51 49 54 57 57 53 51 45 43 51 57 57 55 57 48 45 45 47 48 46 49 62 63 61 61 61 61 64 69 70 71 67
44 44 49 50 50 50 52 48 48 54 51 55 53 54 55 62 64 51 47 45 45 46 50 50 47 44 43 45 43 44 44 55 58 59 59 59 61 67 69 69 69 68 64
41 43 47 45 44 51 49 50 54 55 52 51 51 52 54 58 57 58 60 59 50 51 50 50 49 48 48 53 51 48 54 58 59 59 59 61 60 60 62 64 63 62 61
40 42 44 43 42 48 47 48 50 54 50 50 50 49 46 46 49 47 44 47 47 46 44 52 50 50 51 53 54 55 57 57 57 57 59 59 58 59 59 61 61 62 62
37 39 40 40 42 48 47 48 47 46 43 42 40 42 46 43 42 40 39 39 38 40 53 52 52 54 54 54 55 55 57 55 57 57 58 59 59 58 58 61 62 66 61
36 36 39 40 41 43 43 45 47 55 49 47 42 43 42 40 41 39 39 41 41 47 57 56 55 55 56 56 57 57 57 59 61 59 62 64 63 63 61 63 63 64 61
38 37 37 40 39 39 41 42 48 49 48 53 52 42 42 41 41 42 43 47 63 59 64 67 63 61 62 63 64 61 62 64 65 66 68 69 68 66 64 64 64 63 60
44 39 37 38 37 39 39 38 41 44 44 46 54 44 44 41 43 45 46 60 62 66 68 68 67 68 64 66 70 68 67 67 67 68 70 70 70 69 66 62 64 54 56
45 39 39 38 35 36 37 36 35 38 40 42 45 45 43 43 43 44 49 53 59 70 73 72 70 71 71 71 70 71 72 69 70 69 71 72 72 70 67 66 65 64 65
48 48 40 45 43 35 36 35 34 34 36 38 41 43 35 40 40 41 42 44 53 61 66 72 71 74 74 73 73 72 72 72 73 73 72 71 73 75 73 70 67 67 64
48 48 48 47 46 44 39 36 36 36 34 34 36 40 36 43 38 38 39 40 45 53 65 68 71 75 76 76 77 76 75 75 74 76 75 76 76 76 76 76 75 69 63
46 46 47 47 45 43 46 45 41 40 38 35 34 35 39 40 39 37 37 38 40 46 56 61 65 67 74 76 77 80 78 76 78 77 76 77 77 77 77 76 75 74 73
45 44 44 44 44 45 44 45 46 41 40 41 37 34 35 36 39 37 36 38 38 39 48 52 56 59 65 71 76 80 78 77 79 78 78 77 76 73 77 77 77 76 73
42 41 41 39 41 41 42 43 43 43 43 43 39 37 36 36 36 36 36 35 37 37 39 46 52 53 52 62 59 60 45 37 57 44 79 77 76 75 77 77 76 77 76
41 39 37 35 34 35 36 38 39 40 40 41 39 38 37 37 35 35 36 38 39 40 38 38 40 48 50 48 49 38 35 35 48 35 61 77 76 76 77 76 74 79 76

GFSGL_sfc_temp_105.txt.gz
Temp
73 72 71 70 70 69 68 68 68 67 67 67 67 67 66 66 66 65 64 65 65 66 69 69 69 72 75 77 82 83 81 81 76 80 84 82 78 80 83 83 82 80 82
73 71 70 69 69 68 67 67 67 66 67 66 65 64 64 63 61 61 61 62 61 62 64 65 66 73 70 70 71 73 79 77 74 70 77 79 77 78 80 78 79 82 82
71 71 69 68 67 66 66 66 66 65 64 63 61 59 58 59 58 59 58 57 58 58 59 59 63 65 66 69 70 70 72 78 78 75 71 79 79 79 77 76 76 76 81
69 69 67 66 66 66 66 65 64 62 60 61 60 60 60 60 59 59 58 57 58 58 58 61 61 60 62 65 67 66 69 69 73 75 74 75 76 77 78 73 71 73 73
67 67 66 67 66 66 65 63 62 62 62 62 61 60 60 57 60 57 58 57 55 54 57 59 59 60 59 58 57 60 64 65 66 66 67 69 73 74 73 75 70 71 73
65 66 67 66 66 64 63 61 60 59 59 59 59 59 55 57 54 51 54 56 54 53 52 56 58 58 58 56 56 57 56 59 62 63 70 69 68 73 75 71 69 68 66
64 66 67 65 64 63 64 61 59 58 60 58 57 58 55 57 52 48 49 54 52 51 52 54 55 59 58 58 57 55 56 54 56 63 62 65 64 71 71 70 68 69 69
62 63 65 65 64 63 61 60 59 59 57 56 54 52 53 57 51 47 47 53 52 51 51 53 52 54 57 58 58 58 60 60 65 66 66 70 72 73 73 72 70 70 71
59 59 62 62 60 59 56 56 57 56 53 51 51 52 55 56 50 46 47 52 51 51 54 56 55 54 51 48 57 57 57 56 59 57 57 55 55 55 57 70 64 66 63
52 54 57 58 57 55 54 56 55 56 52 53 53 56 56 57 52 47 48 56 51 53 54 53 50 51 48 46 51 54 52 54 56 65 61 61 54 62 51 66 66 62 62
49 51 53 54 54 55 55 56 56 52 55 54 54 57 57 56 59 49 46 57 56 52 52 53 55 48 44 44 44 52 53 59 57 61 65 68 69 71 72 69 64 63 64
47 47 49 52 55 55 55 54 54 54 54 52 53 54 57 58 55 53 46 46 54 54 52 53 54 47 44 45 44 47 46 48 58 62 63 63 65 67 71 70 69 66 69
43 44 47 51 55 55 54 53 50 52 51 52 54 53 52 54 56 50 47 46 45 46 50 49 46 44 43 43 42 45 44 57 60 62 60 62 65 70 71 69 69 70 68
40 42 46 49 50 54 54 53 51 50 50 51 52 50 48 47 50 50 50 51 51 50 50 50 49 48 46 50 50 46 57 61 61 60 57 64 67 66 65 67 66 64 61
40 40 42 46 47 50 55 53 54 55 50 49 50 47 42 41 43 41 40 43 49 47 43 45 48 51 51 54 57 59 60 60 57 57 58 59 59 61 62 65 63 61 59
39 38 38 42 45 47 47 51 49 46 43 42 41 41 42 41 40 41 42 40 38 39 48 52 52 51 52 55 58 58 56 55 58 59 59 58 58 58 59 61 61 61 59
43 39 38 42 42 43 41 42 43 52 48 46 41 41 40 39 40 41 42 43 44 45 53 54 55 52 53 55 55 55 55 57 57 58 57 57 57 55 57 57 59 60 60
46 41 41 40 39 38 40 40 38 43 46 51 50 43 41 39 40 41 41 48 55 60 58 55 55 57 55 55 57 57 56 58 57 58 56 57 57 56 55 58 59 60 61
52 50 48 44 39 38 39 41 39 39 41 43 51 48 42 40 40 41 43 45 49 55 66 60 56 60 65 62 59 61 62 59 61 66 64 63 62 62 62 61 62 52 56
52 40 47 52 50 46 41 39 39 38 37 38 40 42 41 39 38 39 43 46 52 54 58 58 61 69 66 65 64 65 64 64 63 62 63 64 66 65 64 64 63 62 62
52 53 44 53 53 53 48 45 41 41 38 37 37 39 35 38 36 37 38 41 45 51 54 53 60 60 69 74 71 72 68 66 67 67 67 64 65 64 65 64 62 63 62
51 52 52 52 51 52 50 53 51 47 44 41 37 39 36 43 37 36 36 37 42 48 51 56 52 55 56 58 64 66 71 71 66 68 70 70 69 66 66 65 64 62 60
50 49 49 49 48 46 49 51 50 50 50 47 42 37 39 39 39 35 35 35 39 42 47 51 55 54 54 57 52 55 50 49 64 73 69 67 70 74 72 67 67 67 64
49 47 46 45 45 46 46 47 48 44 48 49 47 44 39 39 38 38 35 34 34 39 43 45 48 49 52 52 54 53 48 43 55 55 67 64 70 66 68 72 75 71 69
47 45 44 41 41 41 42 43 44 45 46 47 46 45 43 41 40 39 38 37 35 36 37 40 44 45 46 51 49 46 38 35 42 37 56 76 77 77 78 75 67 70 72
47 44 42 39 36 37 37 38 40 41 42 44 44 44 43 42 40 39 38 39 39 37 38 37 38 40 43 49 45 37 34 34 37 35 45 69 76 77 78 77 77 76 70

GFSGL_sfc_temp_108.txt.gz
Temp
72 71 70 69 68 68 66 66 65 64 64 64 64 63 61 60 60 59 58 59 59 59 60 60 60 62 62 65 67 67 67 66 66 72 74 71 72 71 73 72 73 71 71
71 70 69 68 67 66 65 65 65 63 63 62 62 61 60 60 58 57 56 57 57 56 56 57 57 61 57 59 62 61 64 67 63 61 71 72 68 69 70 70 72 75 72
70 69 68 67 66 64 64 64 64 62 61 61 60 59 59 59 58 57 57 57 56 55 55 55 55 55 55 57 58 59 61 62 65 65 63 69 71 69 68 68 68 68 72
68 67 66 65 65 64 64 64 62 62 60 60 60 60 59 59 59 58 57 56 56 57 56 56 55 55 54 54 56 57 58 54 57 60 63 63 68 68 67 64 64 66 65
64 65 65 66 66 65 64 63 62 61 60 60 59 58 58 59 60 56 55 55 54 54 55 55 55 55 57 56 56 54 53 52 52 53 58 64 63 63 63 65 64 64 65
62 64 66 66 65 64 62 62 61 60 59 58 58 58 57 58 53 51 53 53 54 54 53 54 54 55 54 54 54 55 54 51 50 51 53 56 61 65 68 64 62 61 59
60 63 64 63 63 62 62 61 58 57 57 56 56 56 54 54 50 48 50 53 53 53 53 52 52 56 54 55 54 53 53 53 53 54 52 55 59 63 65 63 62 61 60
57 60 62 61 61 60 59 57 55 55 54 54 55 54 53 54 50 48 48 52 53 53 52 52 51 51 52 52 52 53 54 55 56 56 55 57 60 65 63 64 63 62 62
54 53 55 55 56 56 55 53 55 54 55 54 55 54 54 55 50 48 49 54 55 54 54 53 53 52 50 47 51 50 51 53 57 53 51 50 48 51 54 62 60 59 58
49 50 51 53 53 52 52 53 53 54 54 55 55 55 55 55 51 48 48 54 53 52 55 55 51 51 48 45 50 50 48 51 54 55 57 56 51 57 54 61 61 58 57
47 48 48 49 50 51 53 53 53 54 53 52 53 55 56 56 55 48 47 50 51 51 52 54 57 48 45 44 44 47 48 50 51 53 53 54 57 60 64 59 62 62 59
45 45 46 48 50 53 52 53 54 53 52 50 52 53 55 55 51 48 45 44 45 45 48 51 55 47 45 43 44 45 43 44 49 51 51 53 56 59 60 62 63 64 64
42 42 44 46 50 50 51 53 53 53 50 50 51 51 50 51 49 46 43 42 44 44 48 49 46 44 43 44 42 42 42 46 49 51 50 52 57 59 62 62 63 64 62
42 41 42 43 45 49 52 52 51 51 51 50 50 48 45 45 44 44 43 45 48 50 49 50 48 46 45 48 48 47 48 52 53 52 55 58 59 59 60 61 60 61 60
43 41 41 41 45 48 48 48 46 49 46 47 50 47 40 39 40 39 40 41 46 47 44 48 51 49 49 50 51 53 52 54 53 55 56 57 57 59 59 61 61 61 60
43 42 41 41 43 44 45 45 42 42 43 42 41 40 40 39 39 39 40 40 42 43 50 53 52 52 51 52 54 55 56 54 55 56 57 57 57 58 59 59 61 60 59
45 45 43 41 41 40 40 42 40 43 44 43 42 41 39 38 39 39 40 40 44 49 53 54 53 53 53 54 54 54 53 55 57 55 57 57 58 59 55 58 59 59 57
49 43 49 46 41 40 40 40 41 39 38 40 43 41 40 38 39 39 40 44 48 49 50 51 54 54 54 55 54 54 54 54 55 56 55 55 54 56 58 58 59 58 57
51 50 50 52 49 45 45 42 41 41 39 39 41 41 40 39 38 39 40 40 41 46 48 49 51 51 53 57 57 55 55 54 55 55 56 55 55 55 56 58 58 52 55
51 42 47 51 51 51 51 50 46 43 41 38 38 38 40 38 35 36 38 38 40 41 45 45 49 51 51 51 52 59 58 57 59 57 55 56 56 57 56 57 56 58 59
50 50 44 50 50 49 50 49 49 49 46 42 39 39 35 39 34 34 35 36 37 39 41 42 45 47 48 49 49 47 47 47 53 60 60 59 59 56 57 58 58 59 59
49 49 49 47 48 48 47 48 47 47 48 47 44 41 36 41 38 34 35 35 37 39 39 41 42 43 45 48 46 43 40 40 44 49 56 62 61 59 60 60 60 59 59
47 46 46 45 44 43 45 46 46 45 46 46 46 44 42 39 39 37 35 35 36 37 39 40 41 42 45 47 46 45 37 36 40 43 45 55 63 63 63 61 61 60 60
46 45 43 42 41 42 41 42 43 41 44 45 43 44 43 42 39 39 37 37 36 37 38 39 40 40 42 43 43 42 38 35 39 39 43 51 57 60 62 63 61 61 60
46 43 42 39 38 38 37 38 39 39 41 42 41 41 42 42 40 40 39 39 37 37 37 38 39 39 40 41 40 38 35 33 36 34 40 48 59 61 63 64 64 63 60
45 42 41 39 36 36 35 35 35 34 36 38 38 38 39 40 39 38 39 39 39 39 39 38 38 39 39 39 37 34 33 33 34 33 38 54 59 63 65 66 67 66 64

GFSGL_sfc_temp_111.txt.gz
Temp
60 59 58 58 58 57 56 56 56 56 56 56 56 55 55 54 54 52 51 52 53 52 53 55 55 56 57 58 57 58 59 59 57 62 67 68 69 67 70 70 71 68 67
60 59 58 58 57 56 56 56 56 54 55 55 55 55 55 55 53 52 51 53 53 54 54 52 53 57 53 53 54 54 55 58 56 55 60 63 66 70 71 65 68 72 68
59 58 57 56 56 55 55 55 55 55 54 54 54 53 54 54 53 52 52 54 52 55 55 54 53 54 53 51 51 52 53 55 56 54 54 60 62 68 68 64 66 65 69
57 56 55 55 55 55 55 55 55 55 54 53 53 53 54 55 55 55 57 54 52 53 55 55 53 53 51 51 51 51 52 50 51 51 53 55 57 63 63 63 63 63 63
55 55 55 56 56 55 55 55 54 53 53 53 53 54 55 53 56 51 51 51 50 50 51 53 53 55 56 55 53 51 50 49 51 51 50 52 54 57 59 61 62 61 61
52 53 56 56 56 55 54 53 51 51 50 51 54 55 50 54 51 50 51 49 49 50 49 52 54 55 55 54 54 54 53 49 47 46 47 47 52 55 59 63 60 59 57
51 54 55 54 53 52 52 50 49 48 50 54 54 49 50 51 49 48 50 51 53 52 52 51 52 55 54 54 53 52 52 52 52 51 47 48 49 54 55 55 59 58 57
48 49 51 50 50 51 49 48 50 54 53 53 51 53 52 52 49 47 48 52 52 53 52 52 52 52 52 51 50 50 50 51 51 52 52 50 53 55 55 57 57 59 60
45 46 48 48 48 48 48 50 52 52 52 52 54 53 52 54 49 47 47 51 50 50 52 54 55 55 51 46 50 49 49 50 53 51 50 49 48 49 50 53 55 57 56
45 46 46 46 45 47 49 50 52 52 52 53 52 50 50 52 49 46 46 47 45 46 48 50 50 50 49 45 49 50 48 50 52 51 53 51 49 53 50 53 55 55 56
44 44 45 47 46 49 50 51 50 52 52 52 48 48 48 49 50 44 44 43 43 42 43 45 49 47 45 43 45 49 48 51 50 49 50 50 52 53 55 56 57 57 55
41 41 43 44 46 48 48 50 51 51 50 45 45 47 48 48 47 44 42 41 42 41 44 47 49 45 44 44 44 45 43 45 48 48 47 48 49 51 54 57 58 60 61
42 41 42 41 45 46 48 47 47 48 47 45 45 44 43 45 44 43 41 41 42 43 47 49 45 43 42 43 42 42 41 45 46 45 46 48 50 52 57 57 59 61 59
39 41 41 41 41 46 45 46 41 42 42 43 44 39 40 40 40 41 41 42 44 48 50 52 51 46 43 43 46 47 48 48 47 47 50 50 53 54 55 55 55 57 57
39 40 41 41 42 42 44 44 42 43 41 40 41 39 36 36 37 38 38 40 43 46 50 53 54 54 52 50 50 50 51 49 49 51 50 51 52 53 54 55 55 56 57
39 39 40 40 41 41 39 41 42 41 41 40 39 38 38 39 39 38 39 39 41 41 48 48 49 50 51 53 52 52 53 51 50 50 51 51 52 52 54 55 56 56 57
39 41 40 40 40 39 39 39 38 42 42 40 39 39 39 38 38 38 39 39 40 43 43 45 47 46 48 50 53 53 52 54 54 52 52 53 52 53 52 56 56 57 57
43 43 42 41 39 38 39 39 40 39 38 39 40 39 39 38 37 37 38 40 40 41 41 41 43 45 46 47 47 50 52 54 55 55 54 54 54 56 56 56 58 57 56
44 44 43 43 38 39 37 36 37 38 39 39 39 39 39 38 37 37 38 37 36 38 39 39 41 42 45 43 45 44 45 45 52 54 54 55 55 56 57 57 57 50 52
44 42 43 43 42 42 41 40 40 37 36 38 37 37 38 36 35 35 36 36 36 37 37 39 39 41 42 41 41 41 40 41 44 48 53 55 55 55 56 57 57 55 57
42 42 41 41 41 40 40 39 39 39 38 37 34 38 35 37 34 35 35 35 36 36 37 37 38 38 40 39 38 38 37 36 38 42 45 50 55 54 54 55 59 59 58
41 41 40 38 39 38 38 38 37 37 38 37 37 38 35 38 36 34 35 36 37 38 38 38 37 38 39 38 36 36 35 34 35 37 38 44 53 55 55 54 55 57 56
39 38 37 36 36 35 35 35 34 34 35 36 35 36 36 34 35 34 34 34 37 38 39 39 39 38 39 39 37 36 33 32 33 35 35 40 51 55 55 56 55 57 57
38 36 34 33 34 32 32 32 32 32 34 33 33 33 34 33 33 33 33 33 34 37 39 39 39 39 38 38 37 37 35 34 34 34 36 42 51 54 57 57 58 58 57
36 34 32 33 31 34 34 33 30 30 31 32 31 31 32 33 32 33 33 34 33 33 35 37 38 39 38 37 35 35 33 32 34 33 36 45 48 52 52 60 58 59 58
34 33 31 31 32 34 33 32 31 31 30 30 30 30 31 31 31 31 32 32 32 33 33 33 35 35 36 36 34 33 32 32 32 32 37 43 46 47 48 57 59 58 57

GFSGL_sfc_temp_117.txt.gz
Temp
54 53 53 53 53 53 53 52 52 51 52 52 53 53 52 51 51 49 48 49 49 49 50 50 51 50 48 50 47 48 49 48 45 49 53 54 55 57 60 63 63 63 66
53 53 52 52 53 52 52 52 52 51 51 52 52 52 52 51 50 49 49 50 49 49 50 50 50 53 50 51 49 47 48 49 47 44 49 49 50 53 56 56 60 64 62
52 51 51 50 51 51 51 51 51 50 50 51 51 51 51 50 49 49 49 49 49 50 51 50 50 50 49 49 50 49 49 50 48 46 46 49 50 51 52 54 55 55 60
50 49 48 47 48 48 49 49 49 49 49 49 49 50 50 50 50 50 50 52 52 53 52 52 51 49 49 49 49 49 49 47 47 46 46 49 50 50 48 48 50 54 54
48 47 45 46 47 47 47 47 48 48 48 49 48 49 48 49 52 52 53 52 50 50 51 53 51 53 54 53 52 50 49 47 48 48 47 49 48 48 45 46 46 49 51
44 44 46 45 46 45 46 46 46 46 47 47 47 47 46 50 49 49 50 50 47 50 49 52 53 54 54 54 53 53 53 50 49 49 49 47 47 48 50 48 46 43 43
43 45 45 45 45 44 45 45 44 44 44 45 45 46 48 46 47 46 48 47 48 48 49 49 51 54 53 54 53 53 52 51 51 51 49 48 46 48 49 46 44 44 45
40 42 43 42 42 43 42 42 43 43 44 44 45 46 46 47 46 45 46 45 44 45 47 48 48 49 50 49 50 50 51 53 53 52 51 51 51 50 47 47 45 45 47
39 39 41 41 41 41 42 44 44 42 44 48 50 48 44 44 45 43 43 44 43 43 46 47 47 47 47 45 46 46 47 49 54 51 49 48 47 46 49 47 45 45 44
38 38 39 45 45 44 46 44 47 48 49 49 47 44 46 41 43 42 42 42 40 42 43 45 47 47 44 44 45 45 44 46 50 51 51 48 47 49 47 49 48 46 45
39 38 39 44 43 45 45 46 45 45 46 45 43 40 40 41 40 42 41 40 40 39 41 44 49 46 44 43 42 45 45 47 48 49 49 49 49 49 49 49 50 48 45
38 37 37 39 44 46 45 43 42 38 37 38 37 37 39 39 42 41 40 40 40 41 42 46 48 44 42 43 46 43 41 41 45 46 48 48 48 48 50 52 51 50 50
36 36 41 43 44 45 43 42 40 36 35 37 40 38 36 39 40 40 39 39 42 42 45 44 44 43 44 45 44 44 46 45 44 45 45 47 49 50 51 51 51 52 51
35 35 38 42 41 42 43 43 41 38 35 36 36 36 37 38 37 38 38 40 42 43 44 46 45 44 44 44 45 45 45 45 46 46 46 48 49 49 49 50 50 50 50
34 35 35 36 36 40 42 41 41 40 39 37 37 37 35 34 36 37 37 37 39 40 42 43 42 41 41 41 40 41 42 42 42 46 48 48 48 49 49 50 50 51 49
34 34 33 34 35 38 40 41 42 41 40 39 39 38 38 38 38 37 37 37 38 38 40 38 38 38 38 37 37 37 39 39 40 42 47 48 49 50 51 52 53 51 50
33 34 35 37 36 35 37 37 36 40 42 40 38 38 38 37 37 37 37 38 38 38 37 36 35 36 36 36 36 35 35 37 39 40 41 46 49 49 49 51 52 53 53
36 40 36 35 36 36 36 36 36 35 34 35 38 37 37 36 36 37 37 38 37 37 36 35 35 35 35 35 35 34 35 35 36 36 38 40 43 49 51 52 53 53 54
37 36 37 37 38 37 35 35 34 33 32 33 33 34 35 36 35 35 36 35 34 34 35 35 35 35 35 35 34 34 34 33 34 35 36 38 40 43 48 53 52 45 50
35 37 36 35 35 34 33 32 32 30 30 30 30 30 31 31 28 29 30 31 32 33 34 35 35 34 34 34 33 33 33 32 33 33 34 36 38 40 46 54 54 53 55
35 34 35 33 32 32 30 29 29 29 28 27 27 30 30 28 26 27 28 29 29 31 31 33 33 33 33 33 32 31 31 31 31 31 33 34 36 40 47 55 55 56 54
33 33 33 31 31 30 29 29 27 27 27 26 26 29 29 28 27 26 27 27 28 29 30 31 33 32 32 32 30 30 30 29 29 31 31 33 37 43 46 53 56 55 53
32 32 31 31 30 30 28 28 28 27 26 26 26 27 27 26 26 26 27 26 27 27 28 29 30 30 31 33 32 31 29 28 29 31 30 33 38 41 45 51 56 54 53
31 30 29 29 29 27 27 25 25 28 28 27 27 27 26 26 25 26 28 26 26 27 28 28 29 29 30 32 32 32 31 31 31 31 32 35 37 40 42 50 53 52 50
28 28 27 26 26 25 24 25 25 26 27 28 27 28 27 26 25 26 28 28 28 27 28 29 30 30 30 31 30 31 30 30 31 31 33 36 38 38 40 47 53 52 51
29 28 27 25 25 24 24 24 25 25 26 27 26 27 28 25 25 26 26 28 29 29 29 29 30 30 30 30 30 30 29 30 30 31 33 35 36 36 37 43 49 53 52

GFSGL_sfc_temp_120.txt.gz
Temp
55 54 55 55 55 55 54 54 54 55 55 55 55 55 54 54 54 52 52 52 52 52 52 52 52 53 53 52 52 52 52 52 47 52 56 56 54 54 57 58 60 61 63
54 54 54 54 54 54 54 54 54 54 54 54 55 54 54 54 53 52 52 52 52 51 52 52 52 55 53 52 52 51 51 52 50 47 52 53 52 54 54 54 57 60 61
52 51 51 51 52 52 52 53 53 53 53 53 53 53 52 52 52 52 52 52 52 52 53 52 52 52 51 52 52 51 52 52 51 49 48 53 53 54 53 54 54 56 59
49 48 47 47 48 49 50 50 51 52 52 52 52 52 52 52 52 52 53 53 52 53 52 52 53 52 51 51 51 51 52 51 50 49 49 49 51 54 53 51 51 54 54
47 46 45 47 47 48 48 49 49 50 50 51 51 51 51 51 54 52 51 50 50 50 51 52 53 54 55 55 53 52 52 51 50 48 47 49 50 52 51 53 50 52 53
45 45 46 46 47 46 47 47 48 48 48 49 49 49 49 52 48 48 49 48 47 47 47 49 51 52 53 53 52 52 52 49 49 49 48 47 49 52 54 52 51 48 46
43 45 45 45 45 45 45 46 46 46 47 47 48 49 49 49 45 45 46 46 45 46 46 48 49 52 50 51 51 51 51 51 51 50 47 48 49 52 53 51 50 48 48
41 42 43 43 43 44 44 45 45 46 46 47 48 49 48 49 45 43 44 44 44 45 46 46 46 47 49 48 48 47 48 50 51 52 51 51 52 54 52 51 50 50 50
39 40 41 42 44 44 45 45 47 45 46 49 49 47 45 45 43 42 43 43 43 43 46 46 46 47 47 44 45 45 47 49 52 50 49 47 47 47 49 49 45 44 45
39 39 41 43 44 45 45 45 46 47 47 48 47 45 44 42 41 41 42 42 40 42 43 46 46 46 43 43 43 45 45 47 49 50 50 49 47 49 47 50 49 45 46
40 40 41 42 43 45 45 43 43 43 43 44 43 42 42 41 42 41 40 40 40 39 42 45 48 44 43 41 42 45 42 43 45 46 47 49 50 49 49 49 49 48 46
39 39 40 41 44 46 44 43 42 40 40 41 40 40 41 42 42 40 39 40 41 41 43 45 46 42 42 41 42 41 41 44 45 46 45 46 48 49 50 49 49 49 53
39 38 40 42 44 45 43 41 40 39 38 38 38 38 39 41 40 40 39 40 41 42 44 43 43 42 42 43 42 41 42 42 41 42 44 46 48 49 51 51 51 52 52
37 38 39 41 42 43 43 41 38 36 35 36 37 36 37 38 37 38 39 40 41 42 42 43 43 43 42 42 43 42 41 40 40 39 41 47 50 50 49 51 50 50 49
37 38 38 38 39 41 43 42 41 40 39 38 37 37 35 34 35 37 37 37 39 38 41 41 41 41 40 40 40 40 39 39 37 38 40 41 48 50 49 50 50 50 48
36 36 37 38 38 40 40 40 40 40 39 38 38 37 37 36 37 37 37 37 38 38 39 36 36 36 36 36 35 36 37 36 36 37 38 39 41 45 51 51 50 49 48
35 36 36 37 38 37 38 38 37 40 40 38 36 36 36 35 36 35 36 37 37 38 36 35 35 34 35 35 35 33 33 35 36 36 36 37 39 41 42 49 51 51 50
36 38 36 37 37 36 36 36 36 34 33 34 36 35 35 34 34 34 34 36 35 36 34 34 33 33 33 33 33 32 32 33 34 34 34 35 37 38 40 44 51 52 55
37 36 36 36 36 36 35 35 34 33 31 31 33 33 33 33 33 33 33 33 31 31 32 33 33 32 33 33 33 32 31 31 32 32 33 33 34 35 37 41 48 46 50
36 36 35 35 34 33 33 32 31 31 30 30 30 30 31 31 28 30 31 30 30 30 31 31 33 33 32 32 32 31 30 30 30 30 31 32 33 35 38 43 46 55 56
34 34 33 33 32 31 31 30 30 30 29 29 29 31 28 29 27 28 29 29 29 29 29 29 31 31 31 31 31 30 30 29 29 29 29 31 32 35 39 43 49 57 55
34 34 33 32 32 31 31 31 31 30 30 29 29 31 28 29 28 28 29 29 29 29 29 29 30 30 31 31 30 29 29 29 28 28 29 30 32 36 40 42 48 56 54
34 33 32 31 32 31 31 31 30 30 30 30 30 30 29 29 28 29 29 28 29 29 30 31 30 31 32 32 32 31 29 27 28 29 29 30 33 36 38 42 54 54 53
33 33 32 31 31 30 30 29 29 30 30 30 30 30 29 29 29 29 29 30 30 31 31 31 31 31 31 32 32 32 31 30 30 30 30 32 33 35 38 43 51 53 51
32 32 31 30 30 29 29 29 29 29 30 30 29 29 30 30 29 29 29 30 31 31 32 32 32 32 31 31 31 31 30 29 30 30 31 33 33 35 36 40 43 51 49
32 31 30 29 29 28 28 28 27 28 28 29 29 29 29 29 29 29 29 29 29 31 31 31 32 32 32 32 31 30 29 29 30 30 32 33 32 33 35 38 41 45 50

GFSGL_sfc_temp_123.txt.gz
Temp
61 63 65 65 64 64 63 63 63 63 63 63 63 63 63 63 63 62 61 62 61 61 62 61 61 61 63 63 64 63 62 61 54 59 63 65 63 62 64 65 65 65 67
61 61 61 63 64 63 63 63 63 63 63 62 63 63 63 62 62 61 60 61 60 60 61 60 61 63 60 60 60 58 59 59 55 50 54 56 56 60 61 61 63 66 66
64 63 62 62 62 62 62 62 63 63 63 63 63 62 61 61 60 60 60 60 60 60 60 59 59 59 58 60 57 56 57 57 56 53 51 55 56 58 57 60 62 63 65
63 61 60 59 60 60 60 61 61 61 61 61 61 61 61 60 61 61 60 59 59 60 59 58 59 58 57 55 55 55 54 52 52 51 51 52 53 55 56 55 58 65 63
59 58 57 58 59 59 59 59 59 59 60 60 60 60 60 60 61 57 57 57 57 57 58 59 59 57 54 54 55 52 51 50 50 50 49 50 51 51 51 55 55 61 63
57 56 56 57 57 56 56 57 58 58 58 59 59 59 59 61 47 47 49 55 56 56 56 57 58 56 57 52 52 52 51 48 48 47 48 48 50 52 53 52 52 53 53
55 55 54 54 54 55 55 56 55 55 56 57 58 58 57 57 45 44 45 54 54 54 54 55 55 58 52 53 51 50 51 50 50 49 47 48 49 51 52 50 51 52 53
53 53 53 54 54 54 55 54 55 56 55 56 56 55 55 53 43 43 43 54 54 53 51 52 51 50 50 48 47 51 54 54 54 53 52 52 53 53 53 52 51 52 53
51 51 52 53 53 53 52 51 52 54 55 55 55 53 52 53 42 42 44 52 53 50 49 49 49 51 45 43 48 48 49 52 54 49 48 47 45 45 46 49 48 47 46
50 50 51 52 52 52 50 51 52 52 53 54 51 50 47 50 42 40 42 48 47 46 47 50 48 46 42 41 45 45 42 43 45 47 50 50 51 54 47 49 50 46 46
50 50 51 52 52 51 50 50 49 49 48 46 48 50 49 46 45 40 40 43 42 43 48 51 54 43 41 41 41 45 41 42 44 44 46 48 50 53 54 52 50 48 47
50 50 50 51 52 52 48 47 45 43 42 42 45 48 49 46 42 40 39 39 41 43 46 48 48 41 41 41 43 40 40 42 42 43 42 43 46 49 51 52 51 50 51
50 49 50 51 51 50 46 43 42 40 39 38 41 45 44 46 42 39 39 40 41 43 47 44 42 41 42 46 42 41 41 41 39 38 37 39 43 47 53 52 53 51 51
50 49 50 50 50 50 50 49 46 44 44 46 45 42 41 42 39 39 39 41 41 42 42 46 43 42 42 43 48 46 43 39 37 36 37 39 43 45 47 52 51 52 50
49 49 50 50 50 50 49 48 48 43 41 43 42 43 39 36 37 36 36 39 39 40 42 45 42 39 41 42 42 42 39 39 36 36 37 37 38 42 43 46 50 50 49
49 50 49 50 51 50 49 47 38 38 37 36 36 37 41 36 35 35 36 37 37 37 41 40 38 36 38 41 41 41 40 35 34 35 35 35 35 37 39 41 45 50 49
47 48 48 48 48 47 47 46 44 43 38 36 35 35 34 34 34 34 35 36 36 39 39 41 37 37 36 36 40 39 34 34 34 33 33 34 34 36 37 39 43 45 51
46 41 47 47 47 46 45 43 43 41 40 41 39 36 35 34 34 34 35 39 41 41 40 39 40 41 41 39 40 39 37 36 33 32 31 32 33 34 35 37 40 42 51
47 46 46 45 44 43 44 42 41 40 39 40 41 39 37 36 35 36 36 39 38 39 39 40 41 40 40 40 41 40 36 34 33 31 30 30 32 33 33 37 40 40 43
43 37 41 43 43 42 42 40 39 39 38 39 39 36 36 39 38 39 39 39 39 39 38 38 40 40 41 40 40 38 35 35 34 30 29 30 31 32 34 37 41 43 49
43 41 37 42 41 41 40 39 39 38 39 38 37 35 30 38 37 38 38 38 38 38 37 37 39 40 41 40 39 37 34 34 33 30 29 29 30 32 36 38 41 46 54
43 42 41 40 41 40 40 40 39 39 38 38 39 39 32 39 38 38 38 37 39 40 39 39 39 40 41 40 38 36 34 33 31 30 29 28 30 33 35 38 44 48 56
43 42 41 40 40 37 40 40 39 39 39 39 39 39 39 39 39 39 38 39 40 40 41 41 40 40 41 41 41 38 35 30 30 31 28 28 30 32 35 37 42 53 54
43 42 41 41 39 40 40 39 40 36 39 40 39 39 39 39 39 39 39 39 40 41 41 41 40 40 40 40 41 39 36 32 32 32 30 30 31 32 34 37 41 46 50
42 41 41 40 40 40 40 39 39 39 39 39 39 39 39 39 39 39 39 39 39 39 39 40 40 40 40 39 39 37 33 30 31 30 33 33 31 32 32 36 38 42 47
41 39 39 38 38 38 38 38 38 38 38 38 38 38 38 38 38 38 38 38 38 39 38 39 40 39 40 40 37 32 31 30 31 30 36 36 32 31 31 34 36 39 42

GFSGL_sfc_temp_126.txt.gz
Temp
70 68 65 64 64 66 67 68 69 69 70 70 70 71 71 70 68 67 67 68 67 67 67 67 66 64 65 65 66 67 65 65 58 60 63 64 62 62 64 66 67 65 68
72 70 68 67 68 67 67 69 70 69 71 70 71 70 70 68 67 67 66 67 67 66 65 64 66 67 62 62 63 62 61 59 56 52 56 58 59 63 64 63 64 66 66
72 71 69 68 67 67 67 68 69 69 69 70 70 68 67 67 67 67 67 66 66 64 65 65 64 63 62 63 60 59 59 59 58 53 53 57 58 60 60 61 62 63 68
72 70 68 67 67 67 67 67 67 69 69 69 68 67 67 67 67 66 65 64 64 65 65 64 64 63 61 59 58 58 57 55 54 53 53 53 56 58 58 56 57 62 62
69 68 66 66 67 67 66 67 67 68 67 67 67 67 66 67 63 59 61 62 62 63 64 65 65 61 57 56 56 54 53 52 52 51 50 52 53 54 54 56 54 56 57
67 66 66 66 66 65 65 65 65 65 65 65 64 63 61 63 46 46 49 58 60 62 62 63 62 60 59 54 52 52 51 49 49 49 49 49 51 53 54 53 52 51 48
65 65 65 64 63 63 64 64 62 61 61 60 60 59 59 54 44 43 44 56 60 61 61 58 58 61 55 53 54 52 55 52 51 53 50 51 50 52 52 51 50 50 50
63 63 63 64 62 63 62 59 57 58 56 56 57 57 59 48 43 42 42 58 60 61 59 55 52 53 51 49 52 57 59 61 60 58 54 52 52 52 49 51 50 49 52
61 61 61 62 61 60 58 57 57 58 57 58 57 57 55 51 42 41 44 56 59 56 56 53 53 51 43 42 51 54 55 57 56 51 48 46 45 45 46 49 48 47 48
56 58 60 61 60 57 57 57 58 58 57 58 57 55 49 50 41 40 42 52 51 50 53 55 44 46 42 41 50 51 51 51 50 51 53 53 51 51 50 52 51 47 47
59 60 59 59 57 56 56 56 54 52 51 48 49 52 51 47 47 40 40 45 45 48 50 51 55 42 41 40 41 50 46 44 48 47 46 49 49 53 52 54 54 50 48
59 58 58 57 59 57 54 53 51 49 46 44 46 51 52 50 42 40 39 40 42 47 46 50 51 40 40 40 46 40 40 45 51 44 42 44 44 45 47 48 52 54 52
57 57 57 57 57 57 56 55 56 55 56 56 55 53 51 51 47 41 40 40 41 43 44 44 42 41 41 45 42 42 44 46 45 39 38 40 42 44 44 48 49 55 55
56 56 57 56 56 57 59 57 53 51 52 53 51 51 51 50 45 41 41 42 41 43 43 45 45 45 43 45 50 54 55 49 39 36 38 39 40 40 38 45 43 45 50
56 56 57 58 57 56 52 51 52 45 43 47 46 49 46 45 41 37 38 43 42 42 44 51 50 50 51 48 50 54 54 51 43 36 36 36 37 36 37 40 40 43 44
56 57 56 58 58 57 56 52 36 38 36 36 35 38 45 36 35 36 36 37 37 38 49 50 49 51 51 51 51 51 51 48 46 36 36 34 33 34 35 37 41 41 44
54 55 57 55 56 54 54 53 52 41 37 37 37 36 36 34 36 36 37 37 38 42 50 50 49 49 50 50 50 50 48 48 47 38 34 33 33 33 34 35 37 39 41
53 42 55 54 54 54 53 52 52 50 49 50 40 39 37 36 36 36 38 43 48 47 47 48 48 49 50 49 49 49 47 47 46 41 34 33 31 32 32 34 36 38 40
55 54 54 53 52 50 52 51 51 49 48 49 50 45 42 40 39 39 40 47 46 46 47 47 48 49 50 50 50 49 47 44 43 40 32 31 31 31 31 34 36 36 38
49 41 45 53 52 51 51 50 49 49 49 49 47 44 46 47 47 47 46 46 47 47 47 47 49 49 50 49 49 48 47 45 43 36 31 30 30 30 32 34 36 37 42
51 49 39 52 51 51 50 49 49 49 48 48 48 43 32 46 47 48 47 48 48 48 48 48 50 50 50 49 48 48 47 45 40 34 31 29 29 31 34 35 38 42 46
52 51 51 50 49 48 49 50 50 49 49 49 49 47 35 50 49 48 48 48 49 50 50 49 49 49 49 48 47 46 45 43 38 34 32 30 30 32 32 35 37 41 47
51 51 50 50 49 44 50 50 49 49 49 49 49 49 49 48 48 47 47 47 48 49 50 49 49 49 49 48 48 46 44 38 34 36 33 32 32 32 32 33 36 39 42
51 50 49 49 48 50 50 50 50 43 48 49 48 48 48 48 48 47 47 47 48 48 49 48 48 48 47 48 47 45 44 37 36 38 36 39 35 33 33 33 36 38 41
49 49 49 48 48 49 50 49 49 48 48 48 47 48 48 48 47 47 47 47 47 47 47 47 47 47 47 47 44 41 36 31 35 32 38 43 41 37 33 33 35 36 39
47 46 46 46 46 46 46 47 47 47 47 47 47 47 47 47 47 46 47 46 46 47 46 47 47 46 46 47 41 34 32 31 34 31 34 45 43 42 34 33 34 35 37